                ,  2.065,  2.215,  2.365,  2.515,  2.665,  2.815,  2.965,  3.115,  3.265,  3.415,  3.565,  3.715,  3.865,  4.015,  4.165,  4.315,  4.465,  4.615,  4.765,  4.915,  5.065,  5.215,  5.365,  5.515,  5.665,  5.815,  5.965,  6.115,  6.265,  6.415,  6.565,  6.715,  6.865,  7.015,  7.165,  7.315,  7.465,  7.615,  7.765,  7.915,  8.065,  8.215,  8.365,  8.515,  8.665,  8.815,  8.965,  9.115,  9.265,  9.415,  9.565,  9.715,  9.865, 10.015, 10.165, 10.315, 10.465, 10.615, 10.765, 10.915, 11.065, 11.215, 11.365, 11.515, 11.665, 11.815, 11.965, 12.115, 12.265, 12.415, 12.565, 12.715, 12.865, 13.015, 13.165, 13.315, 13.465, 13.615, 13.765, 13.915, 14.065, 14.215, 14.365, 14.515, 14.665, 14.815, 14.965, 15.115, 15.265, 15.415, 15.565, 15.715, 15.865, 16.015, 16.165, 16.315, 16.465, 16.615, 16.765, 16.915, 17.065, 17.215, 17.365, 17.515, 17.665, 17.815, 17.965, 18.115, 18.265, 18.415, 18.565, 18.715, 18.865, 19.015, 19.165, 19.315, 19.465, 19.615, 19.765, 19.915
2006/11/17 00:00,   -6.6,   -7.6,   -8.7,   -8.2,   -8.2,   -9.4,  -11.2,  -11.6,  -11.7,  -11.1,  -11.6,  -10.1,   -8.8,   -8.1,   -7.8,   -6.7,   -5.0,   -5.0,   -5.3,   -6.2,   -7.6,   -7.8,   -8.5,   -9.0,   -7.3,   -5.9,   -6.3,   -7.0,   -7.4,   -8.2,   -7.9,   -6.9,   -8.0,   -9.0,   -9.1,   -8.8,   -6.9,   -6.8,   -6.6,   -7.0,  999.0,   -1.0,   -1.0,   -2.0,   -2.8,   -3.0,   -3.0,   -3.4,   -3.4,   -3.6,   -3.5,   -2.6,   -3.5,   -3.5,   -4.0,   -5.2,   -6.5,   -6.8,   -7.8,   -8.9,  -10.1,  -10.8,  -11.2,  -11.5,  -11.9,  -12.4,  -13.5,  999.0,  999.0,  999.0,  -10.9,  -11.5,  999.0,  999.0,  999.0,  -10.7,  999.0,  999.0,  -11.7,  -10.2,   -8.9,  999.0,   -4.7,   -1.5,    1.1,  999.0,  999.0,  999.0,  999.0,  999.0,  999.0,  999.0,  999.0,  999.0,  999.0,  999.0,  999.0,   -1.1,  999.0,  999.0,  999.0,   -4.6,   -5.8,   -5.5,  999.0,  999.0,  999.0,  999.0,   -7.8,  999.0,  999.0,  999.0,  999.0,  999.0,  999.0,  999.0,  999.0,  999.0,  999.0,  999.0
2006/11/17 00:10,   -6.0,   -7.1,   -8.5,   -8.0,   -8.7,  -10.0,  -11.5,  -11.9,  -11.3,  -11.3,  -11.6,  -10.5,   -9.6,   -8.7,   -8.3,   -7.3,   -5.7,   -5.3,   -5.3,   -6.3,   -7.6,   -7.5,   -8.0,   -8.2,   -6.6,   -5.2,   -6.2,   -6.4,   -7.2,   -7.6,   -7.5,   -7.2,   -8.6,   -9.1,   -9.8,   -9.2,   -7.4,   -7.1,   -6.9,   -7.0,   -5.7,   -1.6,   -2.4,   -2.8,   -3.4,   -3.8,   -3.7,   -3.8,   -4.0,   -3.9,   -3.8,   -3.5,   -3.9,   -3.7,   -4.3,   -5.2,   -6.9,   -7.4,   -8.4,   -9.5,  -10.8,  -11.3,  -11.8,  -12.0,  -12.6,  -13.5,  -14.2,  -14.6,  999.0,  -14.4,  999.0,  -11.2,  -11.5,  -11.0,   -9.9,  -10.9,  999.0,  999.0,  -11.5,  -10.2,   -9.2,  999.0,   -5.3,   -1.5,    0.8,  999.0,  999.0,  999.0,  999.0,  999.0,  999.0,  999.0,  999.0,  999.0,  999.0,  999.0,  999.0,   -1.6,  999.0,  999.0,  999.0,   -5.1,   -6.2,   -6.0,  999.0,  999.0,  999.0,   -9.7,   -9.7,  999.0,  999.0,  999.0,  999.0,  999.0,  999.0,  999.0,  999.0,  999.0,  999.0,  999.0
2006/11/17 00:20,   -9.7,   -7.5,   -6.9,   -7.4,   -8.2,  -10.7,  -11.1,  -11.0,  -11.4,  -11.3,  -11.4,  -10.6,  -10.0,   -8.6,   -8.1,   -7.3,   -5.4,   -5.3,   -5.8,   -7.2,   -8.2,   -8.6,   -8.7,   -8.3,   -6.0,   -6.1,   -7.1,   -7.0,   -8.3,   -8.3,   -8.2,   -8.3,   -9.2,   -9.4,  -10.0,   -9.5,   -8.1,   -7.3,   -7.1,   -6.9,   -4.4,   -2.5,   -3.8,   -4.1,   -4.6,   -4.6,   -4.8,   -4.6,   -4.5,   -4.5,   -4.9,   -4.3,   -4.4,   -4.0,   -4.7,   -6.0,   -7.3,   -8.0,   -8.9,  -10.7,  -11.5,  -11.4,  -11.6,  -12.3,  -13.7,  -15.0,  -14.4,  999.0,  999.0,  999.0,  999.0,  -11.9,  999.0,  -10.7,  999.0,  999.0,  999.0,  999.0,  999.0,   -9.4,   -8.2,  999.0,  999.0,   -1.6,    0.7,  999.0,  999.0,  999.0,  999.0,  999.0,  999.0,  999.0,  999.0,  999.0,  999.0,  999.0,  999.0,   -1.4,  999.0,  999.0,  999.0,   -4.7,   -6.6,  999.0,  999.0,  999.0,  999.0,   -9.9,  -10.6,  999.0,  999.0,  999.0,  999.0,  999.0,  999.0,  999.0,  999.0,  999.0,  999.0,  999.0
2006/11/17 00:30,   -5.9,   -6.7,   -7.0,   -7.5,   -8.5,  -10.4,  -10.4,  -10.5,  -10.9,  -10.7,  -10.8,  -10.1,   -9.5,   -8.0,   -7.0,   -6.6,   -5.1,   -5.6,   -6.7,   -8.1,   -8.4,   -9.0,   -9.1,   -6.9,   -4.9,   -6.4,   -7.4,   -7.5,   -7.7,   -7.9,   -7.7,   -7.0,   -7.6,   -8.6,   -8.7,   -9.4,   -7.7,   -7.1,   -6.6,   -6.3,   -4.1,   -3.1,   -4.0,   -4.7,   -4.9,   -5.2,   -5.2,   -4.9,   -4.9,   -4.7,   -5.0,   -4.0,   -4.3,   -4.3,   -4.7,   -6.4,   -7.4,   -8.1,   -9.6,  -11.3,  -12.0,  -11.5,  -11.6,  999.0,  -14.1,  999.0,  -14.2,  -13.7,  999.0,  999.0,  999.0,  -11.6,  999.0,  999.0,   -9.5,  999.0,  999.0,  999.0,   -9.6,   -9.6,   -7.6,  999.0,   -3.4,   -3.1,  999.0,  999.0,  999.0,  999.0,  999.0,  999.0,  999.0,  999.0,  999.0,  999.0,  999.0,  999.0,   -0.2,   -1.0,    0.2,  999.0,  999.0,   -4.6,   -6.8,  999.0,  999.0,  999.0,  999.0,  999.0,  -10.5,  999.0,  999.0,  999.0,  999.0,  999.0,  999.0,  999.0,  999.0,  999.0,  999.0,  999.0
2006/11/17 00:40,   -6.0,   -6.6,   -6.9,   -7.0,   -7.3,   -9.1,   -8.8,   -9.0,   -9.5,   -9.3,   -9.6,   -9.4,   -8.1,   -6.5,   -6.3,   -5.8,   -5.5,   -6.3,   -7.5,   -8.5,   -8.7,   -9.2,   -9.1,   -7.5,   -5.4,   -6.3,   -7.4,   -8.0,   -8.3,   -8.4,   -8.1,   -6.5,   -6.8,   -7.0,   -7.0,   -7.3,   -6.4,   -5.5,   -4.8,   -4.5,   -2.1,   -3.1,   -3.4,   -3.6,   -3.9,   -4.2,   -4.2,   -4.1,   -3.9,   -3.6,   -3.6,   -3.2,   -3.6,   -3.6,   -3.6,   -5.6,   -6.4,   -7.0,   -8.6,  -10.1,  -10.9,  -10.8,  -11.3,  -11.7,  -11.6,  999.0,   -8.4,  -12.2,  -12.1,  -11.8,  -11.3,  -11.1,  -10.4,  999.0,  -10.5,  999.0,   -9.4,   -9.4,   -8.4,   -9.1,   -5.8,   -4.4,   -2.4,  999.0,  999.0,  999.0,  999.0,  999.0,  999.0,  999.0,  999.0,  999.0,  999.0,  999.0,  999.0,  999.0,  999.0,    1.0,  999.0,  999.0,  999.0,   -4.4,   -5.9,  999.0,  999.0,  999.0,  999.0,  999.0,  999.0,  999.0,  999.0,  999.0,  999.0,  999.0,  999.0,  999.0,  999.0,  999.0,  999.0,  999.0
2006/11/17 00:50,   -7.2,   -7.5,   -7.4,   -6.9,   -7.0,   -8.5,   -8.5,   -8.6,   -8.6,   -8.4,   -8.8,   -8.9,   -7.9,   -6.8,   -6.2,   -5.7,   -5.9,   -6.7,   -7.7,   -8.8,   -8.9,   -9.6,   -9.7,   -8.4,   -5.8,   -5.5,   -6.7,   -7.4,   -8.2,   -8.5,   -6.7,   -5.8,   -6.4,   -6.3,   -6.5,   -6.5,   -5.6,   -4.5,   -4.1,   -3.5,   -2.1,   -1.5,   -2.2,   -2.2,   -3.2,   -3.4,   -3.3,   -3.1,   -3.0,   -2.6,   -2.6,   -2.7,   -2.8,   -3.1,   -3.0,   -3.8,   -5.2,   -6.1,   -7.9,   -9.3,  -10.3,  -11.0,  -11.6,  -11.5,  -11.8,  -11.6,  999.0,  -11.3,  -11.1,  -10.7,  -11.3,  -11.1,  999.0,  999.0,  999.0,  -10.8,  -10.1,  -10.4,   -9.6,   -9.4,   -7.6,  999.0,  999.0,  999.0,  999.0,  999.0,  999.0,  999.0,  999.0,  999.0,  999.0,  999.0,  999.0,  999.0,  999.0,  999.0,  999.0,  999.0,  999.0,  999.0,  999.0,  999.0,   -5.1,   -7.0,  999.0,  999.0,  999.0,  999.0,  999.0,  999.0,  999.0,  999.0,  999.0,  999.0,  999.0,  999.0,  999.0,  999.0,  999.0,  999.0
2006/11/17 01:00,   -7.8,   -7.8,   -7.5,   -7.3,   -8.2,   -9.2,  -10.3,   -9.5,   -8.9,   -8.3,   -8.5,   -8.7,   -8.8,   -7.4,   -6.5,   -5.8,   -6.1,   -6.4,   -7.2,   -8.2,   -8.3,   -8.4,   -8.7,   -7.5,   -5.7,   -5.3,   -6.6,   -7.3,   -8.5,   -8.5,   -6.7,   -6.3,   -6.8,   -7.1,   -7.3,   -7.8,   -6.8,   -5.8,   -5.7,   -4.9,   -3.3,   -3.1,   -3.2,   -3.1,   -3.4,   -3.5,   -3.5,   -3.3,   -3.0,   -2.7,   -2.2,   -2.3,   -2.1,   -2.0,   -2.1,   -3.4,   -4.3,   -5.5,  999.0,   -8.9,  -10.8,  -11.7,  -11.5,  -11.3,  -11.3,  -10.8,  999.0,  -10.8,  999.0,   -9.5,  -11.0,  -12.0,  999.0,  999.0,  999.0,  -11.8,  -11.9,  -10.8,   -9.5,   -9.0,   -7.7,   -5.7,  999.0,  999.0,  999.0,  999.0,  999.0,  999.0,  999.0,    0.0,  999.0,    6.5,  999.0,  999.0,  999.0,  999.0,  999.0,   -1.6,  999.0,  999.0,  999.0,  999.0,   -4.8,   -6.5,  999.0,  999.0,  999.0,   -9.6,  999.0,  999.0,  999.0,  999.0,  999.0,  999.0,  999.0,  999.0,  999.0,  999.0,  999.0,  999.0
2006/11/17 01:10,   -7.6,   -7.7,   -7.6,   -8.0,   -9.3,   -9.8,  -11.2,  -10.3,   -9.3,   -8.6,   -8.7,   -9.1,   -9.1,   -8.0,   -7.4,   -6.0,   -5.9,   -6.1,   -6.6,   -7.6,   -7.7,   -7.9,   -8.3,   -6.6,   -5.3,   -5.7,   -6.9,   -7.8,   -8.9,   -9.1,   -7.5,   -6.9,   -7.7,   -7.9,   -8.4,   -9.1,   -7.4,   -6.4,   -6.8,   -5.4,   -3.4,  999.0,   -3.3,   -3.2,   -3.3,   -3.4,   -3.5,   -3.3,   -3.2,   -2.8,   -2.3,   -2.1,   -2.3,   -1.9,   -2.2,   -3.7,   -5.4,   -5.9,   -7.6,   -9.8,  -11.3,  -11.8,  -11.7,  -10.7,  -10.5,   -9.9,  -11.0,  -10.6,  -10.2,   -9.7,  -10.5,  999.0,  999.0,  999.0,  999.0,  -11.8,  -11.6,  -10.0,  999.0,   -8.3,   -8.3,   -5.8,  999.0,  999.0,  999.0,  999.0,  999.0,  999.0,  999.0,  999.0,  999.0,  999.0,  999.0,  999.0,  999.0,  999.0,  999.0,   -1.5,  999.0,  999.0,  999.0,   -5.4,   -5.3,  999.0,   -9.4,  999.0,  999.0,   -9.1,  999.0,  999.0,  999.0,  999.0,  999.0,  999.0,  999.0,  999.0,  999.0,  999.0,  999.0,  999.0
2006/11/17 01:20,  999.0,  999.0,  999.0,  999.0,  999.0,  999.0,  999.0,  999.0,  999.0,  999.0,  999.0,  999.0,  999.0,  999.0,  999.0,  999.0,  999.0,  999.0,  999.0,  999.0,  999.0,  999.0,  999.0,  999.0,  999.0,  999.0,  999.0,  999.0,  999.0,  999.0,  999.0,  999.0,  999.0,  999.0,  999.0,  999.0,  999.0,  999.0,  999.0,  999.0,  999.0,  999.0,  999.0,  999.0,  999.0,  999.0,  999.0,  999.0,  999.0,  999.0,  999.0,  999.0,  999.0,  999.0,  999.0,  999.0,  999.0,  999.0,  999.0,  999.0,  999.0,  999.0,  999.0,  999.0,  999.0,  999.0,  999.0,  999.0,  999.0,  999.0,  999.0,  999.0,  999.0,  999.0,  999.0,  999.0,  999.0,  999.0,  999.0,  999.0,  999.0,  999.0,  999.0,  999.0,  999.0,  999.0,  999.0,  999.0,  999.0,  999.0,  999.0,  999.0,  999.0,  999.0,  999.0,  999.0,  999.0,  999.0,  999.0,  999.0,  999.0,  999.0,  999.0,  999.0,  999.0,  999.0,  999.0,  999.0,  999.0,  999.0,  999.0,  999.0,  999.0,  999.0,  999.0,  999.0,  999.0,  999.0,  999.0,  999.0
2006/11/17 01:30,  999.0,  999.0,  999.0,  999.0,  999.0,  999.0,  999.0,  999.0,  999.0,  999.0,  999.0,  999.0,  999.0,  999.0,  999.0,  999.0,  999.0,  999.0,  999.0,  999.0,  999.0,  999.0,  999.0,  999.0,  999.0,  999.0,  999.0,  999.0,  999.0,  999.0,  999.0,  999.0,  999.0,  999.0,  999.0,  999.0,  999.0,  999.0,  999.0,  999.0,  999.0,  999.0,  999.0,  999.0,  999.0,  999.0,  999.0,  999.0,  999.0,  999.0,  999.0,  999.0,  999.0,  999.0,  999.0,  999.0,  999.0,  999.0,  999.0,  999.0,  999.0,  999.0,  999.0,  999.0,  999.0,  999.0,  999.0,  999.0,  999.0,  999.0,  999.0,  999.0,  999.0,  999.0,  999.0,  999.0,  999.0,  999.0,  999.0,  999.0,  999.0,  999.0,  999.0,  999.0,  999.0,  999.0,  999.0,  999.0,  999.0,  999.0,  999.0,  999.0,  999.0,  999.0,  999.0,  999.0,  999.0,  999.0,  999.0,  999.0,  999.0,  999.0,  999.0,  999.0,  999.0,  999.0,  999.0,  999.0,  999.0,  999.0,  999.0,  999.0,  999.0,  999.0,  999.0,  999.0,  999.0,  999.0,  999.0,  999.0
2006/11/17 01:40,   -7.9,   -8.2,   -8.0,   -8.4,   -8.9,   -9.4,   -9.6,  -10.1,   -9.1,   -7.5,   -6.7,   -7.3,   -8.0,   -9.2,  -10.0,   -9.5,   -7.6,   -7.5,   -7.2,   -6.0,   -6.6,   -8.1,   -8.3,   -6.9,   -6.4,   -6.4,   -7.6,   -7.7,   -9.3,   -9.5,   -8.4,   -7.9,   -8.7,   -8.3,   -9.2,   -9.8,   -8.9,   -8.1,   -5.4,   -3.8,   -2.9,   -3.3,   -3.2,   -2.9,   -3.0,   -2.9,   -2.9,   -1.9,   -1.9,   -1.3,   -1.6,   -1.6,   -1.9,   -4.0,   -5.9,   -7.8,   -9.9,  -11.6,  -11.3,  -11.5,  -11.1,  -10.2,  -10.3,  -10.0,   -9.1,   -8.6,   -8.8,   -8.8,   -9.1,   -9.4,  -10.6,  999.0,  999.0,  999.0,  -11.5,  -11.4,  -11.5,  -11.4,  -10.3,   -8.4,  999.0,   -4.8,   -4.2,   -2.4,   -0.2,  999.0,  999.0,  999.0,  999.0,  999.0,  999.0,  999.0,  999.0,  999.0,  999.0,  999.0,  999.0,  999.0,  999.0,  999.0,  999.0,  999.0,   -7.1,  999.0,  999.0,  999.0,  999.0,  999.0,  999.0,  999.0,  999.0,  999.0,  999.0,  999.0,  999.0,  999.0,  999.0,  999.0,  999.0,  999.0
2006/11/17 01:50,   -9.1,   -7.6,   -8.9,   -9.0,   -9.8,  -10.0,  -10.6,  -10.3,   -9.6,   -7.6,   -6.4,   -6.7,   -7.3,   -8.1,   -8.9,   -9.8,   -7.7,   -7.0,   -6.7,   -5.8,   -6.6,   -8.5,   -8.7,   -7.8,   -6.9,   -6.7,   -7.9,   -8.0,  -10.0,  -10.4,   -9.5,   -9.9,   -9.3,   -9.1,  -10.1,  -10.9,   -8.9,   -8.0,   -5.7,   -3.6,   -3.2,   -3.2,   -3.2,   -3.1,   -3.4,   -3.2,   -2.4,   -1.7,   -1.8,   -2.0,   -1.9,   -2.2,   -2.9,   -4.8,   -7.2,   -8.8,  -10.8,  -11.7,  -11.3,  -11.5,  -10.9,   -9.4,   -9.5,   -9.2,   -8.8,   -7.9,   -8.3,   -7.7,   -8.6,   -9.6,  999.0,  999.0,  999.0,  999.0,  -11.0,  -11.4,  999.0,  -12.5,  -10.2,   -8.3,  999.0,   -3.0,   -3.4,   -2.0,    0.7,  999.0,  999.0,  999.0,  999.0,  999.0,  999.0,  999.0,  999.0,  999.0,  999.0,  999.0,  999.0,  999.0,  999.0,  999.0,  999.0,   -5.3,   -6.9,   -8.9,  999.0,  999.0,  999.0,  999.0,   -7.9,  999.0,  999.0,  999.0,  999.0,  999.0,  999.0,  999.0,  999.0,  999.0,  999.0,  999.0
2006/11/17 02:00,   -8.3,   -7.6,   -9.0,   -9.3,   -9.9,  -10.3,  -10.6,  -10.8,   -9.0,   -8.1,   -7.3,   -7.9,   -7.3,   -6.9,   -7.7,   -9.0,   -8.9,   -7.2,   -6.7,   -6.2,   -6.0,   -7.4,   -8.4,   -8.1,   -7.3,   -6.6,   -7.5,   -7.7,   -9.3,  -10.3,   -9.2,   -9.4,   -8.9,   -9.1,   -9.3,   -9.6,   -7.9,   -6.6,   -4.6,   -2.4,   -2.4,   -2.4,   -2.5,   -3.1,   -3.4,   -2.8,   -2.3,   -1.6,   -1.9,   -2.1,   -2.1,   -2.1,   -4.3,   -6.1,   -8.0,   -9.7,  -11.1,  -10.7,  -11.3,  -11.2,  -10.7,   -9.0,   -8.7,   -8.9,   -2.9,   -3.8,   -0.1,   -4.7,   -4.3,   -1.2,  999.0,  999.0,   -0.5,  999.0,   -2.9,  999.0,  999.0,  999.0,  -10.5,   -8.6,   -7.7,   -4.9,   -3.3,   -2.2,    0.1,    3.3,  999.0,  999.0,    2.1,  999.0,  999.0,  999.0,  999.0,    2.9,  999.0,  999.0,  999.0,   -0.5,  999.0,  999.0,  999.0,   -5.3,   -7.2,  -10.1,  999.0,  999.0,  999.0,   -8.7,   -7.7,  999.0,  999.0,  999.0,  999.0,  999.0,  999.0,  999.0,  999.0,  999.0,  999.0,  999.0
2006/11/17 02:10,   -8.3,   -8.5,   -8.1,   -9.3,   -9.6,  -10.2,  -10.7,  -11.3,   -8.6,   -8.4,   -8.0,   -8.7,   -7.9,   -6.6,   -7.2,   -8.4,   -8.9,   -7.9,   -7.0,   -6.1,   -5.4,   -6.6,   -8.3,   -8.3,   -7.8,   -7.2,   -6.8,   -7.3,   -8.5,  -10.0,   -8.5,   -9.4,   -8.6,   -9.0,   -8.8,   -8.6,   -7.1,   -5.4,   -3.8,   -1.6,   -2.0,   -2.0,   -2.3,   -3.0,   -3.0,   -2.8,   -2.2,   -1.6,   -1.6,   -2.1,   -2.1,   -2.4,   -5.2,   -6.5,   -8.2,  -10.3,  -11.3,  -10.2,  -10.6,  -10.5,   -9.4,   -8.4,   -7.8,   -7.1,   -3.8,  999.0,  999.0,  999.0,   -0.8,   -0.1,   -4.2,  999.0,   -0.7,  999.0,   -4.2,  999.0,  999.0,  999.0,  -10.9,   -9.7,  999.0,   -4.6,   -3.0,   -1.8,   -0.9,  999.0,  999.0,  999.0,  999.0,  999.0,  999.0,  999.0,  999.0,  999.0,  999.0,  999.0,  999.0,   -0.6,  999.0,  999.0,  999.0,   -5.3,   -8.7,  -10.8,  999.0,  999.0,  999.0,  999.0,  999.0,   -1.5,  999.0,  999.0,  999.0,  999.0,  999.0,  999.0,  999.0,  999.0,  999.0,  999.0
2006/11/17 02:20,  999.0,  999.0,  999.0,  999.0,  999.0,  999.0,  999.0,  999.0,  999.0,  999.0,  999.0,  999.0,  999.0,  999.0,  999.0,  999.0,  999.0,  999.0,  999.0,  999.0,  999.0,  999.0,  999.0,  999.0,  999.0,  999.0,  999.0,  999.0,  999.0,  999.0,  999.0,  999.0,  999.0,  999.0,  999.0,  999.0,  999.0,  999.0,  999.0,  999.0,  999.0,  999.0,  999.0,  999.0,  999.0,  999.0,  999.0,  999.0,  999.0,  999.0,  999.0,  999.0,  999.0,  999.0,  999.0,  999.0,  999.0,  999.0,  999.0,  999.0,  999.0,  999.0,  999.0,  999.0,  999.0,  999.0,  999.0,  999.0,  999.0,  999.0,  999.0,  999.0,  999.0,  999.0,  999.0,  999.0,  999.0,  999.0,  999.0,  999.0,  999.0,  999.0,  999.0,  999.0,  999.0,  999.0,  999.0,  999.0,  999.0,  999.0,  999.0,  999.0,  999.0,  999.0,  999.0,  999.0,  999.0,  999.0,  999.0,  999.0,  999.0,  999.0,  999.0,  999.0,  999.0,  999.0,  999.0,  999.0,  999.0,  999.0,  999.0,  999.0,  999.0,  999.0,  999.0,  999.0,  999.0,  999.0,  999.0,  999.0
2006/11/17 02:30,   -7.1,   -7.1,   -7.4,   -8.2,   -8.6,   -9.3,   -9.4,   -9.6,   -9.6,   -8.8,   -9.3,   -8.6,   -6.1,   -5.8,   -6.9,   -7.7,   -8.2,   -9.7,   -9.9,   -8.8,   -7.5,   -7.3,   -7.5,   -7.6,   -6.7,   -6.4,   -7.2,   -7.5,   -8.9,  -10.6,  -11.1,  -10.9,  -10.4,   -9.7,   -8.8,   -9.5,   -8.4,   -7.8,   -7.2,   -5.1,   -3.6,   -3.6,   -3.6,   -3.3,   -3.4,   -3.4,   -2.9,   -3.1,   -3.3,   -2.3,   -2.1,   -3.5,   -4.7,   -6.1,   -7.6,   -8.8,   -8.8,   -8.6,   -8.1,   -8.4,   -8.6,   -7.6,   -7.6,   -4.2,   -3.2,   -4.0,   -3.4,   -6.6,  999.0,   -5.0,  -10.0,  999.0,   -9.8,  999.0,  999.0,  999.0,  999.0,  999.0,   -8.8,   -7.6,   -2.9,   -2.3,  999.0,   -0.8,  999.0,   -1.6,  999.0,  999.0,    3.0,  999.0,  999.0,  999.0,  999.0,  999.0,  999.0,  999.0,  999.0,  999.0,  999.0,  999.0,  999.0,   -6.3,   -9.8,  -10.9,  999.0,  999.0,  999.0,  999.0,  999.0,  999.0,  999.0,  999.0,  999.0,  999.0,  999.0,  999.0,  999.0,  999.0,  999.0,  999.0
2006/11/17 02:40,   -7.3,   -7.7,   -8.6,   -8.9,   -9.1,   -9.9,   -9.4,   -9.7,  -10.2,   -9.6,   -9.2,   -9.0,   -6.8,   -5.6,   -6.8,   -7.8,   -9.5,  -10.2,  -10.2,   -9.2,   -8.3,   -6.6,   -7.2,   -7.6,   -6.0,   -6.0,   -6.4,   -7.0,   -9.3,  -10.6,  -10.6,  -10.2,   -9.6,   -9.6,   -8.8,   -9.0,   -8.6,   -7.8,   -7.5,   -7.1,   -3.8,   -3.3,   -3.2,   -2.8,   -2.8,   -2.6,   -2.2,   -2.5,   -2.4,   -1.9,   -1.5,   -2.4,   -4.3,   -5.7,   -6.6,   -7.8,   -7.7,   -7.7,   -8.1,   -8.4,   -8.7,   -7.7,   -7.5,   -5.6,   -3.3,   -3.8,   -3.5,   -6.5,  999.0,  999.0,   -9.6,  -10.3,   -9.7,  999.0,  999.0,  999.0,  999.0,   -9.8,   -8.5,   -6.4,   -3.3,   -1.9,   -2.9,   -0.8,  999.0,  999.0,  999.0,  999.0,  999.0,  999.0,  999.0,  999.0,  999.0,  999.0,  999.0,  999.0,  999.0,   -0.6,  999.0,  999.0,  999.0,   -6.6,   -9.4,  -11.5,  999.0,  999.0,  999.0,   -7.1,   -7.1,  999.0,  999.0,  999.0,  999.0,  999.0,  999.0,  999.0,  999.0,  999.0,  999.0,  999.0
2006/11/17 02:50,   -7.8,   -7.7,   -8.9,   -9.5,  -10.2,  -11.0,   -9.8,  -10.1,  -10.5,   -9.6,   -8.8,   -8.5,   -6.4,   -5.7,   -6.6,   -7.6,   -9.7,  -10.3,  -10.0,   -7.9,   -6.8,   -6.6,   -7.8,   -7.9,   -6.6,   -6.6,   -5.9,   -6.8,   -8.5,   -9.3,   -9.5,   -9.0,   -8.3,   -8.8,   -8.1,   -8.3,   -7.8,   -7.0,   -7.1,   -7.3,   -3.6,   -3.4,   -2.9,   -2.5,   -2.4,   -2.0,   -1.4,   -1.6,   -1.4,   -1.4,   -1.4,   -2.3,   -3.8,   -5.0,   -6.1,   -7.0,   -7.0,   -7.2,   -7.7,   -7.9,   -7.9,   -7.6,   -7.0,   -3.3,   -2.6,   -0.4,   -0.9,   -0.1,   -3.9,  999.0,   -4.9,  999.0,   -4.2,  999.0,  999.0,  999.0,  999.0,  -10.7,   -9.0,   -7.0,   -3.5,   -2.0,  999.0,  999.0,  999.0,  999.0,  999.0,  999.0,  999.0,  999.0,  999.0,  999.0,  999.0,    3.3,  999.0,  999.0,  999.0,   -1.3,  999.0,  999.0,  999.0,   -5.9,   -8.6,  -10.5,  -10.5,   -7.7,  999.0,   -6.4,   -5.6,  999.0,    0.9,  999.0,  999.0,  999.0,  999.0,  999.0,  999.0,  999.0,  999.0,  999.0
2006/11/17 03:00,   -8.3,   -8.3,   -9.0,   -9.2,  -11.0,  -11.7,  -11.1,  -11.1,  -11.0,  -10.1,   -9.7,   -8.2,   -7.0,   -5.9,   -5.8,   -6.8,   -8.7,   -9.3,   -9.3,   -6.6,   -5.7,   -6.3,   -7.8,   -7.8,   -7.2,   -6.3,   -5.5,   -6.7,   -8.4,   -9.0,   -8.6,   -8.3,   -7.7,   -8.1,   -7.7,   -7.7,   -6.8,   -6.5,   -6.8,   -6.8,   -3.6,   -3.6,   -3.1,   -2.8,   -2.7,   -1.9,   -1.8,   -2.1,   -2.3,   -2.4,   -2.3,   -3.0,   -4.1,   -5.3,   -6.7,   -7.1,   -7.4,   -7.6,   -7.8,   -7.7,   -7.5,   -7.2,   -3.8,   -3.3,   -4.0,   -0.1,   -0.1,  999.0,   -5.1,  999.0,   -5.0,  999.0,  999.0,   -9.3,  999.0,  999.0,  999.0,  999.0,   -9.5,   -8.3,  999.0,   -2.7,  999.0,  999.0,  999.0,  999.0,  999.0,  999.0,  999.0,  999.0,  999.0,  999.0,    6.2,  999.0,  999.0,  999.0,  999.0,  999.0,    0.8,  999.0,   -3.8,   -5.5,   -7.3,   -9.6,  999.0,  999.0,  999.0,   -6.5,   -4.1,  999.0,  999.0,  999.0,  999.0,  999.0,  999.0,  999.0,  999.0,  999.0,  999.0,  999.0
2006/11/17 03:10,   -8.2,   -8.8,   -9.4,   -9.9,  -10.7,  -11.0,  -11.4,  -11.0,  -11.3,  -10.7,  -11.2,   -9.4,   -8.3,   -7.0,   -6.1,   -6.3,   -8.1,   -9.0,   -8.9,   -6.5,   -5.2,   -5.4,   -7.3,   -7.5,   -6.8,   -6.1,   -5.9,   -7.1,   -8.3,   -8.9,   -8.6,   -8.0,   -7.6,   -8.2,   -8.1,   -7.4,   -6.4,   -6.5,   -6.0,   -5.7,   -3.2,   -3.4,   -2.5,   -3.0,   -2.1,   -1.2,   -1.5,   -1.3,   -1.6,   -1.5,   -2.6,   -4.0,   -5.4,   -6.3,   -7.1,   -7.0,   -7.0,   -7.7,   -7.5,   -7.1,   -6.4,   -5.7,   -2.8,   -3.6,    0.1,    0.0,   -0.2,    0.0,   -2.3,    0.2,   -4.4,   -4.0,  999.0,  999.0,  999.0,   -4.5,  999.0,  999.0,   -8.6,   -8.3,  999.0,   -2.5,  999.0,  999.0,  999.0,  999.0,   -0.6,  999.0,  999.0,  999.0,  999.0,  999.0,  999.0,  999.0,  999.0,  999.0,  999.0,   -2.0,  999.0,  999.0,   -4.1,   -5.0,   -6.7,  999.0,   -8.2,  999.0,  999.0,   -5.8,   -2.9,  999.0,  999.0,  999.0,  999.0,  999.0,  999.0,  999.0,  999.0,  999.0,  999.0,  999.0
2006/11/17 03:20,   -8.9,   -9.1,  -10.1,  -10.0,  -10.3,  -10.6,   -9.9,  -10.5,  -10.7,  -10.2,  -10.0,   -8.6,   -8.2,   -7.4,   -6.3,   -5.6,   -7.5,   -8.5,   -8.4,   -6.5,   -5.4,   -5.6,   -7.3,   -7.5,   -6.5,   -6.1,   -5.5,   -6.1,   -7.6,   -9.2,   -8.8,   -7.9,   -7.2,   -7.7,   -7.3,   -6.8,   -5.7,   -6.0,   -5.9,   -5.5,   -4.0,   -3.6,   -2.8,   -2.1,   -1.4,   -0.8,   -1.5,   -1.2,   -1.1,   -1.5,   -3.4,   -4.9,   -5.7,   -6.2,   -6.9,   -7.1,   -7.0,   -7.5,   -7.2,   -6.9,   -6.3,   -6.2,   -1.7,   -4.2,    0.2,   -0.1,   -0.2,   -0.1,    0.1,   -0.2,   -2.8,   -3.8,   -4.7,   -4.9,  999.0,  999.0,  999.0,  999.0,  999.0,   -8.7,   -5.6,   -2.5,   -1.2,  999.0,  999.0,  999.0,  999.0,    2.9,  999.0,  999.0,  999.0,  999.0,  999.0,  999.0,    0.2,  999.0,   -0.8,  999.0,  999.0,  999.0,  999.0,   -5.3,   -6.9,   -8.8,  999.0,  999.0,  999.0,  999.0,  999.0,  999.0,  999.0,  999.0,    0.5,  999.0,  999.0,  999.0,  999.0,  999.0,  999.0,  999.0
2006/11/17 03:30,   -9.4,   -9.7,  -10.0,  -10.0,   -9.7,  -10.9,  -10.5,  -10.7,  -10.4,   -9.9,   -8.6,   -7.4,   -7.0,   -6.2,   -6.2,   -5.2,   -6.9,   -7.8,   -7.8,   -6.4,   -6.3,   -6.4,   -8.0,   -8.2,   -6.5,   -6.2,   -5.3,   -5.8,   -7.1,   -8.6,   -8.4,   -7.8,   -7.0,   -7.4,  999.0,   -6.7,   -5.8,   -5.9,   -6.1,   -5.7,   -4.3,   -3.2,   -2.6,   -1.7,   -1.3,   -1.2,   -1.3,   -1.2,   -0.9,   -1.6,   -4.0,   -5.4,   -5.8,   -6.0,   -6.5,   -7.1,   -7.1,   -6.9,   -6.6,   -6.4,   -6.4,   -6.6,  999.0,  999.0,    0.1,   -0.0,   -0.1,    0.0,    0.1,  999.0,   -2.9,  999.0,   -5.0,   -4.8,  999.0,  999.0,   -3.5,  -10.8,  999.0,   -9.1,   -6.9,   -2.9,   -1.6,  999.0,  999.0,  999.0,  999.0,  999.0,  999.0,  999.0,  999.0,  999.0,  999.0,  999.0,  999.0,    0.9,  999.0,  999.0,  999.0,  999.0,   -5.1,   -5.5,   -7.3,   -9.2,  999.0,  999.0,  999.0,  999.0,  999.0,  999.0,  999.0,  999.0,  999.0,  999.0,  999.0,  999.0,  999.0,  999.0,  999.0,  999.0
2006/11/17 03:40,  999.0,  999.0,  999.0,  999.0,  999.0,  999.0,  999.0,  999.0,  999.0,  999.0,  999.0,  999.0,  999.0,  999.0,  999.0,  999.0,  999.0,  999.0,  999.0,  999.0,  999.0,  999.0,  999.0,  999.0,  999.0,  999.0,  999.0,  999.0,  999.0,  999.0,  999.0,  999.0,  999.0,  999.0,  999.0,  999.0,  999.0,  999.0,  999.0,  999.0,  999.0,  999.0,  999.0,  999.0,  999.0,  999.0,  999.0,  999.0,  999.0,  999.0,  999.0,  999.0,  999.0,  999.0,  999.0,  999.0,  999.0,  999.0,  999.0,  999.0,  999.0,  999.0,  999.0,  999.0,  999.0,  999.0,  999.0,  999.0,  999.0,  999.0,  999.0,  999.0,  999.0,  999.0,  999.0,  999.0,  999.0,  999.0,  999.0,  999.0,  999.0,  999.0,  999.0,  999.0,  999.0,  999.0,  999.0,  999.0,  999.0,  999.0,  999.0,  999.0,  999.0,  999.0,  999.0,  999.0,  999.0,  999.0,  999.0,  999.0,  999.0,  999.0,  999.0,  999.0,  999.0,  999.0,  999.0,  999.0,  999.0,  999.0,  999.0,  999.0,  999.0,  999.0,  999.0,  999.0,  999.0,  999.0,  999.0,  999.0
2006/11/17 03:50,   -8.9,   -8.7,   -9.0,   -9.6,  -10.6,  -11.8,  -11.8,  -10.3,   -9.6,  -10.2,   -9.6,   -9.1,   -7.9,   -7.2,   -6.0,   -5.7,   -5.7,   -6.0,   -5.3,   -4.8,   -4.5,   -4.3,   -4.5,   -4.6,   -6.0,   -7.3,   -7.6,   -7.3,   -8.4,   -8.0,   -7.5,   -7.4,   -7.4,   -7.5,   -7.3,   -7.2,   -6.2,   -5.8,   -5.6,   -4.2,   -2.7,   -1.7,   -1.0,   -0.8,   -1.0,   -1.4,   -0.7,   -0.2,   -0.3,   -0.9,   -1.8,   -3.6,   -4.9,   -4.7,   -4.4,   -4.9,   -5.2,   -5.8,   -5.5,   -4.9,   -4.8,   -6.4,   -6.4,   -7.2,   -4.4,   -0.1,   -0.1,   -2.2,   -4.2,   -4.7,  999.0,  999.0,  999.0,  999.0,  999.0,   -8.6,   -9.1,   -9.9,   -9.1,   -7.7,   -3.8,   -3.6,  999.0,  999.0,  999.0,  999.0,  999.0,  999.0,  999.0,  999.0,  999.0,  999.0,  999.0,  999.0,  999.0,  999.0,  999.0,   -3.9,   -0.7,  999.0,   -4.7,   -6.5,  999.0,  999.0,  999.0,  999.0,  999.0,   -9.7,  999.0,  999.0,  999.0,  999.0,  999.0,  999.0,  999.0,  999.0,  999.0,  999.0,  999.0,  999.0
2006/11/17 04:00,   -9.1,   -9.4,   -9.4,  -10.1,  -11.9,  -12.7,  -11.7,  -10.3,  -10.3,  -10.3,  -10.0,   -9.1,   -8.0,   -7.2,   -6.2,   -6.2,   -5.8,   -5.7,   -5.6,   -4.9,   -4.7,   -4.7,   -4.2,  999.0,   -6.2,   -7.5,   -7.6,   -7.4,   -8.0,   -7.4,   -7.3,   -6.5,   -6.4,   -7.0,   -7.3,   -7.1,   -6.1,   -5.6,   -5.3,   -4.5,   -2.6,   -1.1,   -1.1,   -1.1,   -1.3,   -1.8,   -1.3,   -0.5,   -0.4,   -0.8,   -1.2,   -2.9,   -4.1,   -4.8,   -4.8,   -5.2,   -5.3,   -5.7,   -5.5,   -5.4,   -4.9,   -6.1,   -6.8,   -6.9,  999.0,    0.1,    0.1,   -0.0,   -0.1,   -0.2,  999.0,  999.0,   -4.7,   -5.2,   -9.0,   -9.6,  999.0,   -9.6,   -8.3,   -6.8,  999.0,   -0.2,  999.0,  999.0,  999.0,  999.0,  999.0,  999.0,  999.0,    7.2,  999.0,  999.0,  999.0,  999.0,  999.0,  999.0,   -0.7,   -1.9,   -1.6,  999.0,   -4.9,   -6.4,   -7.7,  999.0,  999.0,  999.0,  999.0,  -10.3,  999.0,  999.0,  999.0,  999.0,  999.0,  999.0,  999.0,  999.0,  999.0,  999.0,  999.0,  999.0
2006/11/17 04:10,   -8.8,   -9.2,  -10.4,  -11.3,  -11.6,  -11.7,  -11.1,   -9.9,   -9.3,   -9.5,   -9.9,   -9.6,   -8.2,   -6.8,   -6.5,   -6.5,   -5.7,   -5.3,   -5.5,   -5.3,   -5.6,   -5.8,   -6.1,   -6.2,   -6.6,   -7.5,   -6.7,   -7.1,   -6.2,   -5.9,   -4.9,   -5.3,   -4.9,   -5.5,   -6.7,   -6.2,   -5.0,   -4.5,   -4.5,   -4.8,   -3.2,   -2.5,   -2.2,   -1.3,   -1.5,   -2.1,   -1.9,   -1.0,   -0.9,   -0.3,   -1.5,   -2.5,   -4.0,   -4.3,   -5.2,   -5.5,   -5.0,   -5.5,   -5.8,   -4.9,   -4.7,   -5.7,   -6.3,   -3.4,   -1.3,   -0.3,   -0.3,   -1.3,   -0.1,   -1.2,  999.0,  999.0,   -5.8,   -6.6,   -9.1,  999.0,  999.0,   -8.9,   -8.3,   -5.8,  999.0,   -0.1,  999.0,  999.0,  999.0,  999.0,  999.0,  999.0,  999.0,    7.4,  999.0,  999.0,  999.0,  999.0,  999.0,  999.0,   -0.6,  999.0,  999.0,  999.0,   -7.8,   -6.5,   -8.0,  999.0,  999.0,   -5.6,  999.0,  -10.4,  999.0,  999.0,  999.0,  999.0,  999.0,   -0.5,  999.0,  999.0,  999.0,  999.0,  999.0,  999.0
2006/11/17 04:20,   -8.6,   -9.1,  -10.5,  -10.4,  -11.1,  -11.3,  -10.4,   -9.1,   -8.8,   -9.5,   -9.8,  -10.6,   -9.3,   -6.8,   -5.9,   -6.6,   -5.8,   -5.0,   -5.6,   -5.5,   -5.6,   -5.7,   -6.4,   -5.7,   -6.3,   -6.3,   -6.1,   -5.3,   -3.2,   -4.7,   -4.8,   -5.2,   -4.8,   -3.6,   -4.0,   -3.8,   -3.5,   -2.2,   -2.2,   -2.2,   -1.7,   -1.1,   -0.9,   -0.6,   -1.1,   -1.4,   -2.2,   -1.1,   -0.7,   -1.3,   -2.6,   -4.2,   -4.6,   -4.7,   -5.5,   -6.1,   -5.2,   -5.4,   -5.4,   -3.5,   -5.0,   -6.1,   -4.9,   -3.3,   -2.6,   -1.8,   -3.5,   -3.6,   -9.4,   -3.5,  999.0,  999.0,  999.0,   -8.9,   -9.2,  999.0,  999.0,  999.0,  999.0,   -6.5,   -4.9,  999.0,  999.0,  999.0,  999.0,  999.0,  999.0,  999.0,  999.0,  999.0,  999.0,  999.0,  999.0,  999.0,  999.0,  999.0,   -1.3,   -2.5,  999.0,  999.0,  999.0,   -7.4,   -9.5,   -9.5,  999.0,  999.0,   -9.5,   -9.9,   -3.2,  999.0,  999.0,  999.0,  999.0,  999.0,  999.0,  999.0,  999.0,  999.0,  999.0,  999.0
2006/11/17 04:30,   -8.5,   -9.0,   -9.1,  -10.0,  -11.2,  -11.6,  -10.3,   -9.2,   -8.8,   -9.1,   -9.6,   -9.6,   -9.4,   -6.5,   -5.2,   -6.0,   -5.6,   -4.6,   -4.1,   -5.1,   -5.1,   -5.4,   -5.8,   -6.1,   -6.3,   -6.5,   -6.0,   -6.2,   -5.1,   -5.5,   -5.3,   -5.1,   -5.2,   -5.1,   -5.1,   -5.5,   -4.6,   -3.7,   -3.9,   -3.3,   -3.1,   -2.6,   -1.7,   -1.5,   -1.0,   -2.0,   -2.2,   -1.8,   -1.4,   -1.7,   -2.4,   -4.3,   -4.7,   -4.7,   -5.3,   -5.0,   -4.3,   -4.7,   -4.8,   -4.0,   -4.8,   -5.4,   -5.3,   -3.9,   -4.0,   -4.1,   -5.0,   -7.1,   -4.4,   -4.1,   -4.0,   -6.9,   -6.8,   -8.3,   -8.7,  999.0,  999.0,  999.0,  999.0,   -6.0,   -3.5,   -2.8,   -0.0,    0.7,  999.0,  999.0,  999.0,    3.6,    1.9,  999.0,  999.0,  999.0,    2.6,  999.0,    3.7,    1.0,   -1.6,   -1.9,   -0.9,  999.0,   -8.3,   -9.7,  -11.0,   -9.2,  999.0,  999.0,   -9.3,   -8.1,   -3.6,  999.0,  999.0,  999.0,  999.0,  999.0,  999.0,  999.0,  999.0,  999.0,  999.0,  999.0
2006/11/17 04:40,   -5.5,   -7.9,   -9.4,  -10.5,  -11.1,  -11.1,  -10.5,   -9.6,   -9.3,   -9.9,  -10.8,  -10.3,  -10.2,   -9.0,   -6.7,   -5.7,   -5.4,   -4.1,   -3.6,   -4.5,   -4.7,   -4.9,   -5.1,   -5.3,   -5.5,   -5.6,   -5.1,   -5.5,   -4.7,   -4.4,   -4.5,   -4.3,   -3.7,   -4.4,   -4.4,   -5.1,   -4.1,   -3.9,   -4.2,   -3.6,   -3.3,   -3.2,   -2.7,   -2.3,   -1.5,   -2.3,   -2.0,   -1.5,   -1.9,   -2.0,   -2.4,   -3.5,   -4.3,   -4.4,   -4.3,   -4.7,   -4.6,   -5.1,   -4.8,   -4.7,   -5.6,   -5.8,   -5.4,   -4.0,   -2.6,    1.1,   -4.9,   -5.1,   -2.7,   -2.2,   -4.3,   -6.8,   -7.8,   -7.7,  999.0,   -8.3,  999.0,  999.0,   -7.9,   -6.2,   -3.4,   -1.4,    0.2,  999.0,  999.0,  999.0,  999.0,  999.0,  999.0,  999.0,    7.4,  999.0,  999.0,    1.1,  999.0,    1.3,   -2.1,  999.0,  999.0,  999.0,  999.0,   -9.6,  -11.0,  999.0,  -10.2,  999.0,   -8.7,   -9.5,   -6.5,  999.0,  999.0,  999.0,  999.0,  999.0,  999.0,  999.0,  999.0,  999.0,  999.0,  999.0
2006/11/17 04:50,   -7.1,   -9.5,  -10.2,  -11.5,  -11.6,  -11.8,  -11.2,   -9.9,   -9.2,   -9.9,  -11.0,  -11.4,  -11.0,  -10.8,   -9.5,   -6.4,   -5.9,   -4.3,   -4.7,   -5.3,   -5.7,   -5.8,   -5.9,   -6.2,   -6.1,   -5.2,  999.0,   -4.5,   -3.9,   -3.5,   -4.1,   -4.2,   -3.2,   -3.4,   -3.5,   -4.1,   -3.6,   -3.7,   -3.7,   -3.6,   -3.2,   -3.2,   -2.5,   -1.8,   -1.1,   -0.8,   -0.3,   -0.0,   -0.6,   -2.1,   -3.1,   -4.2,   -4.7,   -4.6,   -4.5,   -5.2,   -5.7,   -6.2,   -5.7,   -5.4,   -5.6,   -6.0,   -6.3,   -4.8,   -3.3,   -1.1,   -0.4,   -1.4,   -1.7,   -1.4,   -6.7,   -7.8,   -9.0,   -9.3,   -9.0,  999.0,   -9.8,  999.0,   -8.2,   -7.4,   -4.3,   -2.3,  999.0,  999.0,  999.0,  999.0,    1.9,    2.5,  999.0,  999.0,  999.0,  999.0,  999.0,  999.0,  999.0,  999.0,  999.0,   -6.1,  999.0,  999.0,  999.0,   -9.5,  -10.4,   -9.1,   -9.3,  999.0,  -10.0,  -10.1,   -3.7,  999.0,  999.0,  999.0,  999.0,  999.0,  999.0,  999.0,  999.0,  999.0,  999.0,  999.0
2006/11/17 05:00,   -8.3,   -9.2,   -9.4,  -10.0,  -10.3,  -10.7,  -10.7,   -9.1,   -8.3,   -8.9,  -10.5,  -10.6,  -10.6,  -10.4,   -9.6,   -6.6,   -5.7,   -5.2,   -4.6,   -5.4,   -5.8,   -6.0,   -6.1,   -6.4,   -6.1,   -5.6,   -5.3,   -4.2,   -3.9,   -4.2,   -3.7,   -3.2,   -1.9,   -2.2,   -2.9,   -2.6,   -3.2,   -3.3,   -3.6,   -3.5,   -2.7,   -2.6,   -1.3,   -0.9,   -1.0,   -1.4,   -1.1,   -0.8,   -2.0,   -3.2,   -4.5,   -5.3,   -5.7,   -5.3,   -5.4,   -6.6,   -6.5,   -5.5,   -4.6,   -4.5,   -5.2,   -5.4,   -5.4,   -3.5,   -2.0,   -0.3,   -0.1,   -3.1,   -2.5,   -3.2,   -8.7,  999.0,  999.0,   -8.3,   -9.2,   -9.5,   -9.9,  999.0,   -8.7,   -7.5,   -5.4,   -3.4,   -0.7,  999.0,  999.0,  999.0,    1.4,  999.0,  999.0,  999.0,  999.0,  999.0,  999.0,    1.0,  999.0,  999.0,   -3.4,   -6.4,  999.0,  999.0,  999.0,   -9.0,  -10.7,   -9.3,  999.0,  999.0,  999.0,   -8.9,   -7.2,   -3.4,  999.0,  999.0,  999.0,  999.0,  999.0,  999.0,  999.0,  999.0,  999.0,  999.0
2006/11/17 05:10,   -8.6,   -8.7,   -8.7,   -9.3,   -9.6,   -9.6,   -9.4,   -8.7,   -7.2,   -7.9,   -8.8,   -8.7,   -8.2,   -8.5,   -8.2,   -6.1,   -6.1,   -6.7,   -5.5,   -5.9,   -6.8,   -6.8,   -6.4,   -7.0,   -6.9,   -6.4,   -5.9,   -4.2,   -4.8,   -5.5,   -5.2,   -3.6,   -2.7,   -1.9,   -2.6,   -3.3,   -3.2,   -3.3,   -3.9,   -3.6,   -2.1,   -1.5,   -0.1,    0.4,    0.0,   -0.7,    0.2,   -0.5,   -1.1,   -2.7,   -4.5,   -4.7,   -5.3,   -4.7,   -5.0,   -5.6,   -5.9,   -5.2,   -4.1,   -4.1,   -4.7,   -4.8,   -4.7,   -2.9,   -1.4,   -0.6,   -1.9,   -5.6,   -5.7,   -7.5,   -9.6,   -8.0,  999.0,   -8.8,   -9.3,  999.0,  999.0,  999.0,  999.0,   -7.3,   -5.9,   -3.7,  999.0,  999.0,  999.0,  999.0,  999.0,  999.0,  999.0,  999.0,  999.0,  999.0,  999.0,  999.0,  999.0,  999.0,   -3.3,   -3.9,  999.0,  999.0,  999.0,  999.0,  -11.0,   -8.9,  999.0,   -6.7,  999.0,   -8.0,   -7.5,  999.0,  999.0,  999.0,  999.0,  999.0,  999.0,  999.0,  999.0,  999.0,  999.0,  999.0
2006/11/17 05:20,   -9.6,   -9.5,   -9.5,   -9.7,  -10.0,   -9.9,   -9.4,   -8.6,   -7.7,   -7.1,   -7.4,   -7.2,   -6.7,   -7.0,   -7.1,   -5.7,   -5.5,   -6.4,   -5.8,   -6.0,   -6.7,   -7.1,   -6.9,   -6.8,   -6.7,   -6.3,   -5.4,   -5.3,   -5.4,   -6.2,   -5.9,   -4.3,   -3.3,   -2.1,   -2.2,   -3.3,   -2.7,   -1.9,   -2.7,   -2.1,   -1.6,   -0.9,   -0.0,    0.3,   -0.7,   -0.9,   -0.5,   -0.7,   -0.6,   -2.7,   -3.8,   -5.0,   -4.3,   -4.1,   -5.0,   -5.7,   -5.5,   -5.3,   -4.3,   -3.9,   -4.0,   -4.5,   -3.9,   -1.8,   -2.2,   -0.9,   -0.2,   -5.2,   -7.2,   -8.2,  -10.0,  -10.0,  999.0,   -8.5,  999.0,  999.0,  999.0,  999.0,  999.0,   -6.9,   -4.3,   -1.8,   -0.5,  999.0,  999.0,  999.0,  999.0,  999.0,  999.0,  999.0,  999.0,  999.0,  999.0,   -1.7,  999.0,  999.0,   -3.1,   -5.7,  999.0,  999.0,  999.0,  999.0,   -9.7,   -8.6,  999.0,   -6.8,  999.0,   -7.3,   -8.2,  999.0,  999.0,  999.0,  999.0,  999.0,  999.0,  999.0,  999.0,  999.0,  999.0,  999.0
2006/11/17 05:30,   -9.9,   -9.7,  -10.1,  -10.3,  -10.9,  -10.6,  -10.5,   -9.3,   -8.6,   -7.6,   -7.3,   -7.7,   -6.3,   -6.8,   -6.9,   -5.9,   -5.3,   -5.9,   -6.0,   -6.0,   -5.8,   -6.4,   -6.6,   -5.7,   -4.9,   -4.4,   -4.3,   -6.0,   -7.1,   -7.1,   -6.3,   -5.2,   -4.7,   -2.6,   -2.8,   -3.6,   -2.4,   -0.7,   -1.9,   -1.9,   -1.9,   -1.6,   -0.8,   -0.5,   -0.9,   -1.1,   -1.0,   -0.4,   -0.5,   -1.2,   -1.7,   -3.3,   -3.4,   -3.6,   -4.4,   -5.2,   -5.2,   -4.7,   -4.4,   -3.0,   -3.0,   -3.8,   -2.3,   -1.9,   -1.6,   -0.6,   -1.3,   -5.0,   -7.2,   -5.6,  -10.3,   -8.8,   -5.8,   -6.8,   -0.2,    0.1,   -1.5,  999.0,  999.0,   -5.0,  999.0,   -0.4,   -0.1,  999.0,  999.0,  999.0,    2.1,  999.0,    3.2,  999.0,  999.0,  999.0,  999.0,  999.0,  999.0,   -0.0,  999.0,  999.0,  999.0,  999.0,  999.0,  999.0,   -8.0,  999.0,  999.0,  999.0,   -6.6,   -8.5,   -8.9,   -3.6,  999.0,    2.3,  999.0,  999.0,  999.0,  999.0,  999.0,  999.0,  999.0,  999.0
2006/11/17 05:40,   -9.7,   -9.8,  -10.3,  -10.7,  -10.7,  -11.0,  -11.0,  -10.1,   -9.2,   -8.9,   -9.1,   -9.1,   -8.0,   -6.9,   -7.0,   -6.2,   -4.9,   -5.3,   -6.0,   -6.2,   -5.8,   -6.1,   -6.1,   -5.6,   -4.3,   -3.3,   -4.8,   -6.3,   -7.3,   -7.2,   -6.0,   -5.4,   -5.5,   -3.1,   -4.2,   -4.4,   -1.8,   -0.8,   -1.9,   -1.8,   -1.8,   -1.1,   -1.0,   -0.6,   -0.7,   -1.3,   -1.0,   -0.4,   -0.5,   -1.0,   -2.0,   -3.2,   -3.8,   -4.2,   -4.6,   -5.1,   -5.1,   -5.5,   -5.5,   -3.8,   -4.1,   -4.1,   -1.5,   -1.1,   -2.0,   -1.3,   -1.9,   -3.8,    0.0,   -0.1,   -8.3,   -9.9,   -5.6,   -3.9,   -0.1,   -0.1,    0.0,  999.0,   -3.8,   -4.9,   -5.1,   -0.8,   -0.2,  999.0,  999.0,  999.0,    2.2,    0.2,  999.0,  999.0,  999.0,  999.0,  999.0,  999.0,  999.0,  999.0,   -3.7,   -7.1,  999.0,  999.0,  999.0,  999.0,   -7.7,  999.0,  999.0,  999.0,   -7.1,   -9.5,  999.0,  999.0,  999.0,  999.0,  999.0,  999.0,  999.0,  999.0,  999.0,  999.0,  999.0,  999.0
2006/11/17 05:50,   -9.8,  -10.4,  -10.7,  -10.9,  -11.0,  -11.0,  -11.4,  -10.8,   -9.2,   -9.2,   -9.9,   -9.4,   -8.2,   -6.9,   -6.6,   -6.4,   -5.7,   -6.2,   -6.4,   -6.7,   -6.3,   -5.9,   -5.5,   -5.5,   -3.8,   -2.7,   -4.6,   -5.9,   -6.4,   -6.5,   -6.1,   -6.1,   -6.3,   -4.0,   -4.9,   -4.4,   -1.8,   -1.6,   -2.4,   -3.4,   -2.0,   -0.4,   -0.3,   -0.5,   -0.4,   -0.9,   -1.0,   -0.4,   -0.4,   -1.2,   -2.5,   -4.6,   -4.9,   -5.5,   -5.6,   -6.1,  999.0,   -6.7,   -6.4,   -4.2,   -5.0,   -4.9,   -0.3,   -1.7,   -2.8,   -1.0,   -1.2,  999.0,   -0.8,    0.0,   -0.0,    0.2,   -0.1,    0.0,   -0.1,   -0.5,  999.0,  999.0,  999.0,   -2.5,   -2.3,   -0.9,   -0.6,  999.0,  999.0,    2.0,    1.2,  999.0,  999.0,  999.0,  999.0,  999.0,  999.0,  999.0,  999.0,  999.0,   -3.7,   -6.9,  999.0,  999.0,  999.0,  999.0,  999.0,  999.0,  999.0,  999.0,  999.0,   -8.7,  999.0,  999.0,  999.0,  999.0,  999.0,  999.0,  999.0,  999.0,  999.0,  999.0,  999.0,  999.0
2006/11/17 06:00,  -10.8,  -11.3,  -10.8,  -11.4,  -11.6,  -11.9,  -11.8,  -11.0,  -10.8,  -10.5,  -10.6,   -9.2,   -8.5,   -6.9,   -7.4,   -7.0,   -6.5,   -6.3,   -6.6,   -7.0,   -6.8,   -6.4,   -5.2,   -4.9,   -3.4,   -1.9,   -3.4,   -4.9,   -6.2,   -6.0,   -5.7,   -6.0,   -5.3,   -4.9,   -5.0,   -4.3,   -2.8,   -1.2,   -2.7,   -3.1,   -1.2,   -0.2,   -0.2,    0.0,   -0.2,   -1.0,   -1.4,   -0.9,   -0.8,   -1.9,   -3.6,   -5.2,   -5.5,   -6.1,   -6.5,   -6.6,   -5.2,   -7.2,   -6.7,   -4.1,   -3.4,   -3.6,   -1.2,   -1.4,   -0.5,   -0.2,   -0.5,   -1.6,   -1.9,   -0.4,   -0.4,    0.4,   -0.0,    0.1,   -0.1,    0.3,   -0.1,  999.0,   -4.3,  999.0,   -4.9,   -2.3,   -0.5,  999.0,  999.0,    0.8,    0.7,    1.5,  999.0,  999.0,  999.0,  999.0,  999.0,  999.0,  999.0,  999.0,  999.0,   -6.4,  999.0,  999.0,  999.0,  999.0,  999.0,  999.0,   -7.7,  999.0,   -6.2,   -7.1,   -6.8,  999.0,  999.0,  999.0,   -2.0,  999.0,  999.0,  999.0,  999.0,  999.0,  999.0,  999.0
2006/11/17 06:10,  -10.0,  -11.5,  -11.4,  -11.6,  -11.7,  -12.3,  -12.2,  -11.2,  -11.5,  -11.1,  -10.7,   -9.0,   -8.2,   -6.7,   -6.2,   -5.7,   -5.6,   -6.8,   -7.6,   -8.6,   -8.9,   -8.3,   -6.2,   -5.9,   -4.7,   -2.4,   -3.4,   -4.7,   -6.4,   -6.2,   -5.7,   -6.3,   -5.4,   -5.3,   -5.4,   -5.1,   -3.2,   -1.1,   -2.6,   -2.5,   -0.6,    0.5,    0.2,   -0.3,   -0.8,   -0.7,   -0.9,   -1.0,   -1.0,   -1.8,   -3.0,   -4.7,   -5.0,   -5.3,   -5.6,   -5.7,   -4.9,   -6.1,   -5.6,   -2.4,   -2.7,   -4.1,   -1.3,   -0.4,   -0.0,   -0.1,   -0.1,   -0.3,   -0.2,   -0.7,   -4.2,   -1.3,    0.0,   -0.0,   -0.1,    0.2,    0.1,  999.0,   -2.8,  999.0,   -4.3,   -1.7,   -0.0,  999.0,  999.0,    0.8,  999.0,  999.0,  999.0,  999.0,  999.0,  999.0,  999.0,   -1.2,    0.8,  999.0,   -2.3,   -5.8,  999.0,  999.0,   -6.8,   -6.4,   -9.0,  999.0,   -9.8,   -8.6,   -6.3,   -7.1,   -7.5,  999.0,  999.0,  999.0,  999.0,  999.0,  999.0,  999.0,  999.0,  999.0,  999.0,  999.0
2006/11/17 06:20,  -11.2,  -11.7,  -11.2,  -11.3,  -11.3,  -12.0,  -11.6,  -11.0,  -11.1,  -11.0,   -9.9,   -9.0,   -7.8,   -6.3,   -5.8,   -5.2,   -5.5,   -6.6,   -8.5,   -8.9,   -9.3,  999.0,   -6.7,   -5.4,   -4.0,   -2.6,   -2.7,   -4.0,   -5.8,   -5.9,   -5.4,   -6.0,   -5.4,   -5.5,   -5.4,   -4.5,   -2.5,   -0.9,   -2.6,   -2.7,    0.0,    1.0,    0.2,   -0.9,   -1.4,   -0.8,   -1.0,   -1.3,   -1.6,   -2.5,   -3.6,   -4.4,   -4.8,   -5.2,   -5.2,   -5.2,   -5.6,   -6.1,   -5.8,   -3.4,   -3.5,   -4.5,   -1.5,   -0.9,    0.2,   -0.0,   -0.2,   -0.4,   -0.3,   -0.2,   -0.6,  999.0,   -0.1,    0.0,    0.1,   -0.3,   -0.0,  999.0,   -2.8,   -2.4,   -3.7,   -1.2,    0.2,  999.0,  999.0,  999.0,  999.0,    0.2,  999.0,  999.0,  999.0,  999.0,  999.0,  999.0,  999.0,  999.0,  999.0,  999.0,  999.0,  999.0,  999.0,  999.0,   -8.9,  -10.4,   -9.7,   -8.5,   -5.7,   -7.1,  999.0,  999.0,  999.0,    1.9,  999.0,  999.0,  999.0,  999.0,  999.0,  999.0,  999.0,  999.0
2006/11/17 06:30,  -12.4,  -12.1,  -11.0,  -11.4,  -11.0,  -11.1,  -10.6,  -11.0,  -10.7,  -10.3,   -9.6,   -8.4,   -7.9,   -6.6,   -4.9,   -4.4,   -4.3,   -4.8,   -7.3,   -8.6,   -9.2,   -9.0,   -7.7,   -5.9,   -3.4,   -2.3,   -2.0,   -3.1,   -4.4,   -4.8,   -5.2,   -5.3,   -5.2,   -5.1,   -5.2,   -4.7,   -2.8,   -1.1,   -1.8,   -2.1,    0.0,    0.5,   -0.5,   -1.9,   -1.6,   -0.9,   -1.4,   -1.3,   -1.9,   -2.8,   -3.8,   -4.2,   -4.9,   -5.3,   -6.0,   -5.2,   -6.0,   -7.1,   -6.3,   -3.1,   -3.6,   -5.0,   -1.0,   -0.7,   -0.1,   -0.0,   -0.2,   -0.3,   -0.0,   -0.0,   -0.1,   -0.2,    0.1,   -0.2,   -0.2,    0.1,    0.0,   -0.3,   -2.4,   -2.4,   -3.1,   -1.1,    0.3,  999.0,    0.8,    0.3,   -0.1,    0.2,  999.0,  999.0,  999.0,  999.0,  999.0,   -8.3,    0.8,  999.0,   -1.7,  999.0,  999.0,  999.0,  999.0,   -7.1,   -8.9,  999.0,  -10.4,  999.0,   -5.8,   -7.3,  999.0,  999.0,  999.0,    2.8,  999.0,  999.0,  999.0,  999.0,  999.0,  999.0,  999.0,  999.0
2006/11/17 06:40,  -12.1,  -11.7,  -11.1,  -10.9,  -10.8,  -10.5,  -10.9,  -10.8,  -10.8,  -10.6,   -9.8,   -8.6,   -7.3,   -6.1,   -4.5,   -3.9,   -3.4,   -3.7,   -7.0,   -7.7,   -9.3,   -8.7,   -6.4,   -4.6,   -2.2,   -1.3,   -1.7,   -2.9,   -4.1,   -4.7,   -5.2,   -5.1,   -5.1,   -5.3,   -5.4,   -5.4,   -4.0,   -2.5,   -1.0,   -1.1,   -0.2,   -0.4,   -1.4,   -3.0,   -2.2,   -1.3,   -1.8,   -2.0,   -2.4,   -3.0,   -4.1,   -5.1,   -5.7,   -6.4,   -6.6,   -6.3,   -7.2,   -7.7,   -5.9,   -4.0,   -4.4,   -5.7,   -0.1,   -0.1,   -0.1,   -0.0,    0.0,   -0.2,   -0.1,   -0.1,    0.0,    0.0,    0.1,    0.1,   -0.3,   -0.0,   -0.0,  999.0,   -3.5,   -3.4,   -2.6,   -0.7,   -0.1,  999.0,    0.5,  999.0,  999.0,  999.0,  999.0,  999.0,  999.0,  999.0,  999.0,  999.0,    0.6,  999.0,  999.0,  999.0,  999.0,  999.0,  999.0,   -7.7,   -8.7,  999.0,  -11.1,  999.0,   -4.6,   -7.1,  999.0,  999.0,  999.0,    3.0,  999.0,  999.0,  999.0,  999.0,  999.0,  999.0,  999.0,  999.0
2006/11/17 06:50,  -12.6,  -12.3,  -11.2,  -11.0,  -11.1,  -10.4,  -10.6,  -10.4,  -10.0,   -9.8,   -9.8,   -8.8,   -7.2,   -5.9,   -4.8,   -3.9,   -3.6,   -4.2,   -6.7,   -7.3,   -8.6,  999.0,   -6.3,   -4.8,   -2.3,   -1.7,   -2.9,   -3.9,   -4.7,   -5.0,   -5.3,   -5.4,   -5.2,   -5.3,   -5.2,   -5.2,   -4.6,   -3.4,   -1.4,   -1.2,   -0.8,   -1.6,   -2.0,   -3.2,   -3.2,   -1.8,   -1.7,   -2.0,   -2.1,   -2.8,   -3.5,   -4.3,   -5.1,   -5.6,   -6.0,   -7.1,   -7.6,   -6.8,   -5.6,   -4.1,   -5.3,   -5.9,  999.0,   -1.1,    0.2,   -0.0,   -0.0,   -0.5,   -0.2,   -0.1,   -0.1,  999.0,   -0.1,   -2.3,   -2.7,   -3.9,    0.0,  999.0,   -3.7,  999.0,   -3.2,   -0.2,    0.3,    1.2,  999.0,  999.0,  999.0,  999.0,  999.0,  999.0,  999.0,  999.0,  999.0,  999.0,    0.0,  999.0,   -1.3,   -4.2,  999.0,  999.0,  999.0,   -7.5,   -8.2,   -9.6,  999.0,  999.0,   -5.3,   -7.0,   -7.5,  999.0,  999.0,    2.4,  999.0,  999.0,  999.0,  999.0,  999.0,  999.0,  999.0,  999.0
2006/11/17 07:00,  -12.1,  -11.6,  -10.9,  -10.9,  -10.7,  -10.9,  -11.1,  -10.8,  -10.2,  -10.1,  -10.2,   -9.2,   -7.4,   -5.6,   -4.6,   -4.4,   -4.5,   -5.3,   -6.7,   -7.6,   -8.4,   -8.6,   -7.1,   -6.3,   -4.3,   -3.4,   -3.9,   -5.0,   -5.1,   -6.0,   -5.8,   -5.6,   -5.5,   -5.8,   -5.2,   -5.2,   -4.2,   -3.2,   -2.2,   -1.1,   -1.3,   -2.1,   -3.2,   -4.6,   -4.4,   -3.1,   -2.6,   -2.4,   -2.6,   -3.0,   -3.4,   -4.3,   -5.0,   -5.4,   -5.4,   -6.6,   -6.9,   -6.2,   -5.5,   -3.0,   -5.1,   -4.6,   -0.7,   -0.4,   -0.5,   -0.3,   -0.2,   -0.6,   -0.2,   -0.1,    0.2,    0.8,    0.2,  999.0,   -0.6,   -3.8,   -0.1,   -3.5,   -3.6,  999.0,   -2.6,    0.1,    0.5,    0.8,    1.5,  999.0,  999.0,  999.0,  999.0,  999.0,  999.0,  999.0,  999.0,  999.0,    1.1,  999.0,   -1.9,   -4.8,  999.0,  999.0,  999.0,  999.0,   -7.9,   -9.1,   -9.5,   -8.4,   -5.2,   -7.2,  999.0,  999.0,  999.0,  999.0,  999.0,  999.0,  999.0,  999.0,  999.0,  999.0,  999.0,  999.0
2006/11/17 07:10,  -11.7,  -11.1,  -11.2,  -11.7,  -11.2,  -11.5,  -11.6,  -11.4,  -10.3,  -10.5,  -10.1,   -8.9,   -8.1,   -5.4,   -4.7,   -4.6,   -4.8,   -5.9,   -6.9,   -8.6,   -9.4,  -10.0,   -7.8,   -7.5,   -6.5,   -3.9,   -4.1,   -4.7,  999.0,   -5.3,   -5.0,   -5.4,   -5.3,   -4.6,   -3.8,   -4.1,   -2.8,   -2.3,   -2.0,   -0.5,   -1.2,   -2.1,   -3.6,   -4.8,   -4.0,   -2.2,   -2.5,   -2.2,   -2.3,   -2.1,   -2.6,   -3.7,   -4.5,   -4.5,   -4.5,   -5.2,   -5.6,   -5.4,   -4.2,   -0.8,   -2.2,   -1.5,   -0.7,   -0.4,   -0.6,   -0.4,   -0.3,   -0.6,   -0.1,   -0.3,    0.4,  999.0,  999.0,  999.0,    0.4,  999.0,   -3.3,  999.0,   -3.1,   -5.8,   -2.0,    0.2,    0.6,    0.2,  999.0,  999.0,  999.0,  999.0,  999.0,  999.0,  999.0,  999.0,  999.0,  999.0,  999.0,  999.0,   -2.1,   -5.1,  999.0,  999.0,  999.0,   -7.0,   -9.2,   -9.9,  999.0,  999.0,  999.0,   -6.2,  999.0,  999.0,  999.0,  999.0,  999.0,  999.0,  999.0,  999.0,  999.0,  999.0,  999.0,  999.0
2006/11/17 07:20,  -11.5,  -11.1,  -11.6,  -12.6,  -12.3,  -12.6,  -11.8,  -11.6,  -10.9,  -11.0,  -11.0,   -9.0,   -8.4,   -7.0,   -4.7,   -4.9,   -5.3,   -6.1,   -6.4,   -8.9,   -9.6,   -9.0,   -7.5,   -6.7,   -6.6,   -5.5,   -5.3,   -4.7,   -4.6,   -3.4,   -3.6,   -4.2,   -4.6,   -4.2,   -3.8,   -3.5,   -2.8,   -2.4,   -2.6,   -1.8,   -2.2,   -2.9,   -3.7,   -3.8,   -3.2,   -2.5,   -2.9,   -3.0,   -2.6,   -3.3,   -4.0,   -4.4,   -4.6,   -4.8,   -5.0,   -5.6,   -5.8,   -5.5,   -5.1,   -3.2,   -3.5,   -3.6,   -1.4,   -1.2,   -0.7,   -1.3,   -0.6,   -1.5,   -2.8,   -1.7,  999.0,  999.0,  999.0,  999.0,   -0.9,   -3.0,  999.0,  999.0,   -2.9,   -4.4,   -2.6,  999.0,  999.0,  999.0,  999.0,  999.0,  999.0,  999.0,  999.0,  999.0,  999.0,  999.0,  999.0,  999.0,  999.0,  999.0,  999.0,  999.0,  999.0,  999.0,  999.0,   -7.4,   -9.6,  -10.3,  999.0,  999.0,  999.0,   -6.2,   -7.3,  999.0,  999.0,    4.4,  999.0,  999.0,  999.0,  999.0,  999.0,  999.0,  999.0,  999.0
2006/11/17 07:30,  -10.9,  -10.5,  -12.1,  -13.1,  -12.8,  -12.6,  -12.0,  -11.6,  -11.2,  -11.3,  -10.7,  -10.0,   -9.0,   -8.6,   -5.1,   -4.7,   -4.9,   -5.9,   -7.9,  -10.1,  -10.4,   -9.8,   -8.7,   -6.9,   -7.3,   -6.7,   -5.9,   -5.7,   -4.8,   -3.3,   -3.0,   -3.1,   -2.9,   -2.9,   -3.5,   -3.4,   -3.3,   -2.6,   -2.2,   -1.9,   -2.1,   -2.7,   -3.0,   -3.1,   -2.4,   -2.2,   -2.9,   -3.0,   -2.8,   -3.4,   -4.3,   -4.4,   -4.7,   -5.1,   -5.4,   -5.8,   -5.8,   -5.5,   -5.3,   -2.9,   -3.4,   -4.1,   -2.1,   -3.0,   -0.7,   -0.9,   -0.2,   -0.4,   -2.0,   -1.6,  999.0,  999.0,  999.0,  999.0,  999.0,  999.0,  999.0,  999.0,  999.0,  999.0,   -3.5,  999.0,    1.1,  999.0,  999.0,  999.0,  999.0,  999.0,  999.0,  999.0,  999.0,  999.0,  999.0,  999.0,  999.0,  999.0,   -2.7,  999.0,  999.0,  999.0,  999.0,   -7.2,   -9.2,  999.0,  999.0,  999.0,  999.0,  999.0,   -7.5,  999.0,  999.0,  999.0,  999.0,  999.0,  999.0,  999.0,  999.0,  999.0,  999.0,  999.0
2006/11/17 07:40,  -10.7,  -11.5,  -13.3,  -13.5,  -13.0,  -12.2,  -11.5,  -11.0,  -10.4,  -10.4,   -9.8,   -9.3,   -8.5,   -8.0,   -5.7,   -4.6,   -4.3,   -5.1,   -6.5,   -9.7,  -10.0,   -8.9,   -8.4,   -8.0,   -7.9,   -7.3,   -6.5,   -6.3,   -6.2,   -4.3,   -3.9,   -3.2,   -3.7,   -4.1,   -4.1,   -3.7,   -4.1,   -3.8,   -2.6,   -2.1,   -2.2,   -2.9,   -3.1,   -4.1,   -3.2,   -2.6,   -3.7,   -3.1,   -2.7,   -3.9,   -4.3,   -4.0,   -4.5,   -4.8,   -5.6,   -5.7,   -5.8,   -5.6,   -5.3,   -3.5,   -1.8,   -3.8,   -0.9,   -1.3,   -0.2,   -0.6,   -0.0,   -0.3,   -0.2,   -0.1,   -5.4,  999.0,    0.1,    0.2,  999.0,   -0.0,    0.1,  999.0,  999.0,  999.0,   -5.3,   -2.0,    0.2,  999.0,   -0.3,    1.2,    0.5,  999.0,  999.0,  999.0,  999.0,  999.0,  999.0,  999.0,  999.0,  999.0,   -2.4,  999.0,  999.0,  999.0,  999.0,   -6.8,   -8.5,  999.0,  999.0,  999.0,  999.0,   -5.9,   -5.1,  999.0,  999.0,  999.0,  999.0,  999.0,  999.0,  999.0,  999.0,  999.0,  999.0,  999.0
2006/11/17 07:50,  -11.0,  -13.0,  -12.8,  -12.4,  -12.3,  -12.4,  -11.1,  -10.6,  -10.3,  -10.2,   -9.7,   -9.3,   -8.8,   -7.4,   -5.8,   -4.8,   -4.0,   -4.0,   -4.6,   -7.9,   -8.5,   -9.1,   -6.9,   -6.6,   -7.8,   -7.3,   -7.3,   -7.3,   -7.2,   -5.6,   -4.9,   -5.9,   -5.1,   -5.2,   -4.3,   -3.7,   -3.9,   -3.5,   -2.7,   -2.4,   -3.1,   -3.7,   -3.6,   -4.3,   -3.2,   -2.7,   -3.3,   -2.7,   -2.5,   -3.5,   -3.5,   -3.6,   -3.7,   -3.6,   -4.6,   -5.2,   -5.8,   -5.7,   -5.0,   -4.7,   -5.1,   -4.9,   -0.1,   -0.9,   -1.2,   -0.0,    0.1,   -0.9,   -0.3,   -0.0,  999.0,  999.0,   -0.3,    0.2,   -2.0,  999.0,    0.1,  999.0,  999.0,  999.0,   -4.4,   -2.2,  999.0,  999.0,  999.0,  999.0,    0.2,  999.0,  999.0,  999.0,  999.0,  999.0,  999.0,  999.0,    1.0,  999.0,   -1.5,  999.0,  999.0,  999.0,  999.0,  999.0,   -7.5,   -9.7,  999.0,  999.0,  999.0,   -5.8,   -4.4,  999.0,  999.0,  999.0,  999.0,  999.0,  999.0,  999.0,  999.0,  999.0,  999.0,  999.0
2006/11/17 08:00,  -11.3,  -12.5,  -12.7,  -13.6,  -12.5,  -11.8,  -11.2,  -10.3,  -10.1,  -10.5,  -10.4,   -9.5,   -9.6,   -8.2,   -6.1,   -5.7,   -4.7,   -4.5,   -4.8,   -8.2,   -9.3,   -9.4,   -7.8,   -6.3,   -7.6,   -7.3,   -7.5,   -7.1,   -6.5,   -4.5,   -3.8,   -4.7,   -5.2,   -4.0,   -3.5,   -3.4,   -3.8,   -3.1,   -2.5,   -2.5,   -2.8,   -3.6,   -4.4,   -4.9,   -4.1,   -3.2,   -3.5,   -3.3,   -2.8,   -3.3,   -2.9,   -3.3,   -3.4,   -3.7,   -4.6,   -5.3,   -6.2,   -5.9,   -4.7,   -4.7,   -5.0,   -3.7,    0.1,   -0.7,   -1.0,   -0.1,   -0.3,   -3.2,    0.0,   -0.1,   -0.1,  999.0,   -0.0,  999.0,  999.0,  999.0,  999.0,  999.0,  999.0,  999.0,   -4.2,   -2.2,  999.0,  999.0,  999.0,  999.0,  999.0,  999.0,  999.0,  999.0,  999.0,  999.0,  999.0,  999.0,    1.0,  999.0,  999.0,  999.0,  999.0,  999.0,  999.0,  999.0,  999.0,  999.0,  999.0,  999.0,   -6.6,   -5.7,   -4.5,  999.0,  999.0,    4.5,  999.0,  999.0,  999.0,  999.0,  999.0,  999.0,  999.0,  999.0
2006/11/17 08:10,  -11.8,  -12.5,  -12.7,  -12.8,  -12.1,  -11.4,  -11.2,  -10.3,   -9.7,   -9.9,  -10.1,   -8.8,   -9.2,   -8.9,   -7.0,   -6.1,   -5.5,   -4.8,   -5.2,   -8.1,   -8.8,   -8.6,   -6.9,   -6.4,   -6.9,   -6.6,   -6.4,   -5.1,   -4.8,   -3.4,   -3.2,   -3.7,   -4.2,   -3.4,   -2.2,   -2.1,   -3.5,   -3.4,   -2.3,   -2.2,   -2.2,   -3.5,   -4.8,   -5.4,   -4.9,   -3.9,   -4.1,   -3.7,   -3.4,   -4.0,   -3.8,   -4.2,   -3.7,   -4.0,   -5.1,   -5.8,   -6.5,   -6.8,   -4.9,   -5.1,   -5.3,   -3.4,   -0.0,   -0.7,   -0.5,   -0.2,   -0.6,   -1.5,   -0.5,   -0.2,   -0.2,   -0.4,  999.0,  999.0,    0.2,  999.0,   -0.1,  999.0,  999.0,  999.0,   -4.8,   -1.8,  999.0,  999.0,    1.2,  999.0,  999.0,  999.0,  999.0,  999.0,  999.0,  999.0,  999.0,  999.0,  999.0,  999.0,  999.0,  999.0,   -7.5,  999.0,  999.0,  999.0,  999.0,  999.0,   -9.0,  999.0,  999.0,   -6.0,   -3.6,  999.0,  999.0,    4.9,  999.0,  999.0,  999.0,  999.0,  999.0,  999.0,  999.0,  999.0
2006/11/17 08:20,  -11.9,  -12.4,  -12.1,  -12.0,  -11.4,  -11.5,  -10.6,  -10.1,   -9.7,   -9.3,   -9.1,   -8.1,   -8.5,   -8.3,   -7.0,   -5.2,   -5.3,   -4.7,   -5.2,   -8.5,  999.0,   -8.6,   -7.6,   -7.5,   -7.7,   -7.6,   -6.2,   -6.6,   -6.6,   -5.4,   -3.7,   -3.9,   -4.3,   -3.5,   -1.2,   -1.6,   -2.9,   -3.4,   -1.8,   -2.0,   -2.7,   -3.6,   -4.8,   -4.7,   -3.8,   -3.1,   -3.2,   -2.9,   -2.8,   -3.5,   -3.2,   -4.0,   -3.6,   -4.1,   -5.0,   -5.9,   -6.4,   -6.6,   -4.8,   -4.5,   -4.8,   -3.6,    0.1,    0.1,    0.2,   -0.2,   -0.5,   -1.0,  999.0,   -0.5,  999.0,  999.0,    0.0,  999.0,   -0.1,   -2.2,    0.0,  999.0,  999.0,   -6.9,  999.0,  999.0,  999.0,  999.0,    0.2,  999.0,  999.0,  999.0,  999.0,  999.0,  999.0,  999.0,  999.0,  999.0,  999.0,  999.0,  999.0,  999.0,  999.0,  999.0,  999.0,  999.0,  999.0,  999.0,  999.0,  999.0,  999.0,   -6.0,  999.0,  999.0,  999.0,  999.0,  999.0,  999.0,  999.0,  999.0,  999.0,  999.0,  999.0,  999.0
2006/11/17 08:30,  -11.8,  -11.9,  -11.5,  -11.3,  -10.9,  -11.1,  -10.5,   -9.9,   -9.5,   -8.6,   -8.7,   -8.1,   -7.9,   -7.1,   -6.3,   -4.9,   -4.3,   -4.4,   -5.2,   -7.7,   -9.2,   -8.8,   -8.7,   -8.7,   -8.8,   -9.1,   -7.4,   -7.0,   -6.8,   -6.5,   -4.5,   -4.7,   -4.5,   -4.2,   -1.5,   -1.6,   -2.3,   -2.8,   -2.2,   -1.9,   -2.4,   -3.1,   -3.7,   -3.1,   -2.6,   -2.8,   -2.0,   -1.8,   -1.5,   -1.8,   -2.0,   -2.9,   -2.9,   -3.8,   -4.5,   -5.4,   -6.1,   -6.1,   -4.4,   -4.0,   -4.6,   -4.1,   -0.0,   -0.0,    0.2,   -0.0,   -0.2,   -1.0,   -3.9,   -0.5,   -1.0,  999.0,   -0.2,    0.1,  999.0,   -0.7,    0.1,  999.0,  999.0,  999.0,   -2.7,   -1.0,  999.0,  999.0,   -0.1,  999.0,  999.0,   -0.4,  999.0,  999.0,  999.0,  999.0,  999.0,  999.0,  999.0,  999.0,  999.0,  999.0,  999.0,  999.0,  999.0,  999.0,   -7.4,  999.0,  999.0,  999.0,  999.0,   -6.2,  999.0,  999.0,  999.0,  999.0,  999.0,  999.0,  999.0,  999.0,  999.0,  999.0,  999.0,  999.0
2006/11/17 08:40,  -12.3,  -11.6,  -11.5,  -11.0,  -11.2,  -10.8,   -9.8,   -9.0,   -9.3,   -9.1,   -8.8,   -8.0,   -7.4,   -6.0,   -5.2,   -4.6,   -4.4,   -4.5,   -5.2,   -7.8,   -9.1,   -9.2,   -8.9,   -8.7,   -9.3,   -9.5,   -9.7,   -9.2,   -8.5,   -8.7,   -6.0,   -6.3,   -4.6,   -5.1,   -3.3,   -2.0,   -1.7,   -2.8,   -1.9,   -1.8,   -2.6,   -3.2,   -3.9,   -3.4,   -3.5,   -2.9,   -2.2,   -1.7,   -1.3,   -0.9,   -1.0,   -1.5,   -2.0,   -1.8,   -3.5,   -4.7,   -4.9,   -4.4,   -3.9,   -1.9,   -4.0,   -3.4,   -0.0,    0.0,    0.0,    0.0,   -0.1,   -0.8,   -0.1,   -0.1,   -0.2,  999.0,    0.3,   -0.1,   -0.2,  999.0,   -0.1,  999.0,  999.0,  999.0,   -1.7,   -1.6,    0.1,  999.0,  999.0,    1.3,  999.0,  999.0,  999.0,  999.0,  999.0,  999.0,  999.0,  999.0,    1.8,  999.0,  999.0,  999.0,  999.0,  999.0,  999.0,  999.0,   -7.7,  999.0,  999.0,  999.0,  999.0,   -7.4,  999.0,  999.0,  999.0,  999.0,  999.0,  999.0,  999.0,  999.0,  999.0,  999.0,  999.0,  999.0
2006/11/17 08:50,  -12.2,  -12.1,  -11.6,  -11.3,  -11.1,  -10.4,   -9.3,   -9.3,   -9.6,  -10.0,   -9.6,   -9.4,   -8.2,   -6.3,   -5.8,   -5.4,   -5.0,   -5.0,   -4.4,   -7.0,   -7.9,   -8.0,   -7.9,   -7.6,   -7.3,   -7.4,   -7.4,   -7.0,   -6.6,   -7.2,   -5.7,   -5.6,   -5.1,   -3.9,   -1.5,   -0.2,   -1.3,   -2.3,   -1.4,   -1.9,   -3.2,   -4.0,   -4.5,   -4.6,   -4.3,   -3.6,   -2.9,   -1.8,   -1.4,   -1.9,   -2.4,   -2.3,   -3.0,   -3.4,   -3.4,   -4.4,   -4.7,   -4.3,   -3.5,   -2.1,   -3.6,   -3.4,    0.0,   -0.1,   -0.2,   -0.0,   -0.3,   -1.4,   -0.4,   -0.0,   -0.1,  999.0,    0.6,   -0.2,    0.5,   -0.1,    0.1,  999.0,    0.3,  999.0,  999.0,   -1.5,    0.6,  999.0,  999.0,  999.0,  999.0,   -0.0,    0.6,  999.0,  999.0,  999.0,  999.0,  999.0,    1.9,  999.0,  999.0,  999.0,  999.0,  999.0,  999.0,  999.0,  999.0,  999.0,  999.0,   -7.4,   -4.9,   -5.0,  999.0,  999.0,  999.0,  999.0,  999.0,  999.0,  999.0,  999.0,  999.0,  999.0,  999.0,  999.0
2006/11/17 09:00,  -11.9,  -12.4,  -12.1,  -11.8,  -12.0,  -10.8,  -10.0,  -10.2,  -10.2,  -10.0,   -9.5,   -9.7,   -8.1,  999.0,   -7.3,   -4.7,   -4.5,   -4.4,   -3.9,   -4.8,   -6.2,   -7.0,   -6.4,   -6.7,   -5.2,   -4.3,   -4.6,   -3.5,   -3.1,   -3.8,   -3.1,   -3.7,   -3.2,   -2.0,   -0.6,   -1.1,   -2.4,   -3.6,   -1.9,   -2.1,   -3.6,   -4.9,   -5.4,   -4.7,   -4.6,   -4.1,   -3.4,   -2.2,   -1.9,   -3.2,   -3.9,   -4.3,   -4.7,   -4.5,   -5.0,   -5.6,   -6.0,   -5.5,   -4.8,   -3.5,   -5.5,   -4.5,   -0.0,   -0.0,   -0.1,    0.0,   -0.1,   -0.0,   -0.1,    0.1,  999.0,   -0.3,  999.0,   -0.2,    0.0,   -0.0,    0.1,   -0.1,   -0.2,  999.0,   -4.7,    0.0,    0.2,    1.1,    0.5,  999.0,   -0.3,    0.1,  999.0,  999.0,  999.0,  999.0,  999.0,   -1.9,  999.0,  999.0,  999.0,   -4.8,  999.0,  999.0,  999.0,  999.0,   -9.8,  999.0,   -7.7,  999.0,   -4.1,   -4.6,  999.0,    0.6,    4.3,    3.5,  999.0,  999.0,  999.0,  999.0,  999.0,  999.0,  999.0,  999.0
2006/11/17 09:10,  -12.2,  -12.2,  -11.5,  -12.5,  -12.3,  -11.2,  -10.7,   -9.9,   -9.2,   -9.4,   -9.3,   -9.0,   -7.6,   -6.8,   -6.6,   -5.4,   -4.5,   -4.0,   -3.9,   -3.9,   -6.8,   -7.0,   -7.4,   -6.5,   -5.3,   -4.5,   -4.7,   -4.9,   -3.6,   -4.1,   -2.6,   -2.8,   -2.3,   -2.1,   -0.9,   -1.2,   -1.7,   -2.6,   -1.5,   -1.8,   -2.9,   -4.4,   -3.9,   -4.5,   -3.9,   -3.5,   -3.4,   -1.9,   -2.4,   -3.6,   -4.2,   -4.6,   -5.5,   -5.5,   -6.0,   -6.6,   -7.1,   -5.7,   -5.4,   -5.9,   -6.2,   -6.5,    0.0,    0.1,    0.0,    0.1,   -0.1,    0.0,   -0.4,    0.0,   -0.3,  999.0,  999.0,   -0.1,    0.2,  999.0,   -0.1,   -0.0,   -0.3,  999.0,   -3.5,   -0.4,  999.0,    1.4,  999.0,  999.0,  999.0,  999.0,  999.0,  999.0,  999.0,  999.0,  999.0,  999.0,  999.0,  999.0,  999.0,  999.0,  999.0,  999.0,  999.0,  999.0,  999.0,  999.0,  999.0,  999.0,   -4.0,  999.0,  999.0,  999.0,  999.0,  999.0,  999.0,  999.0,  999.0,  999.0,  999.0,  999.0,  999.0,  999.0
2006/11/17 09:20,  -11.0,  -11.1,  -10.8,  -12.7,  -11.8,  -10.4,   -9.7,   -9.3,   -8.7,   -8.5,   -8.2,   -7.4,   -6.3,   -5.0,   -4.2,   -4.1,   -2.8,   -2.7,   -2.8,   -3.0,   -5.3,   -5.7,   -6.5,   -6.4,   -6.3,   -5.9,   -5.8,   -6.2,   -8.1,   -6.3,   -4.7,   -3.1,   -2.1,   -1.9,   -0.8,   -1.5,   -0.8,   -2.1,   -1.8,   -2.3,   -3.0,   -3.7,   -3.0,   -3.8,   -4.0,   -3.8,   -3.0,   -2.3,   -1.9,   -2.8,   -3.8,   -3.7,   -4.5,   -4.4,   -5.1,   -5.4,   -6.4,   -4.8,   -5.0,   -5.7,   -6.2,   -6.3,   -0.0,    0.1,    0.1,   -0.1,   -0.2,    0.1,   -0.0,   -0.0,    0.0,   -1.0,  999.0,    0.3,    0.1,   -0.3,  999.0,  999.0,   -0.0,  999.0,   -3.6,   -0.2,  999.0,  999.0,  999.0,  999.0,  999.0,  999.0,  999.0,  999.0,  999.0,  999.0,  999.0,  999.0,  999.0,  999.0,  999.0,  999.0,  999.0,  999.0,  999.0,  999.0,  999.0,  999.0,  999.0,  999.0,  999.0,   -4.1,  999.0,   -2.4,  999.0,  999.0,  999.0,  999.0,  999.0,  999.0,  999.0,  999.0,  999.0,  999.0
2006/11/17 09:30,  -10.4,  -10.8,  -11.0,  -12.0,  -11.8,   -9.9,   -9.3,   -9.2,   -8.8,   -8.9,   -8.4,   -8.1,   -7.2,   -6.4,   -4.9,   -5.3,   -3.6,   -2.7,   -2.6,   -3.4,   -5.0,   -5.2,   -5.1,   -5.4,   -4.6,   -5.0,   -5.2,   -5.5,   -6.6,   -6.2,   -5.0,   -4.4,   -3.7,   -3.0,   -1.6,   -1.2,   -0.6,   -2.4,   -3.0,   -3.3,   -3.2,   -3.2,   -2.8,   -3.8,   -4.8,   -5.3,   -5.4,   -3.4,   -2.9,   -3.7,   -4.2,   -4.2,   -4.4,   -4.3,   -4.7,   -5.9,   -7.0,   -5.1,   -5.3,   -5.4,   -5.9,   -3.8,   -0.1,   -0.1,    0.1,    0.0,   -0.1,   -0.1,    0.0,    0.1,   -0.0,  999.0,  999.0,    0.5,    0.2,  999.0,   -0.1,  999.0,  999.0,  999.0,  999.0,   -0.3,    0.8,  999.0,  999.0,  999.0,  999.0,  999.0,  999.0,  999.0,  999.0,  999.0,  999.0,  999.0,  999.0,  999.0,  999.0,  999.0,  999.0,  999.0,  999.0,  999.0,  999.0,  999.0,  999.0,  999.0,  999.0,   -3.7,  999.0,  999.0,  999.0,  999.0,  999.0,  999.0,  999.0,  999.0,  999.0,  999.0,  999.0,  999.0
2006/11/17 09:40,   -9.2,   -9.9,  -10.8,  -11.9,  -11.7,  -11.5,  -10.8,  -10.7,   -9.8,   -9.7,   -9.8,   -9.0,   -8.6,   -7.5,   -5.6,   -6.1,   -4.8,   -3.0,   -2.5,   -4.0,   -5.2,   -5.7,   -6.0,   -5.9,   -4.7,   -5.0,   -5.2,   -5.2,   -6.0,   -5.4,   -5.1,   -4.1,   -3.8,   -2.6,   -2.0,    0.0,   -0.5,   -1.0,   -2.7,   -2.1,   -2.8,   -2.8,   -3.0,   -3.7,   -5.5,   -6.1,   -5.8,   -3.4,   -3.7,   -4.2,   -4.3,   -4.1,   -4.7,   -4.5,   -4.9,   -5.4,   -5.8,   -4.6,   -5.3,   -4.4,   -4.9,   -2.9,   -1.9,   -1.8,   -0.2,    0.1,   -0.1,   -0.1,   -0.0,    0.1,   -0.2,  999.0,  999.0,  999.0,   -0.0,    0.2,   -0.0,  999.0,  999.0,  999.0,  999.0,   -0.5,    0.8,    1.0,  999.0,  999.0,    0.5,  999.0,    2.4,  999.0,  999.0,  999.0,  999.0,  999.0,  999.0,  999.0,  999.0,  999.0,  999.0,  999.0,   -3.6,  999.0,   -6.0,  999.0,  999.0,  999.0,   -4.6,   -4.9,  999.0,  999.0,  999.0,  999.0,  999.0,  999.0,  999.0,  999.0,  999.0,  999.0,  999.0,  999.0
2006/11/17 09:50,   -8.5,  -10.1,  -10.9,  -10.5,  -10.4,  -10.3,  -10.9,  -11.0,  -12.2,  -11.7,  -10.7,   -9.4,   -9.6,   -6.8,   -5.8,   -5.1,   -4.7,   -3.6,   -3.4,   -5.2,   -5.6,   -6.2,   -6.8,   -6.9,   -5.0,   -5.6,   -6.0,   -5.9,   -6.4,   -5.6,   -5.1,   -4.7,   -3.7,   -2.7,   -2.0,   -0.8,   -1.0,   -1.7,   -2.7,   -3.2,   -3.9,   -4.7,   -4.1,   -4.3,   -6.5,   -6.9,   -5.9,   -4.3,   -4.3,   -4.6,   -4.6,   -4.7,   -5.0,   -4.8,   -5.1,   -5.3,   -5.2,   -4.3,   -4.9,   -2.9,   -2.9,   -3.2,   -2.2,   -2.9,   -0.6,   -0.1,   -0.4,   -0.2,   -0.1,    0.0,  999.0,  999.0,  999.0,  999.0,  999.0,   -0.1,  999.0,  999.0,   -0.7,  999.0,  999.0,   -0.7,  999.0,    0.6,  999.0,  999.0,  999.0,  999.0,    2.3,  999.0,  999.0,  999.0,  999.0,  999.0,  999.0,  999.0,  999.0,  999.0,  999.0,  999.0,  999.0,   -6.0,   -6.7,  999.0,  999.0,  999.0,   -4.6,   -5.3,   -4.9,  999.0,    1.0,  999.0,  999.0,  999.0,  999.0,  999.0,  999.0,  999.0,  999.0,  999.0
2006/11/17 10:00,   -9.5,  -10.7,  -10.9,  -10.3,   -9.2,   -9.2,   -9.7,   -9.9,  -10.4,  -10.4,  -10.3,   -8.4,   -7.5,   -6.1,   -5.1,   -4.9,   -4.5,   -4.4,   -4.5,   -5.9,   -6.6,   -7.5,   -8.3,   -7.7,   -5.0,   -5.1,   -5.7,   -5.9,   -5.9,   -5.5,   -3.5,   -4.0,   -2.7,   -1.9,   -1.4,   -1.1,   -1.5,   -2.8,   -2.7,   -3.3,   -4.1,   -5.3,   -4.9,   -4.7,   -6.7,   -7.1,   -5.3,   -4.4,   -4.3,   -4.3,   -5.0,   -4.8,   -4.9,   -5.0,   -5.3,   -5.6,   -4.9,   -4.9,   -5.3,   -4.0,   -2.7,   -3.2,   -1.1,   -1.9,   -0.5,   -0.2,   -0.1,   -0.2,   -0.1,   -0.1,  999.0,  999.0,  999.0,  999.0,   -0.6,  999.0,  999.0,  999.0,  999.0,   -3.9,  999.0,  999.0,    0.7,    0.8,  999.0,  999.0,  999.0,  999.0,  999.0,  999.0,  999.0,  999.0,  999.0,  999.0,  999.0,  999.0,  999.0,   -3.1,  999.0,  999.0,  999.0,   -5.8,   -7.5,  999.0,  999.0,  999.0,  999.0,   -6.0,   -6.0,  999.0,  999.0,  999.0,  999.0,  999.0,  999.0,  999.0,  999.0,  999.0,  999.0,  999.0
2006/11/17 10:10,  -10.6,  -10.3,  -10.6,  -10.3,   -9.2,   -9.4,   -9.6,  -10.2,  -11.0,  -11.6,  -11.1,   -9.4,   -9.1,   -7.9,   -7.0,   -6.2,   -5.9,   -7.0,   -9.4,   -9.4,   -9.6,   -9.8,   -9.4,   -8.2,   -6.0,   -5.7,   -5.7,   -6.2,   -5.4,   -4.9,   -3.3,   -2.7,   -3.3,   -3.3,   -3.0,   -1.8,   -2.3,   -3.3,   -3.4,   -3.8,   -4.9,   -4.9,   -4.1,   -3.9,   -5.4,   -4.8,   -3.3,   -3.4,   -3.4,   -3.5,   -3.7,   -3.9,   -3.9,   -4.2,   -4.7,   -4.8,   -4.7,   -4.6,   -5.5,   -3.9,   -4.1,   -3.2,   -0.7,   -1.3,   -0.8,   -0.2,    0.0,   -0.1,   -0.1,   -0.1,   -0.1,   -0.1,  999.0,  999.0,   -0.1,  999.0,   -4.2,  999.0,  999.0,  999.0,  999.0,   -0.0,    0.4,  999.0,  999.0,  999.0,  999.0,  999.0,  999.0,  999.0,  999.0,  999.0,  999.0,  999.0,  999.0,  999.0,  999.0,   -2.6,  999.0,  999.0,  999.0,  999.0,   -6.7,  999.0,  999.0,  999.0,   -5.6,   -6.0,   -6.2,  999.0,  999.0,  999.0,  999.0,  999.0,  999.0,  999.0,  999.0,  999.0,  999.0,  999.0
2006/11/17 10:20,  -10.1,  -10.3,  -10.3,  -10.2,   -9.4,   -9.4,   -9.9,  -10.1,  -11.3,  -12.4,  -11.8,  -10.6,  -10.1,   -9.5,   -8.5,   -6.7,   -7.1,   -8.2,  -10.5,  -10.8,  -11.7,  -12.9,  999.0,   -9.0,   -6.9,   -6.2,   -7.0,   -6.8,   -6.1,  999.0,   -4.0,   -2.4,   -2.4,   -2.2,   -2.0,   -1.5,   -1.9,   -3.2,   -3.6,   -4.0,   -4.1,   -4.5,   -3.5,   -3.9,   -5.2,   -4.6,   -3.0,   -3.0,   -3.5,   -3.9,   -4.2,   -4.5,   -4.2,   -4.1,   -4.6,   -4.8,   -4.7,   -5.0,   -5.3,   -4.0,   -5.0,   -3.3,   -1.2,   -1.2,   -1.1,   -0.2,    0.1,    0.1,   -0.4,    0.1,    0.1,  999.0,    0.9,  999.0,    0.3,  999.0,   -4.2,  999.0,  999.0,  999.0,  999.0,   -0.6,    1.0,  999.0,  999.0,  999.0,  999.0,  999.0,  999.0,  999.0,  999.0,  999.0,  999.0,  999.0,  999.0,  999.0,  999.0,  999.0,  999.0,  999.0,  999.0,  999.0,   -7.1,  999.0,   -8.9,   -6.0,  999.0,  999.0,  999.0,  999.0,  999.0,  999.0,  999.0,  999.0,  999.0,  999.0,  999.0,  999.0,  999.0,  999.0
2006/11/17 10:30,   -9.9,  -10.5,  -10.5,   -9.6,   -8.5,   -8.7,   -9.7,   -9.9,  -10.0,  -10.4,  -10.5,   -9.9,   -9.1,   -9.3,   -8.0,   -6.7,   -6.0,   -6.9,   -7.5,   -8.7,  -10.1,  -12.2,  999.0,  -10.1,   -6.5,   -5.4,   -6.6,   -6.5,   -5.5,   -4.8,   -4.8,   -3.2,   -2.2,   -1.5,   -1.1,   -1.6,   -2.7,   -3.3,   -4.1,   -4.9,   -5.2,   -4.2,   -3.0,   -2.9,   -2.9,   -2.5,   -2.0,   -2.3,   -3.6,   -3.9,   -4.1,   -4.6,   -4.3,   -4.4,   -4.7,   -4.6,   -4.7,   -4.8,   -4.0,  999.0,   -4.9,   -3.1,   -1.4,   -1.0,   -0.3,   -0.2,   -0.4,    0.2,   -0.0,   -0.0,   -0.2,  999.0,   -1.9,   -0.1,  999.0,   -4.4,   -6.2,  999.0,  999.0,  999.0,  999.0,  999.0,    0.8,   -0.2,  999.0,  999.0,  999.0,  999.0,  999.0,  999.0,  999.0,  999.0,  999.0,  999.0,  999.0,  999.0,  999.0,  999.0,   -3.4,  999.0,  999.0,  999.0,   -4.8,  999.0,  999.0,  999.0,   -5.9,  999.0,  999.0,  999.0,  999.0,  999.0,  999.0,  999.0,  999.0,  999.0,  999.0,  999.0,  999.0,  999.0
2006/11/17 10:40,  -10.2,  -10.5,  -10.5,   -9.6,   -9.1,   -9.1,   -9.7,   -9.5,  -10.2,  -10.5,  -10.0,  -10.0,   -8.6,   -8.5,   -7.5,   -6.9,   -5.6,   -5.8,   -7.2,   -7.7,   -9.5,  -11.8,  -12.2,  999.0,   -7.8,   -6.1,   -7.7,   -7.4,   -6.3,   -6.0,   -5.1,   -3.2,   -2.4,   -2.1,   -1.5,   -2.0,   -2.8,   -3.3,   -4.0,   -5.5,   -5.9,   -4.5,   -3.1,   -2.8,   -2.8,   -2.3,   -1.6,   -2.1,   -3.5,   -4.2,   -4.8,   -5.6,   -5.1,   -5.1,   -5.9,   -5.7,   -5.7,   -5.4,   -4.4,   -4.7,   -5.7,   -4.6,   -0.5,   -0.8,   -0.2,   -0.4,   -0.8,   -0.2,   -0.2,   -0.2,   -0.0,  999.0,  999.0,  999.0,   -3.9,   -4.8,  999.0,  999.0,  999.0,   -2.7,  999.0,  999.0,   -0.3,  999.0,  999.0,  999.0,  999.0,  999.0,  999.0,  999.0,  999.0,  999.0,  999.0,  999.0,  999.0,  999.0,  999.0,  999.0,  999.0,  999.0,  999.0,  999.0,   -4.3,  999.0,  999.0,   -6.4,   -6.3,  999.0,  999.0,  999.0,  999.0,    2.3,  999.0,  999.0,  999.0,  999.0,  999.0,  999.0,  999.0,  999.0
2006/11/17 10:50,   -9.6,  -10.2,  -10.2,  -10.1,  -10.1,   -9.7,   -9.5,   -9.4,  -10.4,  -10.9,  -10.4,   -9.6,   -8.6,   -8.0,   -8.0,   -6.9,   -5.2,   -5.0,   -5.3,   -6.2,   -6.9,   -8.7,  999.0,   -9.5,   -6.7,   -5.4,   -6.5,   -6.5,   -5.8,   -5.2,   -5.1,   -3.7,   -3.6,   -3.9,   -3.5,   -3.3,   -3.7,   -4.1,   -5.0,   -6.4,   -6.5,   -5.9,   -4.5,   -3.7,   -4.1,   -3.5,   -2.8,   -2.7,   -2.8,   -4.5,   -5.4,   -6.1,   -5.5,   -5.5,   -5.4,   -5.4,   -4.9,   -4.7,  999.0,   -4.5,   -5.3,   -3.9,   -0.4,   -0.4,   -0.5,   -0.3,   -0.8,    0.2,   -0.3,   -0.1,  999.0,  999.0,  999.0,   -2.5,   -4.5,  999.0,  999.0,  999.0,  999.0,  999.0,   -2.5,  999.0,   -0.8,  999.0,  999.0,  999.0,  999.0,  999.0,  999.0,  999.0,  999.0,  999.0,  999.0,  999.0,  999.0,  999.0,  999.0,  999.0,  999.0,  999.0,  999.0,   -4.7,   -7.1,  999.0,  999.0,  999.0,   -5.9,  999.0,   -3.9,  999.0,  999.0,    2.2,  999.0,  999.0,  999.0,  999.0,  999.0,  999.0,  999.0,  999.0
2006/11/17 11:00,  999.0,  -10.7,   -9.9,  -10.7,  -10.9,  -10.6,  -10.4,  -10.5,  -10.5,  -11.0,  -10.3,  -10.0,   -9.5,   -9.0,   -8.3,   -6.8,   -5.5,   -4.7,   -5.2,   -5.9,   -5.6,   -5.6,   -6.2,   -6.9,   -5.3,   -3.9,   -4.4,   -5.0,   -5.1,   -4.8,   -4.9,   -4.8,   -5.0,   -5.0,   -4.8,   -3.8,   -3.8,   -4.3,   -6.4,   -7.3,   -7.3,   -6.1,   -4.9,   -3.6,   -4.1,   -4.3,   -3.9,   -2.7,   -3.6,   -5.2,   -5.4,   -5.9,   -5.9,   -6.2,   -5.9,  999.0,   -4.2,   -5.0,   -4.7,   -4.3,   -4.8,   -3.7,   -0.9,   -0.7,   -0.9,   -0.4,   -1.9,   -0.4,   -0.1,   -0.3,  999.0,   -1.5,  999.0,   -4.9,   -4.4,  999.0,  999.0,  999.0,  999.0,  999.0,  999.0,  999.0,  999.0,    0.1,  999.0,  999.0,  999.0,  999.0,  999.0,  999.0,  999.0,  999.0,  999.0,  999.0,  999.0,  999.0,   -1.3,  999.0,  999.0,  999.0,  999.0,  999.0,  999.0,  999.0,  999.0,  999.0,   -4.1,  999.0,   -3.1,  999.0,    2.4,  999.0,  999.0,  999.0,  999.0,  999.0,  999.0,  999.0,  999.0,  999.0
2006/11/17 11:10,  -10.3,   -9.9,  -10.5,  -11.0,  -10.9,  -10.5,  -10.6,  -10.9,  -10.4,  -10.7,  -10.1,   -9.9,   -9.7,   -9.4,   -8.0,   -5.9,   -5.1,   -4.4,   -4.9,   -5.5,   -5.1,   -4.5,   -5.0,   -5.3,   -5.1,   -3.2,   -4.8,   -5.7,   -6.3,   -6.1,   -6.0,   -6.1,   -5.9,   -5.5,   -4.5,   -3.4,   -3.5,   -4.2,   -5.9,   -6.3,   -6.2,   -4.9,   -3.6,   -3.3,   -4.2,   -4.2,   -3.8,   -2.7,   -4.6,   -5.2,   -5.5,   -5.7,   -5.8,   -5.9,   -6.3,   -6.4,   -4.4,   -4.4,   -3.8,   -4.1,   -4.6,   -3.5,   -0.1,   -0.4,    0.0,   -0.1,   -0.7,   -0.7,   -0.1,   -0.1,  999.0,   -4.3,  999.0,   -4.8,   -5.5,  999.0,  999.0,  999.0,  999.0,  999.0,  999.0,   -3.2,  999.0,   -0.2,  999.0,  999.0,  999.0,  999.0,  999.0,  999.0,  999.0,  999.0,  999.0,  999.0,  999.0,  999.0,  999.0,  999.0,  999.0,  999.0,  999.0,   -3.8,  999.0,  999.0,  999.0,  999.0,  999.0,  999.0,  999.0,  999.0,  999.0,  999.0,  999.0,  999.0,  999.0,  999.0,  999.0,  999.0,  999.0,  999.0
2006/11/17 11:20,  -10.4,  -10.4,  -11.2,  -10.8,  -11.0,  -10.7,  -11.2,  -11.4,  -11.4,  -10.7,  -11.1,  -10.5,   -9.9,   -9.5,   -9.3,   -6.9,   -5.0,   -4.6,   -4.9,   -5.1,   -5.3,   -5.1,   -5.3,   -5.8,   -5.3,   -3.8,   -4.8,   -6.3,   -6.9,   -6.9,   -6.2,   -7.2,   -7.2,   -6.3,   -4.7,   -3.5,   -3.1,   -3.5,   -4.5,   -5.2,   -5.0,   -4.0,   -3.2,   -3.2,   -4.1,   -3.8,   -3.7,   -3.6,   -5.2,   -5.5,   -5.6,   -5.6,   -5.2,   -5.0,   -5.9,   -5.0,   -4.4,   -4.1,   -3.2,   -3.9,   -3.7,   -0.8,   -0.3,    0.2,    0.0,    0.0,    0.1,   -0.2,    0.0,    0.0,   -0.0,   -0.1,   -3.5,   -6.1,   -5.4,  999.0,  999.0,   -7.9,   -6.7,  999.0,  999.0,  999.0,   -1.7,   -0.4,  999.0,  999.0,  999.0,  999.0,  999.0,  999.0,  999.0,  999.0,  999.0,  999.0,  999.0,  999.0,  999.0,   -2.0,  999.0,  999.0,   -4.2,   -6.0,  999.0,  999.0,  999.0,  999.0,  999.0,  999.0,  999.0,  999.0,  999.0,   -5.2,  999.0,  999.0,  999.0,  999.0,  999.0,  999.0,  999.0,  999.0
2006/11/17 11:30,  -10.9,  -11.5,  -11.1,  -10.4,  -10.9,  -11.1,  -11.4,  -12.8,  -12.0,  -11.1,  -11.1,  -10.6,   -8.7,   -8.8,   -8.1,   -6.5,   -4.9,   -4.7,   -5.7,   -6.1,   -6.1,   -5.8,   -5.8,   -5.8,   -5.2,   -4.1,   -4.3,   -5.6,   -5.9,   -6.2,   -4.9,   -5.5,   -5.8,   -3.4,   -3.1,   -2.3,   -1.4,   -1.6,   -2.1,   -3.1,   -3.9,   -3.1,   -2.6,   -3.0,   -3.7,   -3.7,   -3.5,   -4.5,   -5.5,   -6.2,   -6.0,   -6.1,   -5.3,   -4.7,  999.0,   -4.8,   -3.8,   -3.8,   -2.9,   -3.9,   -3.8,  999.0,   -1.0,    0.2,    0.1,   -0.0,    0.1,    0.0,    0.1,    0.1,   -0.1,    0.2,  999.0,   -8.0,   -9.7,  999.0,  999.0,  999.0,   -6.9,  999.0,  999.0,  999.0,   -1.8,   -0.8,   -0.1,  999.0,  999.0,  999.0,  999.0,  999.0,  999.0,  999.0,  999.0,  999.0,   -2.8,  999.0,  999.0,  999.0,  999.0,   -2.7,   -4.3,   -5.9,  999.0,  999.0,  999.0,  999.0,  999.0,  999.0,  999.0,  999.0,  999.0,  999.0,  999.0,  999.0,  999.0,  999.0,  999.0,  999.0,  999.0,  999.0
2006/11/17 11:40,  -10.9,  -10.9,  -11.4,  -11.3,  -10.7,  -11.2,  -11.6,  -12.1,  -12.4,  -11.4,  -10.6,  -10.2,   -8.8,   -8.9,   -8.8,   -7.4,   -5.4,   -5.1,   -5.4,   -5.7,   -5.9,   -5.7,   -6.2,   -6.2,   -5.8,   -3.8,   -4.8,   -5.5,   -5.6,   -5.4,   -4.3,   -5.3,   -4.5,   -3.0,   -2.8,   -2.9,   -1.7,   -1.6,   -1.7,   -2.2,   -2.6,   -2.7,   -2.4,   -3.0,   -3.5,   -3.3,   -2.9,   -4.3,   -5.2,   -5.7,   -6.0,   -6.1,   -5.2,   -4.7,   -4.2,   -4.4,   -3.7,   -3.8,   -3.5,   -3.6,   -2.6,   -1.8,   -1.3,  999.0,    0.1,    0.1,   -0.0,   -0.3,    0.0,   -0.1,  999.0,  999.0,  999.0,   -7.3,   -9.5,  999.0,   -8.7,  999.0,   -7.1,  999.0,  999.0,  999.0,  999.0,   -0.9,  999.0,  999.0,  999.0,  999.0,  999.0,  999.0,  999.0,  999.0,  999.0,  999.0,  999.0,  999.0,  999.0,  999.0,   -3.0,  999.0,   -4.5,   -6.1,  999.0,  999.0,  999.0,  999.0,  999.0,  999.0,  999.0,  999.0,  999.0,  999.0,  999.0,  999.0,  999.0,  999.0,  999.0,  999.0,  999.0,  999.0
2006/11/17 11:50,   -9.0,  -10.4,  -10.3,  -10.8,  -10.4,  -10.3,  -11.6,  -10.5,  -10.1,  -11.5,  -11.6,  -10.9,  -10.1,   -9.9,   -8.9,   -8.0,   -5.6,   -5.2,   -5.1,   -5.0,   -5.4,   -5.4,   -5.6,   -5.6,   -5.5,   -3.4,   -3.8,   -4.4,   -4.6,   -4.1,   -3.1,   -3.8,   -3.3,   -2.7,   -2.5,   -2.8,   -2.5,   -2.3,   -2.2,   -2.4,   -3.2,   -3.1,   -2.8,   -2.4,   -2.7,   -2.8,   -2.5,   -3.5,   -4.7,   -4.9,   -5.1,   -5.7,   -5.7,   -4.4,   -3.6,   -4.1,   -4.2,   -3.8,   -3.6,   -3.6,   -3.7,   -3.7,   -0.4,   -0.2,   -0.0,    0.0,   -0.1,   -0.0,   -0.5,   -0.3,  999.0,  999.0,  999.0,  999.0,  999.0,  999.0,   -7.5,   -2.6,  999.0,  999.0,  999.0,  999.0,  999.0,   -0.2,  999.0,  999.0,   -1.7,  999.0,  999.0,  999.0,  999.0,  999.0,  999.0,  999.0,  999.0,  999.0,  999.0,   -2.8,   -2.7,  999.0,   -4.6,   -5.5,  999.0,  999.0,  999.0,  999.0,  999.0,  999.0,  999.0,  999.0,    1.5,  999.0,  999.0,  999.0,  999.0,  999.0,  999.0,  999.0,  999.0,  999.0
2006/11/17 12:00,   -8.7,   -8.9,   -8.0,   -8.5,   -8.6,   -9.4,  999.0,   -7.1,  -11.0,  -10.2,  -11.2,  -10.3,  -11.3,   -9.8,   -8.5,   -7.2,   -4.7,   -3.6,   -3.7,   -4.5,   -4.8,   -5.4,   -6.4,   -5.7,   -5.2,   -2.5,   -2.8,   -3.4,   -3.2,   -3.1,   -2.7,   -2.6,   -2.3,   -1.8,   -2.3,   -2.3,   -2.2,   -2.3,   -2.6,   -3.2,   -3.8,   -3.7,   -2.9,   -2.6,   -2.8,   -2.3,   -2.5,   -3.2,   -4.4,   -4.8,   -4.0,   -5.0,   -5.1,   -4.4,   -3.9,   -3.7,   -3.4,   -3.6,   -3.6,   -3.0,   -4.7,   -3.0,   -0.5,   -0.1,   -0.0,    0.1,    0.1,    0.1,    0.0,   -0.4,   -2.9,  999.0,  999.0,  999.0,  999.0,  999.0,  999.0,  999.0,  999.0,  999.0,  999.0,  999.0,  999.0,  999.0,  999.0,  999.0,  999.0,  999.0,  999.0,  999.0,  999.0,  999.0,  999.0,  999.0,  999.0,  999.0,  999.0,   -2.8,  999.0,  999.0,  999.0,  999.0,  999.0,  999.0,  999.0,  999.0,  999.0,  999.0,  999.0,  999.0,  999.0,  999.0,  999.0,  999.0,  999.0,  999.0,  999.0,  999.0,  999.0,  999.0
2006/11/17 12:10,   -8.8,   -8.4,   -7.9,   -7.8,  -11.0,   -7.4,   -8.9,   -9.5,  -10.2,  -13.9,   -9.9,   -9.8,   -9.6,  -11.6,  -10.8,   -7.9,   -5.7,   -4.2,   -4.0,   -4.7,   -4.8,   -6.0,   -7.4,   -6.9,   -5.8,   -2.9,   -3.0,   -2.9,   -2.7,   -3.0,   -3.8,   -4.1,   -3.2,   -2.9,   -3.0,   -3.0,   -2.4,   -2.7,   -2.3,   -3.2,   -3.4,   -3.1,   -2.3,   -2.1,   -2.1,   -1.5,   -1.7,   -2.7,   -3.8,   -4.7,   -3.9,   -4.7,   -5.0,   -4.5,   -4.3,   -4.1,   -3.9,   -4.4,   -4.3,  999.0,   -2.1,   -2.2,   -0.6,    0.1,    0.0,    0.1,    0.1,    0.3,   -0.1,   -0.1,   -3.8,  999.0,  999.0,  999.0,  999.0,  999.0,  999.0,  999.0,  999.0,  999.0,  999.0,  999.0,  999.0,  999.0,  999.0,  999.0,  999.0,  999.0,   -0.8,  999.0,  999.0,  999.0,  999.0,  999.0,  999.0,  999.0,   -0.3,  999.0,   -3.6,  999.0,  999.0,   -4.9,  999.0,  999.0,  999.0,  999.0,  999.0,  999.0,  999.0,  999.0,    1.5,  999.0,  999.0,  999.0,  999.0,  999.0,  999.0,  999.0,  999.0,  999.0
2006/11/17 12:20,   -9.5,   -9.5,   -8.3,   -8.7,   -8.9,   -9.1,   -8.7,   -8.5,   -8.6,   -8.4,  999.0,   -8.7,   -9.5,   -9.2,   -8.2,   -8.1,   -6.4,   -6.1,   -6.1,   -6.1,   -4.4,   -5.5,   -6.8,   -7.2,   -6.0,   -3.7,   -4.3,   -3.0,   -4.1,   -3.9,   -5.9,   -6.6,   -4.8,   -5.9,   -3.9,   -4.1,   -2.9,   -2.9,   -2.9,   -3.6,   -4.1,   -3.3,   -2.6,   -2.3,   -2.0,   -1.5,   -1.7,   -3.1,   -3.8,   -5.0,   -4.0,   -4.6,   -5.0,   -4.8,   -4.6,   -3.7,   -3.4,   -3.6,   -3.7,   -2.1,   -0.7,   -1.0,   -0.2,   -1.7,   -0.1,   -0.1,    0.2,    0.2,   -0.0,   -1.0,   -3.9,  999.0,  999.0,  999.0,  999.0,  999.0,  999.0,  999.0,   -5.3,  999.0,  999.0,  999.0,   -2.3,   -1.8,  999.0,  999.0,  999.0,  999.0,  999.0,  999.0,  999.0,   -4.0,  999.0,  999.0,  999.0,  999.0,    0.4,   -0.2,   -3.3,  999.0,   -2.1,   -4.8,  999.0,  999.0,  999.0,  999.0,  999.0,  999.0,  999.0,  999.0,  999.0,  999.0,  999.0,  999.0,  999.0,  999.0,  999.0,  999.0,  999.0,  999.0
2006/11/17 12:30,  -10.4,  -10.1,   -9.8,  -10.8,  -10.1,   -9.5,   -9.9,   -9.1,   -8.7,   -8.4,   -6.5,   -8.5,   -9.0,   -9.0,   -9.1,   -7.2,   -6.2,   -6.0,   -7.0,   -5.9,   -6.1,   -7.4,   -7.3,   -7.4,   -6.1,   -3.9,   -5.0,   -4.0,   -4.8,   -3.9,   -5.2,   -5.7,   -5.6,   -4.7,   -3.2,   -2.9,   -2.4,   -2.3,   -2.9,   -3.2,   -3.7,   -2.8,   -2.5,   -2.5,   -1.6,   -1.8,   -1.6,   -2.9,   -3.8,   -5.6,   -4.5,   -5.2,   -5.2,   -5.0,   -4.7,   -3.7,   -3.0,   -2.7,   -2.8,   -2.3,   -1.6,   -1.0,   -0.3,   -1.9,   -1.0,   -0.1,   -0.1,   -0.1,   -0.0,   -1.8,   -4.2,   -2.4,   -4.0,  999.0,  999.0,  999.0,  999.0,   -5.8,   -5.2,  999.0,  999.0,  999.0,   -2.2,   -1.9,  999.0,  999.0,  999.0,  999.0,  999.0,  999.0,  999.0,  999.0,  999.0,  999.0,  999.0,  999.0,    0.3,  999.0,   -3.3,  999.0,  999.0,   -5.4,  999.0,  999.0,  999.0,  999.0,  999.0,  999.0,  999.0,  999.0,  999.0,  999.0,  999.0,  999.0,  999.0,  999.0,  999.0,  999.0,  999.0,  999.0
2006/11/17 12:40,   -9.9,   -9.8,  -10.0,  -10.4,  -10.4,   -9.8,  -10.3,  -10.5,  -10.9,  -10.3,  -11.4,  -10.7,  -10.9,  -11.5,  -10.7,   -8.2,   -7.0,   -7.4,   -6.5,   -6.3,   -7.0,   -7.7,   -7.3,   -6.3,   -6.2,   -5.3,   -4.7,   -5.4,   -5.0,   -4.0,   -5.1,   -4.8,   -5.5,   -5.3,   -4.9,   -3.5,   -2.5,   -1.6,   -2.3,   -2.8,   -3.6,   -3.1,   -3.0,   -3.2,   -2.4,   -1.5,   -1.6,   -2.6,   -3.4,   -5.7,   -5.7,   -5.0,   -5.2,   -4.4,   -4.0,   -3.3,   -2.5,   -2.1,   -2.3,   -1.5,   -0.9,  999.0,   -0.6,  999.0,   -2.8,    0.1,   -0.3,   -0.1,   -0.9,   -1.3,   -4.7,  999.0,  999.0,  999.0,  999.0,  999.0,  999.0,  999.0,  999.0,  999.0,  999.0,   -2.5,  999.0,   -0.7,  999.0,  999.0,   -0.5,  999.0,  999.0,  999.0,  999.0,  999.0,  999.0,  999.0,  999.0,  999.0,  999.0,   -1.8,  999.0,  999.0,  999.0,  999.0,  999.0,  999.0,  999.0,  999.0,  999.0,  999.0,  999.0,  999.0,  999.0,  999.0,  999.0,  999.0,  999.0,  999.0,  999.0,  999.0,  999.0,  999.0
2006/11/17 12:50,   -8.4,   -9.6,   -9.3,  -10.1,  -10.3,   -9.7,   -9.7,  -10.0,  -10.6,  -10.8,  -12.0,  -12.2,  -12.6,  -13.2,  -12.0,   -9.5,   -7.0,   -7.1,   -6.4,   -6.2,   -6.9,   -7.5,   -6.9,   -5.9,   -5.4,   -5.2,   -4.3,   -4.3,   -3.2,   -3.3,   -3.7,   -4.4,   -5.1,   -4.9,   -4.8,   -3.6,   -2.4,   -1.9,   -2.3,   -3.3,   -3.9,   -3.7,   -3.4,   -3.4,   -2.7,   -1.8,   -1.2,   -1.3,   -2.6,   -4.6,   -5.1,   -4.5,   -4.8,   -4.1,   -3.7,   -2.8,   -2.2,   -2.4,   -2.2,   -2.0,  999.0,   -0.7,   -0.9,  999.0,   -0.4,   -0.0,   -0.1,  999.0,   -2.6,   -1.6,  999.0,  999.0,  999.0,  999.0,  999.0,  999.0,  999.0,  999.0,  999.0,  999.0,  999.0,  999.0,  999.0,   -0.5,  999.0,  999.0,  999.0,  999.0,  999.0,  999.0,  999.0,  999.0,  999.0,  999.0,  999.0,  999.0,  999.0,   -2.2,  999.0,  999.0,  999.0,  999.0,  999.0,  999.0,  999.0,  999.0,  999.0,  999.0,  999.0,  999.0,  999.0,  999.0,  999.0,  999.0,  999.0,  999.0,  999.0,  999.0,  999.0,  999.0
2006/11/17 13:00,   -7.6,   -9.2,  -10.7,   -9.8,  -10.0,   -9.8,   -9.9,   -9.7,  -10.0,  -10.5,  -11.2,  -11.9,  -12.2,  -12.2,  -12.0,  -10.4,   -7.0,   -6.4,   -7.1,   -6.3,   -6.5,   -7.4,   -7.5,   -6.5,   -5.8,   -6.0,   -6.5,   -6.1,   -4.5,   -3.8,   -3.4,   -3.4,   -3.8,   -4.0,   -3.5,   -2.6,   -2.2,   -1.5,   -2.1,   -3.2,   -3.6,   -3.5,   -2.9,   -3.0,   -2.5,   -2.1,   -1.8,   -1.7,   -2.6,   -4.6,   -5.0,   -4.6,   -4.3,   -3.7,   -3.2,   -2.1,   -2.1,   -2.4,   -2.3,  999.0,  999.0,   -1.4,   -1.5,   -0.8,    0.1,   -0.1,    0.1,   -0.9,   -2.0,   -1.0,  999.0,  999.0,  999.0,  999.0,  999.0,  999.0,  999.0,  999.0,  999.0,  999.0,  999.0,  999.0,   -1.7,   -0.3,  999.0,  999.0,  999.0,  999.0,  999.0,  999.0,  999.0,  999.0,  999.0,  999.0,  999.0,  999.0,  999.0,  999.0,   -2.0,  999.0,  999.0,  999.0,  999.0,  999.0,  999.0,  999.0,  999.0,  999.0,  999.0,  999.0,  999.0,  999.0,  999.0,  999.0,  999.0,  999.0,  999.0,  999.0,  999.0,  999.0
2006/11/17 13:10,   -8.1,   -8.4,   -8.8,   -8.7,   -9.4,   -9.3,   -9.8,  -10.2,   -9.8,  -10.0,   -9.4,   -9.5,   -9.7,  -10.0,  -10.0,   -8.9,   -6.5,   -5.9,   -7.0,   -6.0,   -6.2,   -7.6,   -7.7,   -6.5,   -6.1,   -6.2,   -6.6,   -6.9,   -4.9,   -3.3,   -2.9,   -3.1,   -2.7,   -2.2,   -2.5,   -2.2,   -1.3,   -1.1,   -2.4,   -4.0,   -4.4,   -3.5,   -2.5,   -2.3,   -1.4,   -1.0,   -0.8,   -0.9,   -2.2,   -4.0,   -5.2,   -5.0,   -4.8,   -4.0,   -3.3,   -2.1,   -1.8,   -2.2,   -2.4,   -1.2,    0.3,   -1.3,   -1.5,   -0.8,    0.1,   -0.4,   -0.5,  999.0,   -0.3,   -2.1,  999.0,  999.0,   -4.4,   -5.0,  999.0,  999.0,  999.0,  999.0,  999.0,  999.0,   -3.6,  999.0,  999.0,  999.0,  999.0,  999.0,  999.0,  999.0,  999.0,  999.0,  999.0,  999.0,  999.0,  999.0,  999.0,  999.0,  999.0,  999.0,   -1.8,  999.0,  999.0,  999.0,  999.0,  999.0,  999.0,  999.0,  999.0,  999.0,  999.0,  999.0,  999.0,  999.0,  999.0,  999.0,  999.0,  999.0,  999.0,  999.0,  999.0,  999.0
2006/11/17 13:20,   -8.1,   -7.5,   -7.8,   -8.1,   -8.4,   -9.2,   -9.1,   -9.5,   -9.3,   -9.3,   -9.4,   -8.5,   -8.5,   -9.1,   -9.0,   -8.1,   -7.0,   -5.5,   -5.4,   -6.1,   -5.6,   -7.0,   -6.8,   -6.7,   -6.8,   -7.4,   -7.4,   -7.9,   -5.9,   -4.6,   -3.8,   -3.5,   -4.1,   -4.1,   -4.0,   -3.0,   -1.7,   -1.8,   -2.9,   -4.0,   -4.2,   -3.5,   -2.8,   -2.9,   -2.2,   -2.1,   -2.2,   -2.4,   -4.2,   -5.3,   -6.6,   -6.5,   -5.2,   -4.4,   -3.9,   -2.0,   -2.7,   -2.7,   -3.2,   -1.4,   -0.9,   -2.6,   -0.5,   -1.6,   -0.5,   -0.1,   -0.3,   -2.1,   -1.0,   -0.9,   -3.6,   -6.5,  999.0,    1.2,  999.0,  999.0,  999.0,  999.0,  999.0,  999.0,  999.0,  999.0,  999.0,  999.0,  999.0,  999.0,  999.0,  999.0,  999.0,  999.0,  999.0,  999.0,  999.0,  999.0,  999.0,  999.0,  999.0,  999.0,   -1.6,  999.0,  999.0,  999.0,  999.0,  999.0,  999.0,  999.0,  999.0,  999.0,   -1.2,  999.0,  999.0,  999.0,  999.0,  999.0,  999.0,  999.0,  999.0,  999.0,  999.0,  999.0
2006/11/17 13:30,   -6.4,   -6.9,   -8.2,   -8.1,  -10.2,  -11.0,  -11.0,  -10.9,  -10.2,  -10.5,  -11.1,  -10.6,  -11.7,  -11.6,  -12.1,  -11.1,   -9.8,   -8.2,   -6.8,   -7.1,   -7.0,   -7.1,   -6.9,   -5.8,   -5.5,   -5.6,   -6.0,   -5.3,   -4.3,   -4.3,   -4.4,   -4.6,   -5.0,   -4.3,   -4.4,   -3.3,   -2.2,   -0.8,   -1.7,   -1.7,   -2.5,   -2.6,   -2.6,   -3.1,   -2.0,   -2.5,   -2.5,   -3.4,   -5.0,   -6.6,   -7.7,   -7.5,   -5.9,   -4.8,   -4.0,   -2.9,   -1.7,   -3.0,   -2.6,   -3.4,  999.0,   -2.6,   -0.1,   -1.8,   -1.9,    0.0,   -0.1,   -4.0,   -0.7,   -2.9,   -5.9,   -7.4,  999.0,  999.0,  999.0,  999.0,  999.0,  999.0,  999.0,  999.0,  999.0,  999.0,  999.0,  999.0,  999.0,  999.0,  999.0,  999.0,  999.0,  999.0,  999.0,  999.0,  999.0,  999.0,  999.0,  999.0,  999.0,  999.0,   -1.2,  999.0,  999.0,  999.0,  999.0,  999.0,  999.0,  999.0,  999.0,  999.0,  999.0,  999.0,  999.0,  999.0,  999.0,  999.0,  999.0,  999.0,  999.0,  999.0,  999.0,  999.0
2006/11/17 13:40,   -6.4,   -7.2,   -9.0,  -10.1,  -11.0,  -10.6,  -11.0,  -10.6,  -10.9,  -10.3,  -10.2,  -10.0,  -11.5,  -11.4,  -11.4,  -10.3,   -9.4,   -8.4,   -6.3,   -6.9,   -7.1,   -7.3,   -6.2,   -5.2,   -4.0,   -4.6,   -4.9,   -4.3,   -3.9,   -4.2,   -4.4,   -6.1,   -6.8,   -5.8,   -5.3,   -4.3,   -3.2,   -2.7,   -4.1,   -4.2,   -4.4,   -3.6,   -3.5,   -3.2,   -2.2,   -2.0,   -2.1,   -3.2,   -4.5,   -5.7,   -6.2,   -6.4,   -5.7,   -4.4,   -3.5,   -3.2,   -1.8,   -2.8,   -2.7,   -3.0,  999.0,   -2.1,   -1.6,   -2.9,   -2.0,   -0.1,   -0.5,   -3.5,  999.0,   -3.7,   -6.5,  999.0,  999.0,  999.0,  999.0,  999.0,  999.0,  999.0,  999.0,  999.0,  999.0,  999.0,  999.0,  999.0,  999.0,  999.0,  999.0,  999.0,  999.0,  999.0,  999.0,  999.0,  999.0,  999.0,  999.0,  999.0,  999.0,  999.0,  999.0,  999.0,  999.0,  999.0,  999.0,  999.0,  999.0,  999.0,  999.0,  999.0,  999.0,  999.0,  999.0,  999.0,  999.0,  999.0,  999.0,  999.0,  999.0,  999.0,  999.0,  999.0
2006/11/17 13:50,   -5.8,   -7.1,   -7.8,  -10.2,  -10.5,  -10.3,  -10.7,   -9.6,   -9.8,  -10.3,   -9.9,   -9.4,   -9.3,   -9.0,   -8.9,   -9.3,   -8.9,   -6.8,   -5.6,   -5.4,   -6.6,   -7.0,   -5.5,   -4.3,   -3.8,   -4.5,   -5.3,   -5.3,   -4.5,   -4.3,   -4.3,   -5.4,   -6.3,   -5.4,   -5.1,   -3.9,   -2.5,   -2.8,   -3.6,   -4.1,   -3.8,   -3.8,   -3.9,   -3.5,   -2.6,   -2.3,   -2.4,   -3.8,   -5.0,   -4.4,   -5.9,   -6.2,   -5.6,   -4.5,   -3.7,   -2.6,   -2.3,   -3.1,   -2.9,   -1.5,  999.0,  999.0,   -2.4,  999.0,   -0.0,    0.1,   -0.6,  999.0,   -2.9,   -4.9,  999.0,  999.0,  999.0,  999.0,  999.0,  999.0,  999.0,  999.0,  999.0,  999.0,  999.0,  999.0,  999.0,  999.0,  999.0,  999.0,  999.0,  999.0,  999.0,  999.0,  999.0,  999.0,  999.0,  999.0,  999.0,  999.0,  999.0,  999.0,  999.0,  999.0,  999.0,  999.0,  999.0,  999.0,  999.0,  999.0,  999.0,  999.0,  999.0,  999.0,  999.0,  999.0,  999.0,  999.0,  999.0,  999.0,  999.0,  999.0,  999.0,  999.0
2006/11/17 14:00,   -8.3,   -8.5,   -9.4,  -10.0,  -10.0,   -9.7,   -9.4,   -9.5,   -9.7,  -10.1,   -9.8,   -9.2,   -9.7,  -10.2,  -10.2,   -9.7,   -9.2,   -7.1,   -6.9,   -5.9,   -7.4,   -8.0,   -6.4,   -5.7,   -5.2,   -5.8,   -6.4,   -6.8,   -6.4,   -5.3,   -4.3,   -4.7,   -5.6,   -4.9,   -4.5,   -3.7,   -2.3,   -2.3,   -2.9,   -3.5,   -3.1,   -3.0,   -2.2,   -1.9,   -2.0,   -2.2,   -1.8,   -2.3,   -4.0,   -4.6,   -4.6,   -4.5,   -3.7,   -3.5,   -2.6,   -1.1,   -2.1,   -2.5,  999.0,  999.0,   -2.4,   -2.8,   -2.5,  999.0,    0.0,    0.1,    0.0,  999.0,   -4.5,  999.0,  999.0,  999.0,  999.0,  999.0,  999.0,  999.0,  999.0,  999.0,  999.0,   -1.7,  999.0,  999.0,  999.0,  999.0,  999.0,  999.0,  999.0,  999.0,  999.0,  999.0,  999.0,  999.0,  999.0,  999.0,  999.0,  999.0,  999.0,  999.0,   -1.9,  999.0,  999.0,  999.0,  999.0,  999.0,  999.0,  999.0,  999.0,  999.0,  999.0,  999.0,  999.0,  999.0,  999.0,  999.0,  999.0,  999.0,  999.0,  999.0,  999.0,  999.0
2006/11/17 14:10,   -7.4,   -7.9,   -9.5,   -9.8,   -9.6,   -9.5,   -9.6,   -9.7,  -10.3,  -10.2,   -9.8,   -9.7,  -10.1,  -10.2,  -10.6,  -10.2,  -10.3,   -9.4,   -7.8,   -6.5,   -7.7,   -8.2,   -6.9,   -6.4,   -5.5,   -5.0,   -5.1,   -4.8,   -4.5,   -4.1,   -3.9,   -4.1,   -5.1,   -5.1,   -4.6,   -3.3,   -1.1,   -1.0,   -1.6,   -2.0,   -2.1,   -2.5,   -2.5,   -2.7,   -2.4,   -2.3,   -2.4,   -4.2,   -5.2,   -4.7,   -5.7,   -4.5,   -3.5,   -2.5,   -1.5,   -1.5,   -2.1,   -2.5,  999.0,  999.0,   -2.2,   -3.7,   -2.4,  999.0,   -0.2,    0.0,   -0.2,  999.0,   -3.9,  999.0,  999.0,  999.0,  999.0,  999.0,   -7.8,  999.0,  999.0,  999.0,  999.0,  999.0,  999.0,  999.0,  999.0,  999.0,  999.0,  999.0,  999.0,  999.0,  999.0,  999.0,  999.0,  999.0,  999.0,  999.0,  999.0,  999.0,  999.0,  999.0,  999.0,  999.0,  999.0,  999.0,  999.0,  999.0,  999.0,  999.0,  999.0,  999.0,  999.0,  999.0,  999.0,  999.0,  999.0,  999.0,  999.0,  999.0,  999.0,  999.0,  999.0,  999.0
2006/11/17 14:20,   -5.9,   -7.9,  -10.3,  -10.1,   -9.1,   -9.5,   -9.4,   -9.1,   -9.2,   -9.4,   -9.2,   -9.3,   -9.1,   -9.5,   -9.8,   -9.5,   -9.3,   -8.3,   -4.6,   -4.3,   -5.8,   -6.1,   -5.8,   -4.3,   -4.0,   -3.5,   -4.0,   -4.1,   -4.2,   -3.2,   -3.5,   -3.9,   -4.9,   -4.4,   -4.1,   -2.7,   -1.1,   -1.4,   -1.9,   -2.4,   -2.1,   -2.6,   -2.6,   -2.4,   -2.8,   -3.0,   -3.0,   -4.5,   -5.3,   -4.6,   -5.6,   -4.9,   -3.4,   -1.9,   -1.2,   -1.4,   -2.2,   -2.4,   -2.5,  999.0,   -2.4,   -3.3,   -1.4,  999.0,    0.0,    0.0,   -0.3,   -0.6,   -3.3,  999.0,  999.0,  999.0,  999.0,  999.0,  999.0,  999.0,  999.0,  999.0,  999.0,  999.0,  999.0,  999.0,  999.0,  999.0,  999.0,  999.0,  999.0,  999.0,  999.0,  999.0,  999.0,  999.0,  999.0,  999.0,  999.0,  999.0,  999.0,  999.0,  999.0,  999.0,  999.0,  999.0,  999.0,  999.0,  999.0,  999.0,  999.0,  999.0,  999.0,  999.0,  999.0,  999.0,  999.0,  999.0,  999.0,  999.0,  999.0,  999.0,  999.0,  999.0
2006/11/17 14:30,   -6.5,   -8.7,   -9.6,   -9.2,   -9.2,   -9.4,   -9.9,   -9.3,   -9.5,   -9.4,   -9.4,   -8.7,   -8.4,   -8.6,   -9.7,  -10.1,   -9.2,   -7.7,   -4.6,   -4.3,   -5.1,   -5.7,   -5.2,   -4.2,   -4.2,   -4.9,   -5.6,   -7.4,   -6.7,   -5.7,   -5.4,   -5.0,   -4.9,   -3.9,   -3.3,   -2.3,   -1.5,   -1.8,   -2.7,   -3.1,   -2.8,   -2.9,   -2.4,   -2.2,   -2.0,   -2.3,   -2.4,   -3.6,   -4.4,   -4.5,   -4.1,   -5.1,   -2.9,   -2.5,   -1.6,   -1.7,   -2.3,   -1.5,   -2.0,  999.0,   -1.1,  999.0,   -0.9,   -1.0,   -0.2,   -0.1,   -0.1,   -0.5,   -3.4,   -3.4,  999.0,  999.0,  999.0,  999.0,  999.0,  999.0,  999.0,  999.0,  999.0,  999.0,  999.0,  999.0,  999.0,  999.0,  999.0,   -3.3,  999.0,  999.0,  999.0,  999.0,  999.0,  999.0,  999.0,  999.0,  999.0,  999.0,    2.1,  999.0,  999.0,  999.0,   -1.8,  999.0,  999.0,  999.0,  999.0,  999.0,  999.0,  999.0,  999.0,  999.0,  999.0,  999.0,  999.0,  999.0,  999.0,  999.0,  999.0,  999.0,  999.0,  999.0
2006/11/17 14:40,   -4.5,   -7.1,   -7.8,   -7.5,   -8.2,   -9.0,  -10.4,   -9.7,   -9.7,   -9.6,   -9.6,   -9.2,   -9.1,   -9.5,   -9.9,  -10.8,  -10.4,   -9.3,   -6.7,   -7.3,   -7.5,   -7.6,   -7.5,   -6.7,   -6.3,   -7.2,   -7.8,   -8.2,   -7.2,   -5.7,   -5.7,   -6.1,   -6.2,   -5.5,   -3.4,   -2.7,   -1.9,   -1.9,   -2.1,   -3.0,   -2.8,   -3.1,   -2.8,   -2.5,   -2.4,   -2.4,   -3.0,   -4.1,   -4.8,   -5.0,   -4.6,   -2.9,   -2.6,   -2.3,   -1.7,   -1.9,   -2.3,   -2.7,   -2.7,   -1.7,   -0.1,   -1.9,  999.0,   -3.2,   -0.0,    0.0,   -0.1,   -1.5,   -1.0,  999.0,  999.0,  999.0,  999.0,  999.0,  999.0,  999.0,  999.0,  999.0,  999.0,  999.0,  999.0,  999.0,  999.0,  999.0,  999.0,  999.0,  999.0,  999.0,  999.0,  999.0,  999.0,  999.0,  999.0,  999.0,  999.0,  999.0,    0.9,  999.0,  999.0,  999.0,  999.0,  999.0,  999.0,  999.0,  999.0,  999.0,  999.0,  999.0,  999.0,  999.0,  999.0,  999.0,  999.0,  999.0,  999.0,  999.0,  999.0,  999.0,  999.0,  999.0
2006/11/17 14:50,   -4.5,   -4.9,   -6.8,   -7.7,   -8.5,   -8.6,   -9.0,   -7.9,   -8.0,   -8.1,   -8.5,   -9.1,   -8.6,   -9.1,   -9.8,  -10.9,  -11.1,  -10.1,   -8.0,   -8.7,   -9.3,   -9.1,   -7.6,   -7.0,   -6.9,   -7.3,   -7.3,   -7.4,   -6.1,   -4.4,   -5.5,   -6.7,   -6.9,   -6.9,   -4.8,   -3.4,   -1.9,   -1.8,   -1.2,   -1.6,   -2.0,   -2.2,   -1.9,   -2.2,   -2.1,   -2.1,   -3.1,   -4.0,   -3.5,   -4.4,   -3.2,   -2.4,   -2.7,   -1.5,   -1.6,   -1.8,   -1.9,   -1.8,   -2.8,   -1.2,   -1.5,  999.0,   -1.4,   -3.1,   -0.1,   -0.1,  999.0,   -3.7,   -4.7,  999.0,  999.0,  999.0,  999.0,  999.0,   -7.2,  999.0,  999.0,  999.0,  999.0,  999.0,  999.0,  999.0,  999.0,  999.0,  999.0,  999.0,  999.0,  999.0,  999.0,  999.0,  999.0,  999.0,  999.0,  999.0,  999.0,  999.0,   -0.3,  999.0,  999.0,  999.0,  999.0,  999.0,  999.0,  999.0,  999.0,  999.0,  999.0,  999.0,  999.0,  999.0,  999.0,  999.0,  999.0,  999.0,  999.0,  999.0,  999.0,  999.0,  999.0,  999.0
2006/11/17 15:00,   -5.5,   -6.0,   -6.7,   -7.5,   -8.0,   -8.6,   -9.2,   -8.4,   -8.4,   -8.2,   -7.9,   -8.8,   -9.1,   -9.3,  -10.0,  -10.5,  -11.5,   -9.8,   -7.7,   -7.8,   -7.5,   -7.2,   -5.9,   -5.2,   -6.1,   -5.8,   -6.5,   -6.8,   -6.3,   -4.9,   -5.5,   -5.5,   -6.2,   -6.7,   -6.3,   -5.2,   -1.8,   -1.8,   -2.1,   -2.4,   -2.5,   -2.6,   -2.0,   -2.3,   -2.3,   -3.4,   -3.9,   -4.4,   -5.2,   -4.0,   -2.8,   -2.4,   -2.0,   -1.0,   -1.2,   -1.1,   -1.4,   -1.3,   -0.9,   -1.6,   -2.1,  999.0,   -4.1,   -3.1,  999.0,  999.0,  999.0,   -4.1,   -2.6,  999.0,  999.0,  999.0,  999.0,   -7.6,  999.0,  999.0,  999.0,   -5.7,  999.0,  999.0,  999.0,  999.0,  999.0,  999.0,  999.0,  999.0,  999.0,  999.0,  999.0,  999.0,  999.0,  999.0,  999.0,  999.0,  999.0,  999.0,    0.4,  999.0,   -1.6,  999.0,  999.0,  999.0,  999.0,  999.0,  999.0,  999.0,  999.0,  999.0,  999.0,  999.0,  999.0,  999.0,  999.0,  999.0,  999.0,  999.0,  999.0,  999.0,  999.0,  999.0
2006/11/17 15:10,   -5.9,   -6.8,   -7.9,   -8.6,   -8.8,   -9.3,   -8.9,   -9.4,   -9.5,   -9.2,   -8.9,   -9.0,   -9.1,  -10.1,  -10.7,  -11.2,  -11.5,  -10.0,   -7.6,   -7.7,   -6.7,   -6.5,   -5.1,   -4.5,   -3.9,   -5.6,   -6.1,   -5.9,   -6.7,   -6.1,   -5.6,   -5.8,   -6.6,   -6.1,   -6.1,   -4.7,   -2.3,   -1.4,   -2.4,   -2.3,   -2.4,   -2.6,   -2.6,   -3.1,   -3.3,   -4.2,   -5.1,   -5.5,   -5.5,   -4.1,   -3.3,   -3.0,   -1.6,   -2.0,   -2.1,   -2.3,   -2.2,   -2.3,   -2.2,  999.0,  999.0,   -4.9,   -2.3,  999.0,  999.0,   -0.1,    0.1,   -4.5,   -2.6,  999.0,  999.0,  999.0,  999.0,  999.0,  999.0,  999.0,  999.0,  999.0,  999.0,  999.0,  999.0,  999.0,  999.0,  999.0,  999.0,  999.0,  999.0,  999.0,  999.0,  999.0,  999.0,  999.0,  999.0,  999.0,  999.0,  999.0,  999.0,    0.4,   -1.8,  999.0,  999.0,  999.0,  999.0,  999.0,  999.0,  999.0,  999.0,  999.0,  999.0,    2.6,    2.5,  999.0,  999.0,  999.0,  999.0,  999.0,  999.0,  999.0,  999.0,  999.0
2006/11/17 15:20,   -6.0,   -5.9,   -7.7,   -8.7,   -9.2,   -9.4,   -8.4,   -9.6,   -9.8,  -10.1,  -10.2,  -10.0,  -10.0,  -10.8,  -10.8,  -11.3,  -11.1,   -9.8,   -8.0,   -7.9,   -6.8,   -6.4,   -5.2,   -4.6,   -4.6,   -5.3,   -5.7,   -5.9,   -6.6,   -5.7,   -5.1,   -5.4,   -5.6,   -5.4,   -4.5,   -3.5,   -1.8,   -2.2,   -2.6,   -2.7,   -2.7,   -2.4,   -2.3,   -2.3,   -2.4,   -2.6,   -3.4,   -3.8,   -4.7,   -3.5,   -2.5,   -1.7,   -1.8,   -1.5,   -1.2,   -1.6,   -1.8,   -1.4,   -1.0,   -1.9,   -3.2,   -3.8,   -0.2,   -0.1,   -0.0,   -0.4,   -1.0,   -5.3,  999.0,   -3.4,  999.0,  999.0,  999.0,  999.0,  999.0,  999.0,  999.0,  999.0,  999.0,  999.0,  999.0,  999.0,  999.0,  999.0,  999.0,  999.0,  999.0,  999.0,  999.0,  999.0,  999.0,  999.0,  999.0,  999.0,  999.0,  999.0,  999.0,   -0.4,  999.0,  999.0,  999.0,  999.0,  999.0,  999.0,  999.0,  999.0,  999.0,   -1.0,  999.0,  999.0,  999.0,  999.0,  999.0,  999.0,  999.0,  999.0,  999.0,  999.0,  999.0,  999.0
2006/11/17 15:30,   -5.9,   -6.9,   -6.8,   -8.6,   -9.0,   -9.6,   -9.7,  -10.2,  -10.7,  -11.8,  -11.7,  -10.9,  -10.9,  -11.4,  -11.5,  -11.9,  -10.5,   -7.8,   -6.5,   -6.1,   -5.7,   -5.6,   -4.3,   -4.0,   -4.7,   -4.9,   -5.7,   -5.8,   -6.5,   -5.2,   -4.6,   -4.8,   -5.6,   -5.5,   -5.5,   -4.2,   -2.3,   -1.7,   -2.4,   -2.7,   -3.0,   -2.8,   -2.9,   -2.4,   -2.3,   -2.3,   -2.9,   -3.1,   -4.2,   -2.6,   -2.4,   -1.6,   -1.7,   -1.8,   -1.8,   -2.3,   -1.4,   -1.4,   -2.4,   -1.5,   -4.3,   -3.0,    0.1,   -0.0,    0.0,   -0.1,   -1.5,   -3.1,  999.0,   -0.1,  999.0,  999.0,  999.0,  999.0,  999.0,  999.0,   -1.9,   -1.6,  999.0,  999.0,  999.0,  999.0,  999.0,  999.0,  999.0,  999.0,  999.0,  999.0,  999.0,  999.0,  999.0,  999.0,  999.0,  999.0,  999.0,  999.0,  999.0,   -0.5,    0.0,  999.0,  999.0,  999.0,  999.0,   -1.5,  999.0,  999.0,  999.0,  999.0,  999.0,  999.0,  999.0,  999.0,  999.0,  999.0,  999.0,  999.0,  999.0,  999.0,  999.0,  999.0
2006/11/17 15:40,   -7.0,   -8.2,   -8.6,   -8.6,   -9.2,   -9.5,   -9.7,   -9.7,   -9.8,  -10.7,  -10.5,  -10.3,  -10.7,  -10.8,  -10.7,  -11.2,   -9.8,   -7.8,   -6.0,   -5.6,   -4.8,   -4.8,   -3.8,   -3.4,   -3.5,   -3.6,   -4.5,   -4.9,   -5.5,   -5.0,   -5.4,   -5.9,   -6.6,   -7.1,   -7.0,   -4.9,   -2.8,   -2.0,   -2.5,   -3.4,   -3.0,   -2.6,   -2.6,   -2.3,   -2.0,   -2.0,   -2.7,   -3.0,   -3.6,   -1.8,   -2.2,   -1.5,   -1.4,   -2.0,   -2.3,   -3.2,   -3.0,   -1.5,   -2.5,   -3.1,   -3.9,  999.0,   -0.4,    0.0,   -0.1,   -0.3,   -1.6,  999.0,   -0.7,    0.0,  999.0,  999.0,  999.0,  999.0,  999.0,  999.0,  999.0,  999.0,  999.0,  999.0,  999.0,  999.0,  999.0,  999.0,  999.0,  999.0,  999.0,  999.0,  999.0,  999.0,  999.0,  999.0,  999.0,  999.0,  999.0,  999.0,  999.0,    1.1,  999.0,  999.0,  999.0,  999.0,  999.0,  999.0,  999.0,  999.0,  999.0,  999.0,  999.0,  999.0,  999.0,  999.0,  999.0,  999.0,  999.0,  999.0,  999.0,  999.0,  999.0,  999.0
2006/11/17 15:50,   -5.7,   -7.6,   -9.3,   -9.4,   -9.4,   -8.9,   -9.2,   -9.2,   -9.8,  -10.8,  -10.6,  -10.7,  -10.5,  -10.5,  -10.1,  -10.7,  -11.0,   -9.0,   -6.5,   -5.7,   -4.6,   -4.2,   -5.0,   -4.7,   -4.6,   -4.9,   -5.7,   -5.9,   -6.0,   -4.9,   -5.6,   -6.2,   -5.7,   -6.4,   -6.8,   -5.2,   -3.6,   -2.4,   -3.1,   -3.4,   -3.2,   -2.7,   -1.9,   -2.0,   -1.3,   -1.9,   -3.1,   -3.5,   -3.9,   -2.9,   -1.8,   -1.8,   -1.5,   -1.4,   -1.9,   -2.8,   -3.0,   -1.9,   -2.2,   -3.5,  999.0,  999.0,  999.0,  999.0,   -1.1,   -2.3,  999.0,  999.0,  999.0,    0.2,  999.0,  999.0,  999.0,  999.0,  999.0,  999.0,  999.0,   -5.5,  999.0,  999.0,  999.0,  999.0,  999.0,  999.0,  999.0,  999.0,  999.0,  999.0,  999.0,  999.0,  999.0,  999.0,  999.0,  999.0,   -0.6,  999.0,  999.0,    1.5,    2.0,   -0.5,  999.0,  999.0,   -6.4,  999.0,   -2.9,  999.0,  999.0,  999.0,  999.0,  999.0,  999.0,  999.0,  999.0,  999.0,  999.0,  999.0,  999.0,  999.0,  999.0,  999.0
2006/11/17 16:00,   -6.6,   -6.7,   -8.9,  -10.3,  -10.5,  -10.2,  -10.5,  -10.0,  -10.1,  -10.3,  -10.7,   -9.9,  -10.0,  -10.0,  -10.0,  -10.1,   -9.8,   -7.7,   -6.6,   -5.1,   -4.0,   -4.0,   -4.9,   -5.0,   -5.3,   -5.6,   -6.3,   -6.8,   -6.9,   -5.6,   -6.0,   -5.8,   -5.0,   -5.0,   -5.2,   -5.3,   -4.1,   -2.7,   -2.7,   -3.1,   -3.0,   -2.6,   -1.6,   -1.4,   -1.4,   -2.0,   -3.9,   -4.2,   -4.6,   -4.6,   -2.9,   -2.2,   -1.3,   -1.4,   -1.6,   -2.6,   -1.8,   -2.6,   -3.7,   -4.0,  999.0,  999.0,  999.0,   -3.5,  999.0,   -1.7,  999.0,  999.0,   -0.0,  999.0,  999.0,  999.0,  999.0,  999.0,  999.0,  999.0,  999.0,  999.0,  999.0,  999.0,  999.0,  999.0,  999.0,  999.0,  999.0,  999.0,  999.0,  999.0,  999.0,  999.0,  999.0,  999.0,  999.0,  999.0,  999.0,  999.0,  999.0,    2.6,    2.0,  999.0,  999.0,  999.0,  999.0,  999.0,  999.0,   -5.0,  999.0,  999.0,  999.0,  999.0,  999.0,  999.0,  999.0,  999.0,  999.0,  999.0,  999.0,  999.0,  999.0,  999.0
2006/11/17 16:10,   -6.3,   -6.6,   -7.6,  -10.2,  -10.4,  -10.7,  -10.8,  -10.3,  -10.4,  -10.7,  -10.6,  -11.6,  -11.0,  -10.6,  -11.2,  -10.4,   -9.1,   -6.1,   -5.3,   -5.1,   -4.8,   -4.3,   -4.6,   -4.5,   -4.7,   -5.1,   -5.6,   -6.3,   -6.5,   -5.9,   -6.0,   -5.1,   -4.7,   -4.3,   -4.3,   -4.3,   -3.7,   -2.6,   -2.3,   -2.5,   -2.4,   -1.7,   -1.3,   -1.2,   -1.3,   -2.5,   -3.6,   -4.0,   -4.8,   -4.8,   -2.9,   -2.2,   -1.8,   -1.3,   -1.1,   -1.6,   -1.4,   -1.8,   -3.9,   -4.6,   -3.2,  999.0,  999.0,   -3.3,  999.0,    0.3,   -0.3,  999.0,   -0.2,  999.0,  999.0,  999.0,  999.0,  999.0,  999.0,  999.0,  999.0,  999.0,  999.0,  999.0,  999.0,  999.0,  999.0,  999.0,  999.0,  999.0,  999.0,  999.0,  999.0,  999.0,  999.0,  999.0,  999.0,  999.0,  999.0,  999.0,  999.0,    2.9,    0.6,   -0.8,   -3.2,  999.0,  999.0,  999.0,  999.0,  999.0,  999.0,  999.0,  999.0,  999.0,  999.0,  999.0,  999.0,  999.0,  999.0,  999.0,  999.0,  999.0,  999.0,  999.0
2006/11/17 16:20,   -6.8,   -7.6,   -9.0,   -9.2,   -9.7,  -10.3,  -10.3,  -10.3,  -10.4,  -11.2,  -10.6,  -10.8,  -10.3,  -10.3,  -10.6,  -10.7,  -10.0,   -8.2,   -6.6,   -6.0,   -6.2,   -5.8,   -4.8,   -5.5,   -6.2,   -7.1,   -7.7,   -9.2,   -9.2,   -8.0,   -7.3,   -5.1,   -3.6,   -3.5,   -4.0,   -3.1,   -3.2,   -2.8,   -2.0,   -2.2,   -2.5,   -2.3,   -2.4,   -1.8,   -1.6,   -1.7,   -2.3,   -2.8,   -3.9,   -4.8,   -3.2,   -2.4,   -2.7,   -1.8,   -1.8,   -2.5,   -1.8,   -1.9,   -3.2,   -4.6,   -3.1,  999.0,  999.0,  999.0,  999.0,   -0.8,   -0.3,  999.0,   -0.2,   -0.5,  999.0,  999.0,  999.0,   -5.6,  999.0,   -2.7,  999.0,  999.0,  999.0,  999.0,  999.0,  999.0,  999.0,  999.0,  999.0,  999.0,  999.0,  999.0,  999.0,  999.0,  999.0,  999.0,  999.0,  999.0,  999.0,  999.0,  999.0,  999.0,   -0.2,   -0.9,  999.0,  999.0,  999.0,  999.0,  999.0,  999.0,  999.0,  999.0,  999.0,  999.0,  999.0,  999.0,  999.0,  999.0,  999.0,  999.0,    6.4,  999.0,  999.0,  999.0
2006/11/17 16:30,   -4.7,   -5.8,   -7.5,   -9.0,   -9.5,   -9.6,   -9.3,   -9.8,  -10.4,  -10.8,  -10.5,  -10.5,  -10.3,   -9.4,   -9.7,  -10.0,   -9.9,   -8.6,   -5.2,   -5.7,   -5.7,   -5.5,   -5.6,   -5.5,   -6.5,   -7.0,   -7.5,   -8.7,   -9.0,   -8.4,   -7.2,   -5.6,   -4.3,   -3.9,   -3.3,   -3.2,   -3.1,   -2.3,   -1.8,   -2.1,   -2.6,   -2.4,   -2.7,   -3.0,   -3.2,   -3.1,   -2.8,   -2.9,   -3.5,   -4.8,   -3.8,   -3.1,   -2.8,   -2.6,   -3.2,   -2.4,   -2.2,   -2.8,   -3.6,   -3.4,  999.0,   -4.2,   -0.5,  999.0,   -0.0,   -0.5,   -0.1,    0.3,  999.0,   -4.5,  999.0,  999.0,  999.0,  999.0,  999.0,  999.0,   -3.3,   -8.4,  999.0,  999.0,  999.0,  999.0,  999.0,  999.0,  999.0,  999.0,  999.0,  999.0,  999.0,  999.0,  999.0,  999.0,  999.0,    2.0,  999.0,  999.0,  999.0,    2.4,    2.2,  999.0,  999.0,  999.0,  999.0,  999.0,  999.0,  999.0,  999.0,  999.0,  999.0,  999.0,  999.0,  999.0,  999.0,  999.0,  999.0,  999.0,  999.0,  999.0,  999.0,  999.0
2006/11/17 16:40,   -3.0,   -5.0,   -6.4,   -7.5,   -8.7,   -9.3,   -9.4,  -10.7,  -11.2,  -11.2,  -11.4,  -11.6,  -11.7,  -11.2,  -11.3,  -12.0,  -10.9,  -10.1,   -7.9,   -8.3,   -7.0,   -6.0,   -5.8,   -5.4,   -5.5,   -5.8,   -5.6,   -5.9,   -6.3,   -6.5,   -5.4,   -4.1,   -4.2,   -3.6,   -2.9,   -2.1,   -2.2,   -2.6,   -1.7,   -2.3,   -3.0,   -2.7,   -2.5,   -2.2,   -2.6,   -2.4,   -2.9,   -3.0,   -4.3,   -4.4,   -2.9,   -2.7,   -2.1,   -2.2,   -2.4,   -2.2,   -3.5,   -3.7,   -4.6,  999.0,   -5.8,  999.0,  999.0,  999.0,  999.0,   -0.6,   -0.1,  999.0,  999.0,  999.0,  999.0,  999.0,  999.0,  999.0,   -9.6,   -7.5,   -5.2,  999.0,  999.0,  999.0,  999.0,  999.0,  999.0,  999.0,  999.0,  999.0,  999.0,  999.0,  999.0,  999.0,  999.0,  999.0,  999.0,    1.8,  999.0,  999.0,  999.0,    1.8,    1.2,   -0.4,  999.0,  999.0,  999.0,  999.0,  999.0,  999.0,   -5.0,  999.0,  999.0,  999.0,  999.0,  999.0,  999.0,  999.0,  999.0,  999.0,  999.0,  999.0,  999.0,  999.0
2006/11/17 16:50,   -2.2,   -4.7,   -6.5,   -8.0,   -8.8,   -8.7,   -9.7,  -10.6,  -10.3,  -11.0,  -11.4,  -11.0,  -11.2,  -11.0,  -11.0,  -11.9,  -10.6,  -10.1,   -8.4,   -8.3,   -7.8,   -6.3,   -6.0,   -5.8,   -5.7,   -6.1,   -6.1,   -6.5,   -7.1,   -7.0,   -6.4,   -3.9,   -3.9,   -4.0,   -3.6,   -3.8,   -3.4,   -3.4,   -4.1,   -5.6,   -4.6,   -4.3,   -3.5,   -3.7,   -3.4,   -2.8,   -2.6,   -2.9,   -4.1,   -4.4,   -2.9,   -2.1,   -2.0,   -2.0,   -2.0,   -2.5,   -3.3,   -4.0,   -4.7,  999.0,   -6.3,   -7.4,  999.0,  999.0,  999.0,  999.0,  999.0,  999.0,  999.0,   -5.9,  999.0,  999.0,  999.0,  999.0,  999.0,   -8.3,  999.0,  999.0,  999.0,  999.0,  999.0,  999.0,  999.0,  999.0,  999.0,  999.0,  999.0,  999.0,  999.0,  999.0,  999.0,  999.0,  999.0,  999.0,  999.0,  999.0,  999.0,    0.6,   -0.3,  999.0,  999.0,  999.0,  999.0,  999.0,  999.0,  999.0,  999.0,  999.0,  999.0,  999.0,  999.0,  999.0,  999.0,  999.0,  999.0,  999.0,  999.0,  999.0,  999.0,  999.0
2006/11/17 17:00,   -3.7,   -4.7,   -7.2,   -9.1,   -9.7,   -9.8,  -11.3,  -11.2,  -11.4,  -11.3,  -11.3,  -10.8,  -10.5,  -11.1,   -9.2,   -9.5,   -8.2,   -7.4,   -7.5,   -5.7,   -5.9,   -5.4,   -5.2,   -5.3,   -5.4,   -6.8,   -7.1,   -7.4,   -8.0,   -7.5,   -7.1,   -4.9,   -5.0,   -4.2,   -4.3,   -3.7,   -4.6,   -5.2,   -5.2,   -5.7,   -6.4,   -5.2,   -4.1,   -4.4,   -4.5,   -2.9,   -2.6,   -2.9,   -3.7,   -3.9,   -2.6,   -2.1,   -1.9,   -2.2,   -1.7,  999.0,  999.0,   -4.1,  999.0,  999.0,  999.0,  999.0,  999.0,  999.0,  999.0,  999.0,  999.0,  999.0,  999.0,  999.0,  999.0,  999.0,  999.0,  999.0,  999.0,  999.0,  999.0,  999.0,  999.0,  999.0,  999.0,  999.0,  999.0,  999.0,  999.0,  999.0,  999.0,  999.0,  999.0,  999.0,  999.0,  999.0,  999.0,  999.0,  999.0,  999.0,  999.0,    0.5,   -0.6,  999.0,  999.0,  999.0,  999.0,  999.0,  999.0,  999.0,  999.0,  999.0,  999.0,  999.0,  999.0,  999.0,  999.0,  999.0,  999.0,  999.0,  999.0,  999.0,  999.0,  999.0
2006/11/17 17:10,   -5.3,   -7.3,   -8.1,   -8.0,   -8.7,   -9.5,  -10.1,  -10.1,  -10.3,  -10.8,  -10.3,   -9.6,   -9.7,   -9.4,   -8.5,   -9.5,   -8.0,   -8.3,   -7.5,   -6.1,   -6.2,   -5.9,   -4.2,   -3.1,   -3.7,   -5.0,   -5.8,   -5.5,   -6.0,   -6.5,   -6.1,   -5.2,   -3.6,   -3.3,   -3.6,   -3.3,   -4.3,   -4.3,   -4.1,   -4.8,   -5.4,   -4.7,   -3.8,   -4.2,   -4.3,   -2.7,   -2.4,   -2.8,   -3.4,   -3.7,   -2.5,   -3.0,   -3.1,   -3.5,   -2.7,   -2.5,  999.0,  999.0,  999.0,  999.0,  999.0,  999.0,  999.0,  999.0,  999.0,  999.0,  999.0,  999.0,  999.0,  999.0,  999.0,  999.0,  999.0,  999.0,  999.0,  999.0,  999.0,  999.0,  999.0,  999.0,  999.0,  999.0,  999.0,  999.0,  999.0,  999.0,  999.0,  999.0,  999.0,  999.0,  999.0,  999.0,  999.0,  999.0,  999.0,  999.0,  999.0,    0.5,  999.0,  999.0,  999.0,  999.0,  999.0,  999.0,  999.0,  999.0,  999.0,  999.0,  999.0,  999.0,  999.0,  999.0,  999.0,  999.0,  999.0,  999.0,  999.0,  999.0,  999.0,  999.0
2006/11/17 17:20,   -5.8,   -7.7,   -8.4,   -8.9,   -9.6,  -10.0,  -10.4,  -10.2,  -10.2,  -10.4,  -10.3,   -9.5,   -9.5,   -9.3,   -8.5,   -9.4,   -9.1,   -8.1,   -6.9,   -5.9,   -5.6,   -4.1,   -3.5,   -3.4,   -4.4,   -5.3,   -5.7,   -6.3,   -6.2,   -5.5,   -5.2,   -5.5,   -4.5,   -4.5,   -5.0,   -5.2,   -5.5,   -4.2,   -3.5,   -3.9,   -4.5,   -4.4,   -3.9,   -4.2,   -4.0,   -2.3,   -2.0,   -2.1,   -2.5,   -2.8,   -1.8,   -2.3,   -2.5,   -3.5,   -3.1,   -2.9,  999.0,   -5.4,  999.0,   -3.6,  999.0,  999.0,   -4.3,   -4.6,   -5.6,   -5.8,  999.0,  999.0,  999.0,  999.0,  999.0,  999.0,  999.0,   -9.7,  999.0,  999.0,  999.0,  999.0,  999.0,  999.0,  999.0,  999.0,  999.0,  999.0,  999.0,  999.0,  999.0,  999.0,  999.0,  999.0,  999.0,  999.0,  999.0,  999.0,  999.0,  999.0,  999.0,   -1.9,  999.0,   -1.0,  999.0,  999.0,  999.0,  999.0,  999.0,   -9.9,  999.0,  999.0,  999.0,  999.0,  999.0,  999.0,  999.0,  999.0,  999.0,  999.0,  999.0,  999.0,  999.0,  999.0
2006/11/17 17:30,   -5.5,   -7.1,   -8.4,   -9.8,  -10.2,  -10.7,  -10.9,  -11.2,  -10.9,  -11.0,  -11.0,  -10.9,  -10.6,  -10.1,   -9.4,  -10.3,  -10.0,   -9.3,   -6.6,   -5.9,   -4.1,   -3.6,   -3.8,   -4.7,   -5.9,   -6.1,   -6.6,   -7.8,   -7.3,   -7.1,   -7.7,   -7.5,   -7.1,   -6.5,   -6.6,   -6.6,   -6.8,   -6.1,   -5.0,   -5.1,   -5.3,   -5.2,   -5.1,   -4.6,   -3.5,   -2.7,   -2.7,   -3.5,   -3.4,   -2.2,   -2.2,   -2.3,   -2.2,   -3.1,   -2.9,   -3.2,   -3.6,   -5.4,  999.0,  999.0,  999.0,  999.0,  999.0,  999.0,   -8.7,   -9.3,   -5.2,  999.0,  999.0,  999.0,  999.0,  999.0,  999.0,  -10.9,   -9.6,   -8.1,  999.0,  999.0,  999.0,  999.0,  999.0,  999.0,  999.0,  999.0,  999.0,  999.0,  999.0,  999.0,  999.0,  999.0,  999.0,  999.0,  999.0,  999.0,  999.0,  999.0,  999.0,   -1.6,   -2.0,  999.0,  999.0,  999.0,  999.0,  999.0,  999.0,   -7.4,  999.0,  999.0,  999.0,  999.0,  999.0,  999.0,  999.0,  999.0,  999.0,  999.0,  999.0,  999.0,  999.0,  999.0
2006/11/17 17:40,   -6.5,   -7.9,   -8.8,   -9.6,  -10.2,  -10.9,  -10.9,  -11.4,  -11.3,  -10.8,  -10.7,  -10.8,  -10.7,  -10.2,   -9.3,   -9.9,   -9.8,   -9.4,   -7.2,   -6.1,   -4.7,   -4.4,   -4.8,   -5.1,   -6.9,   -6.6,   -6.8,   -7.4,   -7.5,   -6.6,   -7.5,   -7.1,   -6.6,   -6.9,   -6.5,   -6.2,   -6.1,   -6.0,   -4.3,   -4.7,   -5.0,   -5.0,   -4.7,   -4.2,   -3.8,   -2.9,   -3.3,   -4.7,   -4.7,   -2.8,   -3.0,   -2.7,   -2.8,   -3.4,   -3.0,   -3.2,   -3.5,  999.0,  999.0,  999.0,  999.0,  999.0,  999.0,  -10.7,  -11.0,  -10.8,  999.0,  999.0,  999.0,  999.0,  999.0,  999.0,  999.0,  -11.0,  -10.1,  999.0,  999.0,  999.0,  999.0,  999.0,  999.0,  999.0,  999.0,  999.0,  999.0,  999.0,  999.0,  999.0,  999.0,  999.0,  999.0,  999.0,  999.0,  999.0,  999.0,  999.0,  999.0,  999.0,   -1.7,  999.0,  999.0,  999.0,  999.0,  999.0,  999.0,   -7.5,  999.0,  999.0,  999.0,  999.0,  999.0,  999.0,  999.0,  999.0,  999.0,  999.0,  999.0,  999.0,  999.0,  999.0
2006/11/17 17:50,  999.0,   -8.0,   -9.2,   -9.8,  -10.2,  -10.9,  -11.4,  -11.8,  -11.7,  -11.1,  -10.6,  -11.1,  -10.9,  -11.0,   -9.9,   -9.9,  -10.1,   -9.4,   -8.3,   -5.6,   -4.7,   -4.1,   -4.1,   -4.3,   -4.9,   -4.7,   -4.9,   -5.1,   -6.6,   -7.0,   -7.0,   -7.2,   -6.5,   -6.5,   -5.6,   -5.4,   -4.9,   -4.0,   -3.3,   -3.3,   -3.7,   -4.4,   -4.0,   -3.8,   -2.9,   -3.4,   -4.2,   -4.9,   -5.1,   -3.0,   -2.8,   -2.0,   -1.6,   -1.7,   -2.3,   -2.2,   -3.8,   -5.7,   -7.0,  999.0,  999.0,  999.0,  999.0,  -11.5,  -11.1,  999.0,  999.0,  999.0,  999.0,  999.0,  999.0,  999.0,  999.0,  -10.8,  999.0,  999.0,  999.0,  999.0,  999.0,  999.0,  999.0,  999.0,  999.0,  999.0,  999.0,  999.0,  999.0,  999.0,  999.0,  999.0,  999.0,  999.0,  999.0,  999.0,  999.0,  999.0,  999.0,  999.0,   -1.1,  999.0,  999.0,  999.0,  999.0,  999.0,  999.0,   -7.7,  999.0,  999.0,  999.0,  999.0,  999.0,  999.0,  999.0,  999.0,  999.0,  999.0,  999.0,  999.0,  999.0,  999.0
2006/11/17 18:00,  999.0,   -8.5,   -9.6,   -9.8,  -10.5,  -11.0,  -11.5,  -12.1,  -11.8,  -11.2,  -11.2,  -11.5,  -11.3,  -11.7,  -10.7,  -10.9,  -10.5,   -9.6,   -8.6,   -4.4,   -4.3,   -4.0,   -3.9,   -3.7,   -3.5,   -3.2,   -3.1,   -2.7,   -3.1,   -3.1,   -3.4,   -4.2,   -4.3,   -4.5,   -4.7,   -5.1,   -4.4,   -3.8,   -3.0,   -3.5,   -4.7,   -5.5,   -6.1,   -4.6,   -4.4,   -6.1,   -6.4,   -5.2,   -4.8,   -3.5,   -2.2,   -1.8,   -1.1,   -1.0,   -1.6,   -2.3,   -3.6,   -6.0,  999.0,  999.0,  999.0,  -10.6,  -10.3,  -12.3,  -11.9,  -12.0,  -11.6,  999.0,  999.0,  999.0,  999.0,  999.0,  999.0,  -11.2,  999.0,  999.0,  999.0,  999.0,  999.0,  999.0,  999.0,  999.0,  999.0,  999.0,  999.0,  999.0,  999.0,  999.0,  999.0,  999.0,  999.0,  999.0,  999.0,  999.0,  999.0,  999.0,  999.0,  999.0,  999.0,  999.0,  999.0,  999.0,  999.0,  999.0,  999.0,  999.0,  999.0,  999.0,  999.0,  999.0,  999.0,  999.0,  999.0,  999.0,  999.0,  999.0,  999.0,  999.0,  999.0,  999.0
2006/11/17 18:10,   -8.5,   -9.2,   -9.5,  -10.0,  -10.4,  -10.9,  -11.3,  -11.5,  -11.4,  -10.9,  -10.9,  -11.2,  -10.9,  -11.2,   -9.9,  -10.6,  -10.1,   -8.9,   -6.8,   -3.9,   -3.0,   -2.4,   -2.4,   -2.4,   -3.1,   -3.2,   -3.2,   -3.4,   -3.6,   -4.0,   -4.3,   -4.5,   -5.1,   -5.1,   -5.5,   -6.2,   -4.6,   -4.1,   -4.1,   -4.3,   -5.4,   -6.5,   -6.8,   -6.1,   -6.3,   -6.5,   -7.3,  999.0,   -5.8,   -4.3,   -4.0,  999.0,   -2.5,   -2.8,   -2.6,   -3.5,   -4.3,   -6.1,  999.0,  999.0,  999.0,   -9.5,  -10.7,  -11.8,  -12.3,  -11.3,  -11.2,  -11.8,  -10.5,  -10.2,  999.0,  999.0,  999.0,  -11.3,  999.0,  999.0,  999.0,  999.0,  999.0,  999.0,  999.0,  999.0,  999.0,  999.0,  999.0,  999.0,  999.0,  999.0,  999.0,  999.0,  999.0,  999.0,  999.0,  999.0,  999.0,  999.0,  999.0,  999.0,  999.0,  999.0,  999.0,  999.0,  999.0,  999.0,  999.0,  999.0,   -3.0,  999.0,  999.0,  999.0,  999.0,  999.0,  999.0,  999.0,  999.0,  999.0,  999.0,  999.0,  999.0,  999.0
2006/11/17 18:20,   -8.0,   -8.4,   -8.7,   -9.5,   -9.7,  -10.6,  -10.8,  -11.3,  -11.3,  -10.8,  -10.6,  -10.0,  -10.2,  -10.2,   -9.1,  -10.1,   -9.0,   -9.2,   -8.2,   -3.9,   -3.2,   -1.5,   -1.3,   -1.1,   -2.5,   -3.3,   -3.8,   -4.5,   -5.4,   -7.2,   -7.6,   -7.8,   -7.5,   -5.9,   -6.3,   -6.4,   -4.4,   -4.0,   -4.1,   -3.8,   -4.0,   -4.7,   -4.2,   -4.4,   -4.1,   -4.4,   -5.1,   -5.7,   -5.3,   -3.9,   -3.2,   -1.5,   -2.0,   -2.6,   -2.1,   -2.1,  999.0,   -4.7,   -6.7,   -7.9,   -9.2,   -8.6,  -10.2,  -11.4,  -11.3,  -11.0,  -10.9,  999.0,  999.0,  999.0,  999.0,  999.0,  999.0,  999.0,  999.0,  999.0,  999.0,  999.0,  999.0,  999.0,  999.0,  999.0,  999.0,  999.0,  999.0,  999.0,  999.0,  999.0,  999.0,  999.0,  999.0,  999.0,  999.0,  999.0,  999.0,  999.0,  999.0,  999.0,  999.0,  999.0,  999.0,  999.0,  999.0,  999.0,  999.0,  999.0,  999.0,  999.0,  999.0,  999.0,  999.0,  999.0,  999.0,  999.0,  999.0,  999.0,  999.0,  999.0,  999.0,  999.0
2006/11/17 18:30,   -7.5,   -8.1,   -8.7,   -8.9,   -9.7,  -10.6,  -11.3,  -11.4,  -11.7,  -11.5,  -10.5,   -9.8,  -10.2,   -9.4,   -9.1,  -10.0,   -9.1,   -8.2,   -7.1,   -4.5,   -3.3,   -1.9,   -1.5,   -1.9,   -2.0,   -3.3,   -3.9,   -4.3,   -5.5,   -7.0,   -7.9,   -8.2,   -8.2,   -7.0,   -7.1,   -7.1,   -5.2,   -4.0,   -3.6,   -2.3,   -2.4,   -2.9,   -2.9,   -2.7,   -2.8,   -3.1,   -4.6,   -5.2,   -4.7,   -3.2,   -3.3,   -1.6,   -2.3,   -2.7,   -3.0,   -2.9,  999.0,  999.0,   -6.5,   -7.5,   -8.9,   -9.6,  -11.4,  -13.0,  -12.6,  -12.2,  -13.0,  -12.9,  -12.9,  999.0,  999.0,  -14.5,  -15.4,  999.0,  999.0,  999.0,  999.0,  999.0,  999.0,  999.0,  999.0,  999.0,  999.0,  999.0,  999.0,  999.0,  999.0,  999.0,  999.0,  999.0,  999.0,  999.0,  999.0,  999.0,  999.0,  999.0,  999.0,  999.0,   -0.7,  999.0,  999.0,  999.0,  999.0,  999.0,  999.0,  999.0,  999.0,  999.0,  999.0,  999.0,  999.0,  999.0,  999.0,  999.0,  999.0,  999.0,  999.0,  999.0,  999.0,  999.0
2006/11/17 18:40,   -7.9,   -8.7,   -9.9,  -10.8,  -11.3,  -11.8,  -12.0,  -11.9,  -12.0,  -11.7,  -10.5,  -10.2,  -10.0,  -10.9,  -10.1,   -9.9,   -9.0,   -7.5,   -7.2,   -5.1,   -3.8,   -2.8,   -2.4,   -2.6,   -2.6,   -3.7,   -4.5,   -3.8,   -3.9,   -4.8,   -5.9,   -6.3,   -6.5,   -5.8,   -5.3,   -5.9,   -5.1,   -3.9,   -3.1,   -2.3,   -2.7,   -3.0,   -3.3,   -3.1,   -3.3,   -4.1,   -5.6,   -6.5,   -6.6,   -3.9,   -3.8,  999.0,   -3.0,   -3.1,   -4.1,  999.0,  999.0,  999.0,   -5.7,   -9.0,   -8.7,   -9.2,  -10.8,  -13.1,  -12.9,  -12.8,  -12.8,  -13.5,  -14.4,  -15.7,  -15.3,  -14.8,  -15.1,  -15.3,  999.0,  999.0,  999.0,   -7.8,  999.0,  999.0,  999.0,  999.0,  999.0,  999.0,  999.0,  999.0,  999.0,  999.0,  999.0,  999.0,  999.0,  999.0,  999.0,  999.0,  999.0,  999.0,  999.0,  999.0,   -0.6,  999.0,  999.0,   -4.3,  999.0,  999.0,  999.0,   -6.2,  999.0,  999.0,    0.9,  999.0,  999.0,  999.0,  999.0,  999.0,  999.0,  999.0,  999.0,  999.0,  999.0,  999.0
2006/11/17 18:50,   -7.2,   -7.6,   -8.5,  -10.1,   -9.7,  -12.2,  -11.2,  -10.8,  -11.1,  -11.4,  -11.2,  -11.8,  -10.1,  -11.2,  -10.2,  -10.0,   -9.3,   -7.7,   -6.5,   -6.0,   -4.4,   -4.2,   -4.3,   -3.9,   -2.8,   -3.3,   -4.2,   -3.7,   -3.6,   -5.0,   -5.5,   -5.7,   -6.5,   -6.3,   -5.4,   -5.2,   -5.2,   -4.2,   -2.5,   -1.9,   -2.5,   -2.6,   -3.1,   -3.3,   -3.7,   -4.4,   -5.0,   -5.2,   -5.3,   -4.1,   -3.0,   -1.7,   -1.7,   -0.6,   -0.5,   -0.0,   -0.6,  999.0,  999.0,   -7.0,   -7.0,   -7.4,   -8.7,  -11.5,  -12.3,   -9.7,  -12.7,   -9.8,  -14.1,  -15.4,  -15.0,  -15.0,  -13.7,  999.0,  999.0,  999.0,  999.0,  999.0,  999.0,  999.0,  999.0,  999.0,  999.0,  999.0,  999.0,  999.0,  999.0,  999.0,  999.0,  999.0,  999.0,  999.0,  999.0,  999.0,  999.0,  999.0,  999.0,  999.0,   -0.6,  999.0,   -4.3,  999.0,  999.0,  999.0,  999.0,  999.0,  999.0,  999.0,  999.0,  999.0,  999.0,  999.0,  999.0,  999.0,  999.0,  999.0,  999.0,  999.0,  999.0,  999.0
2006/11/17 19:00,   -6.4,   -7.4,   -8.4,   -8.6,   -9.8,  -11.6,  -12.6,  -11.8,  -11.8,  -12.5,  -11.6,  999.0,  -10.8,  -11.1,   -9.3,   -8.6,   -9.6,   -8.2,   -7.2,   -6.2,   -4.2,   -4.4,   -4.6,   -3.4,   -3.4,   -4.3,   -4.7,   -4.6,   -4.9,   -6.1,   -6.8,   -7.0,   -6.9,   -7.3,   -6.0,   -5.2,   -5.2,   -4.7,   -3.8,   -3.1,   -3.7,   -4.2,   -4.8,   -4.9,   -4.5,   -4.5,   -4.5,   -5.5,   -6.0,   -5.9,   -2.3,   -2.2,   -1.6,   -0.2,    0.1,    0.2,   -0.4,  999.0,   -4.9,   -4.1,   -6.1,   -6.9,   -7.4,  -10.4,  -10.0,  -13.2,  -12.6,  -12.4,  999.0,  999.0,  999.0,  -15.0,  -14.4,  -14.2,  999.0,  999.0,   -7.6,   -7.3,  999.0,  999.0,  999.0,  999.0,  999.0,  999.0,  999.0,  999.0,  999.0,  999.0,  999.0,  999.0,  999.0,  999.0,  999.0,  999.0,  999.0,  999.0,  999.0,  999.0,   -2.6,  999.0,  999.0,  999.0,  999.0,  999.0,  999.0,  999.0,   -0.7,    2.8,  999.0,  999.0,  999.0,  999.0,  999.0,  999.0,  999.0,  999.0,  999.0,  999.0,  999.0,  999.0
2006/11/17 19:10,   -8.0,   -9.1,   -9.1,   -9.1,  -11.0,  -12.2,  -12.5,  -13.6,  -11.4,  -10.9,  -10.5,  999.0,  -11.7,  -13.6,  -14.0,  -12.1,   -9.9,   -8.9,   -8.5,   -6.4,   -4.0,   -3.2,   -4.2,   -2.7,   -4.1,   -5.4,   -5.5,   -5.7,   -5.7,   -6.7,   -7.6,   -8.1,   -7.1,   -7.5,   -6.4,   -5.4,   -5.4,   -5.4,   -4.0,   -3.3,   -3.4,   -4.4,   -4.6,   -5.0,   -4.7,   -4.7,   -4.8,   -5.9,   -6.4,   -6.2,  999.0,   -3.3,   -2.8,   -2.3,   -1.0,   -1.0,   -1.1,   -3.0,   -4.2,   -4.6,   -4.9,   -5.4,   -3.2,   -3.7,  999.0,  999.0,  999.0,  999.0,  999.0,   -3.7,  999.0,  -12.2,  -12.6,  -11.0,  999.0,  999.0,  999.0,  999.0,  999.0,  999.0,  999.0,  999.0,  999.0,  999.0,  999.0,  999.0,  999.0,  999.0,  999.0,  999.0,  999.0,  999.0,  999.0,  999.0,  999.0,  999.0,  999.0,  999.0,  999.0,  999.0,  999.0,  999.0,  999.0,  999.0,  999.0,   -2.0,  999.0,    3.2,  999.0,  999.0,  999.0,  999.0,  999.0,  999.0,  999.0,  999.0,  999.0,  999.0,  999.0,  999.0
2006/11/17 19:20,   -8.5,   -9.2,   -7.7,   -7.4,   -9.7,  -10.6,  -10.4,  -10.7,   -9.9,   -9.7,  -10.4,  -12.3,  -11.1,  -12.0,  -12.2,  -11.5,   -8.8,   -8.2,   -6.6,   -4.6,   -3.3,   -2.9,   -1.8,   -1.5,   -2.3,   -2.9,   -2.6,   -3.6,   -4.1,   -5.9,   -6.3,   -5.5,   -6.1,   -6.3,   -5.7,   -4.7,   -4.8,   -4.7,   -3.6,   -3.5,   -4.3,   -5.0,   -5.5,   -5.6,   -5.4,   -6.2,   -6.3,   -8.0,   -8.8,   -7.0,  999.0,   -4.5,   -2.8,   -2.9,   -2.8,   -2.5,   -1.4,   -3.3,   -4.1,   -5.1,   -4.1,   -5.1,  999.0,   -6.2,   -4.9,   -3.3,   -3.8,  999.0,  999.0,   -3.2,  999.0,   -9.3,  999.0,  -10.4,  -10.5,  999.0,  999.0,  999.0,  999.0,  999.0,  999.0,  999.0,  999.0,  999.0,  999.0,  999.0,  999.0,  999.0,  999.0,  999.0,  999.0,  999.0,  999.0,  999.0,  999.0,  999.0,  999.0,  999.0,  999.0,   -2.1,  999.0,  999.0,  999.0,  999.0,  999.0,  999.0,   -0.2,   -0.4,  999.0,  999.0,  999.0,  999.0,  999.0,  999.0,  999.0,  999.0,  999.0,  999.0,  999.0,  999.0
2006/11/17 19:30,   -8.9,   -9.4,   -8.8,  -10.4,  -10.0,   -9.9,  -10.4,  -10.4,   -6.3,  999.0,  -11.8,  -11.1,  -13.7,  999.0,   -5.5,   -6.5,   -6.4,   -6.0,   -5.7,   -4.6,   -4.8,   -4.1,   -3.2,   -1.7,   -2.2,   -2.6,   -3.4,   -3.9,   -4.3,   -5.7,   -5.8,   -4.6,   -5.1,   -5.5,   -4.0,   -3.9,   -3.7,   -3.8,   -2.9,   -3.0,   -3.2,   -2.9,   -3.6,   -3.2,   -3.5,   -3.8,   -5.0,   -5.6,   -7.9,  999.0,   -2.0,   -3.3,   -2.1,   -1.9,   -3.2,   -2.2,   -2.5,   -3.5,   -4.6,   -5.5,   -5.5,   -8.1,   -9.4,   -6.4,   -4.2,  999.0,   -3.6,   -2.4,   -4.1,  999.0,  999.0,   -7.7,  999.0,   -8.2,   -7.9,   -5.5,  999.0,  999.0,  999.0,  999.0,  999.0,  999.0,  999.0,  999.0,  999.0,  999.0,  999.0,  999.0,  999.0,  999.0,  999.0,  999.0,  999.0,  999.0,  999.0,  999.0,  999.0,  999.0,   -0.6,   -2.7,  999.0,   -1.3,  999.0,  999.0,  999.0,  999.0,  999.0,  999.0,  999.0,  999.0,  999.0,  999.0,  999.0,  999.0,  999.0,  999.0,  999.0,  999.0,  999.0,  999.0
2006/11/17 19:40,   -7.9,   -9.4,   -9.5,  -10.5,  -10.0,  -10.2,   -9.6,  -10.3,   -9.1,   -9.2,   -8.8,   -9.7,  -10.7,   -7.1,   -8.0,   -5.6,   -5.3,   -3.9,   -7.3,   -6.4,   -5.9,   -6.0,   -5.9,   -5.0,   -4.4,   -5.4,   -6.4,   -5.6,   -8.3,   -6.6,   -8.4,   -5.2,   -6.1,   -6.2,   -4.5,   -5.0,   -3.5,   -3.0,   -3.2,   -2.6,   -1.6,   -1.0,   -1.4,   -1.2,   -1.0,   -1.8,   -2.4,   -3.0,   -3.2,   -2.6,   -2.3,   -2.5,   -1.9,   -1.6,   -3.2,   -3.2,   -3.4,   -3.5,   -4.3,   -4.5,   -7.0,   -8.6,  999.0,   -5.0,   -0.5,   -0.0,    0.2,   -0.2,   -0.8,   -0.4,  999.0,  999.0,  999.0,  999.0,   -7.0,   -6.4,   -4.4,   -1.3,  999.0,  999.0,  999.0,  999.0,    0.0,  999.0,  999.0,  999.0,  999.0,  999.0,  999.0,  999.0,  999.0,  999.0,  999.0,  999.0,  999.0,  999.0,  999.0,   -0.8,   -1.0,  999.0,  999.0,  999.0,  999.0,  999.0,  999.0,   -4.9,  999.0,   -2.2,  999.0,  999.0,  999.0,  999.0,  999.0,  999.0,  999.0,  999.0,  999.0,  999.0,  999.0,  999.0
2006/11/17 19:50,  -12.5,   -9.8,   -9.6,   -8.5,   -7.7,   -8.6,   -9.6,  -10.0,   -9.2,   -8.8,   -8.5,   -8.7,   -8.5,   -7.6,   -7.7,   -7.7,   -8.2,   -8.4,   -7.8,   -6.9,   -6.7,   -6.2,   -6.1,   -6.2,   -5.3,   -4.7,   -5.2,   -5.4,   -5.6,   -5.7,   -4.1,   -4.9,   -4.5,   -5.8,   -4.3,   -5.2,   -5.3,   -4.3,   -3.4,   -3.0,   -4.0,   -3.0,   -1.8,   -1.3,   -1.7,   -2.5,   -3.5,   -4.2,   -4.2,   -4.0,   -3.7,   -3.4,   -2.9,   -3.6,   -4.3,   -4.2,   -4.1,   -4.6,   -5.5,   -6.5,   -8.0,   -8.1,   -2.7,  999.0,   -0.5,    0.0,    0.0,   -0.2,    0.0,   -0.2,   -1.1,   -1.6,   -0.8,   -3.2,   -2.9,   -6.6,   -4.4,   -2.5,  999.0,   -1.4,  999.0,  999.0,   -0.0,  999.0,  999.0,    0.0,  999.0,  999.0,  999.0,  999.0,  999.0,  999.0,  999.0,  999.0,  999.0,  999.0,  999.0,   -1.4,   -2.3,  999.0,  999.0,  -10.0,  999.0,  999.0,  999.0,   -6.9,  999.0,  999.0,    4.6,  999.0,    5.1,  999.0,  999.0,  999.0,  999.0,  999.0,  999.0,  999.0,  999.0,  999.0
2006/11/17 20:00,  -12.9,  -12.2,  -11.5,  -11.2,  -10.0,   -9.9,   -9.8,  -11.5,  -11.2,   -9.8,   -8.8,   -8.5,   -8.4,   -7.2,   -7.3,   -6.8,   -7.9,   -7.1,   -4.7,   -5.2,   -4.9,   -4.8,   -3.9,   -4.5,   -3.8,   -2.6,   -3.9,   -4.9,   -4.3,   -5.0,   -4.7,   -4.5,   -4.5,   -3.7,   -2.6,   -4.2,   -4.8,   -4.7,   -4.5,   -4.4,   -5.7,   -5.9,   -3.6,   -4.2,   -4.7,   -4.7,   -6.4,   -6.6,   -6.8,   -4.4,   -5.1,   -4.9,   -4.1,   -4.7,   -4.6,   -5.4,   -5.9,   -5.9,   -7.0,   -7.7,   -8.4,   -8.5,   -6.3,   -6.1,  999.0,    0.1,    0.2,   -0.2,   -0.0,   -0.4,   -1.6,  999.0,   -1.3,   -0.8,   -1.7,   -3.7,   -3.0,   -3.9,  999.0,   -0.3,  999.0,    2.5,  999.0,  999.0,  999.0,  999.0,    1.4,  999.0,  999.0,  999.0,  999.0,  999.0,  999.0,   -0.2,   -0.1,  999.0,    1.0,   -0.6,   -3.4,  999.0,  999.0,  999.0,  999.0,  999.0,  999.0,   -7.6,  999.0,  999.0,  999.0,  999.0,  999.0,  999.0,  999.0,  999.0,  999.0,  999.0,  999.0,  999.0,  999.0,  999.0
2006/11/17 20:10,  -13.5,  -12.3,  -11.8,  -11.6,  -12.3,  -11.5,  -10.6,  -11.4,  -11.9,  -11.4,  -10.3,   -9.5,   -9.2,   -8.0,   -8.0,   -8.0,   -7.9,   -7.2,   -6.4,   -6.1,   -7.0,   -6.6,   -5.5,   -5.3,   -5.2,   -4.8,   -5.0,   -4.5,   -4.3,   -4.1,   -4.9,   -5.4,   -4.9,   -4.4,   -3.4,   -3.8,   -3.3,   -2.7,   -2.3,   -2.4,   -3.0,   -2.8,   -1.6,   -2.3,   -2.5,   -2.5,   -4.9,   -4.2,   -4.2,   -4.6,   -4.2,   -3.7,   -3.6,   -4.0,   -4.5,   -5.8,   -5.9,   -7.2,   -9.2,   -8.7,   -8.1,   -7.6,   -6.0,   -6.4,   -0.0,   -0.0,   -0.0,   -0.1,    0.0,    0.0,   -1.3,   -1.9,  999.0,  999.0,  999.0,   -5.0,   -1.3,   -6.0,   -2.0,  999.0,  999.0,   -0.7,   -1.3,  999.0,  999.0,  999.0,    1.2,  999.0,  999.0,  999.0,  999.0,  999.0,  999.0,  999.0,  999.0,  999.0,  999.0,   -1.4,   -2.6,   -4.4,   -7.6,  -11.0,  -13.2,  -11.2,   -8.3,   -6.8,   -1.1,  999.0,    3.5,  999.0,    3.8,  999.0,  999.0,  999.0,  999.0,  999.0,  999.0,  999.0,  999.0,  999.0
2006/11/17 20:20,  -14.7,  -12.7,  -11.9,  -11.0,  -10.4,   -9.8,   -9.2,   -9.6,   -8.6,   -7.9,   -8.3,   -7.4,   -7.7,   -6.9,   -6.3,   -7.2,   -5.2,   -4.6,   -4.8,   -5.1,   -7.2,   -7.5,   -7.9,   -7.4,   -7.3,   -6.3,   -6.2,   -5.3,   -6.3,   -6.9,   -7.0,   -7.3,   -6.9,   -5.9,   -4.4,   -2.9,   -2.4,   -1.4,   -1.4,   -1.3,   -1.3,   -1.5,   -1.1,   -1.9,   -1.8,   -2.3,   -3.0,   -2.3,   -1.3,   -1.4,   -1.4,   -1.3,   -2.4,   -3.4,   -5.1,   -6.2,   -7.5,   -8.8,  -10.0,   -9.8,  -10.0,   -8.9,   -4.2,   -2.6,   -0.7,   -0.0,   -0.1,   -0.5,   -0.1,    0.1,   -0.4,  999.0,   -0.2,    0.0,  999.0,  999.0,  999.0,  999.0,  999.0,  999.0,  999.0,  999.0,  999.0,   -0.1,    1.6,  999.0,  999.0,  999.0,  999.0,  999.0,  999.0,  999.0,  999.0,  999.0,  999.0,  999.0,  999.0,  999.0,   -1.0,   -3.8,  999.0,  999.0,  -11.1,  -10.3,   -7.6,   -5.0,  999.0,  999.0,  999.0,    2.2,  999.0,  999.0,  999.0,  999.0,  999.0,  999.0,  999.0,  999.0,  999.0,  999.0
2006/11/17 20:30,  -12.3,  -12.4,  -11.6,  -10.9,   -9.5,   -7.7,   -7.1,   -6.0,   -3.7,   -4.9,   -4.9,   -5.8,   -5.4,   -4.9,   -4.2,   -3.3,   -3.2,   -4.3,   -4.9,   -5.9,   -5.8,   -6.2,   -5.5,   -6.7,   -7.2,   -7.2,   -7.6,   -6.0,   -8.9,   -9.8,   -8.2,   -6.7,   -5.2,   -4.4,   -2.4,   -1.0,   -1.1,   -0.2,    0.6,    0.6,    0.0,   -0.3,   -0.4,   -0.9,   -0.8,   -0.8,   -0.1,    0.1,   -0.1,   -0.8,   -1.6,   -2.1,   -3.5,   -4.9,   -6.2,   -7.5,   -8.9,   -9.4,  -10.1,   -9.4,  -10.2,   -4.3,  999.0,   -1.5,   -0.6,    0.0,   -0.0,   -0.2,   -0.3,    0.1,    0.1,  999.0,   -0.6,   -0.5,  999.0,  999.0,  999.0,  999.0,  999.0,  999.0,  999.0,  999.0,  999.0,    0.1,    0.8,  999.0,    0.3,  999.0,    0.5,  999.0,  999.0,  999.0,  999.0,  999.0,  999.0,  999.0,  999.0,  999.0,   -1.1,  999.0,  999.0,  999.0,   -9.6,   -9.7,   -7.2,   -2.9,  999.0,  999.0,    1.1,    2.5,  999.0,  999.0,  999.0,  999.0,  999.0,  999.0,  999.0,  999.0,  999.0,  999.0
2006/11/17 20:40,  -11.3,  -11.7,  -10.9,  -10.8,  -10.5,   -9.3,   -8.4,   -6.7,   -6.0,   -6.0,   -5.9,   -5.3,   -4.8,   -3.8,   -3.6,   -3.5,   -3.9,   -3.7,   -4.3,   -5.0,   -5.1,   -6.0,   -6.0,   -5.9,   -6.6,   -7.3,   -9.0,   -9.8,  -11.0,  -10.8,   -8.1,   -4.8,   -2.9,   -1.8,   -1.7,   -1.0,   -0.9,   -0.8,   -0.1,    0.2,   -0.0,   -0.5,   -1.2,   -1.3,   -0.2,    2.2,    2.5,    0.7,   -1.2,   -2.3,   -3.1,   -4.1,   -5.2,   -6.0,   -6.8,   -8.3,   -9.5,   -7.3,   -7.9,  999.0,  999.0,   -4.4,  999.0,  999.0,   -0.1,    0.0,    0.1,    0.2,   -0.0,   -0.0,   -0.4,  999.0,   -1.2,  999.0,  999.0,  999.0,  999.0,  999.0,  999.0,  999.0,  999.0,  999.0,  999.0,  999.0,  999.0,   -0.0,  999.0,  999.0,  999.0,  999.0,  999.0,  999.0,  999.0,  999.0,  999.0,  999.0,  999.0,  999.0,   -2.8,  999.0,  999.0,  999.0,  -10.6,   -9.5,   -7.5,  999.0,  999.0,  999.0,    2.0,    2.2,  999.0,  999.0,  999.0,  999.0,  999.0,  999.0,  999.0,  999.0,  999.0,  999.0
2006/11/17 20:50,  -12.0,  -12.9,  -12.5,  -12.0,  -12.4,  -11.9,  -11.3,   -9.8,   -8.8,   -8.9,   -7.8,   -7.2,   -6.1,   -4.7,   -5.5,   -4.9,   -5.4,   -5.9,   -7.6,   -7.2,   -7.4,   -7.3,   -7.2,   -6.4,   -5.6,   -6.4,   -8.2,  -10.1,  -11.2,  -10.3,   -5.8,   -5.7,   -5.1,   -4.1,   -3.7,   -2.6,   -1.8,   -1.1,   -0.3,   -0.2,   -1.8,   -2.7,   -2.7,   -0.3,    1.0,  999.0,   -0.7,    0.2,   -1.5,   -2.7,   -4.0,   -4.7,   -4.9,   -5.4,   -6.3,   -6.8,   -6.1,  999.0,   -8.7,  999.0,   -2.7,   -2.7,    0.1,    0.1,   -0.3,   -0.0,    0.1,    0.1,   -0.5,   -0.3,   -0.8,  999.0,  999.0,  999.0,  999.0,  999.0,  999.0,  999.0,  999.0,  999.0,   -3.9,  999.0,  999.0,  999.0,  999.0,  999.0,  999.0,  999.0,  999.0,  999.0,  999.0,  999.0,  999.0,  999.0,  999.0,  999.0,  999.0,  999.0,  999.0,  999.0,  999.0,   -8.6,  -11.0,  -11.7,   -7.8,   -6.2,  999.0,    4.3,    2.7,  999.0,  999.0,  999.0,  999.0,  999.0,  999.0,  999.0,  999.0,  999.0,  999.0,  999.0
2006/11/17 21:00,  -12.9,  -13.2,  -12.7,  -12.3,  -12.0,  -11.7,  -11.5,   -9.7,   -8.5,   -8.2,   -8.0,   -7.5,   -6.6,   -5.6,   -5.1,   -4.4,   -4.5,   -5.9,   -6.4,   -7.6,   -8.2,   -8.8,   -8.6,   -7.2,   -5.9,   -6.5,   -8.0,   -8.7,   -9.7,   -9.2,   -9.0,   -8.7,   -6.6,   -5.9,   -4.8,   -3.3,   -2.4,   -1.8,   -0.4,   -0.7,   -2.5,   -2.3,   -1.9,    1.3,    2.9,    3.7,    0.4,    0.1,   -1.3,   -2.6,   -3.9,   -4.2,   -4.8,   -5.2,   -5.4,   -5.9,   -6.1,   -6.6,   -7.8,   -7.8,   -3.3,   -1.9,    0.3,    0.0,   -0.1,    0.1,    0.1,    0.3,   -0.8,    0.7,  999.0,  999.0,   -1.5,   -0.9,  999.0,   -1.6,   -3.1,  999.0,  999.0,   -2.7,   -2.9,  999.0,    2.1,  999.0,  999.0,  999.0,  999.0,  999.0,  999.0,  999.0,  999.0,  999.0,  999.0,  999.0,  999.0,  999.0,   -1.3,  999.0,   -4.3,  999.0,  999.0,   -8.9,  -11.4,  999.0,   -8.4,   -7.2,   -2.7,    1.9,  999.0,    2.8,  999.0,  999.0,  999.0,  999.0,  999.0,  999.0,  999.0,  999.0,  999.0,  999.0
2006/11/17 21:10,  -13.4,  -12.9,  -12.6,  -12.3,  -11.8,  -11.3,  -10.4,   -9.7,   -8.3,   -8.0,   -8.0,   -7.3,   -6.5,   -5.7,   -5.0,   -4.9,   -5.6,   -4.2,   -3.4,   -4.5,   -5.1,   -6.9,   -7.3,   -7.1,   -6.4,   -7.0,   -7.5,   -7.4,   -7.2,   -7.7,   -7.2,   -6.5,   -5.0,   -4.3,   -4.1,   -2.3,   -1.7,   -1.8,   -1.1,   -1.5,   -0.8,    0.2,    0.8,    2.4,    2.9,    2.5,   -0.3,   -1.2,   -1.6,   -2.5,   -3.8,   -4.4,   -4.4,   -4.6,   -5.1,   -6.0,   -6.8,   -7.8,   -8.5,   -8.6,   -8.1,   -1.4,    0.4,    0.0,    0.3,   -0.2,    0.1,    0.2,   -0.2,    0.1,   -0.3,    0.0,   -1.0,   -0.0,   -1.4,  999.0,   -2.1,  999.0,  999.0,   -1.5,   -0.2,  999.0,    2.1,  999.0,  999.0,  999.0,  999.0,  999.0,  999.0,  999.0,  999.0,  999.0,   -0.0,    1.5,  999.0,  999.0,   -2.1,  999.0,  999.0,   -3.8,   -6.3,   -8.9,  999.0,  999.0,   -9.0,  999.0,  999.0,  999.0,  999.0,    3.9,  999.0,  999.0,  999.0,  999.0,  999.0,  999.0,  999.0,  999.0,  999.0,  999.0
2006/11/17 21:20,  999.0,  -13.4,  -12.9,  -11.9,  -11.7,  -11.4,  -11.0,  -10.3,   -9.4,   -9.4,   -9.4,   -7.4,   -6.0,   -5.5,   -5.5,   -5.3,   -5.0,   -3.4,   -2.6,   -3.6,   -2.8,   -6.8,   -7.0,   -7.5,   -7.7,   -8.0,   -7.6,   -7.2,   -5.9,   -5.5,   -5.2,   -5.1,   -4.5,   -4.0,   -3.4,   -1.9,   -1.0,   -1.6,   -1.8,   -1.5,   -1.2,   -1.1,    0.4,    2.2,    1.5,    0.2,   -2.4,   -2.9,   -3.8,   -3.9,   -4.1,   -4.4,   -4.1,   -4.4,   -4.7,   -5.8,   -7.3,   -9.0,   -9.1,   -7.7,   -8.1,   -5.2,    0.4,    0.1,   -0.6,   -0.1,    0.3,   -0.1,  999.0,   -0.8,  999.0,  999.0,  999.0,  999.0,  999.0,  999.0,   -2.9,  999.0,  999.0,  999.0,  999.0,  999.0,    1.9,  999.0,  999.0,  999.0,  999.0,    3.6,  999.0,  999.0,  999.0,  999.0,  999.0,  999.0,  999.0,  999.0,   -2.1,  999.0,  999.0,   -3.9,   -6.6,  999.0,  999.0,  -12.3,   -9.9,   -8.0,  999.0,  999.0,  999.0,  999.0,  999.0,  999.0,  999.0,  999.0,  999.0,  999.0,  999.0,  999.0,  999.0,  999.0
2006/11/17 21:30,  -13.0,  -12.9,  -12.3,  -12.0,  -11.8,  -11.1,  -11.1,  -11.1,  -10.6,  -11.0,  -10.7,   -8.9,   -7.7,   -8.0,   -7.2,   -6.8,   -6.4,   -5.0,   -3.5,   -5.0,   -4.6,   -4.4,   -7.2,   -7.9,   -8.5,   -9.4,   -9.8,   -9.1,   -6.4,   -5.1,   -4.2,   -3.4,   -2.5,   -1.9,   -1.3,    0.5,    2.2,    0.5,   -0.1,    0.0,   -1.6,   -2.1,   -2.7,   -3.0,   -2.1,   -2.3,   -2.1,   -3.2,   -3.7,   -4.2,   -4.1,   -3.7,   -3.9,   -4.4,   -5.2,   -6.7,   -7.9,   -9.0,   -9.1,   -7.6,  999.0,   -3.9,    0.2,    0.8,    0.1,   -0.1,    0.4,    1.3,   -3.6,   -1.1,  999.0,  999.0,  999.0,   -2.6,  999.0,  999.0,  999.0,  999.0,  999.0,  999.0,  999.0,  999.0,  999.0,  999.0,  999.0,  999.0,  999.0,  999.0,  999.0,  999.0,  999.0,  999.0,  999.0,  999.0,  999.0,  999.0,  999.0,   -0.8,   -3.4,   -4.5,   -7.9,  999.0,  999.0,  999.0,   -8.3,   -7.4,  999.0,  999.0,  999.0,  999.0,  999.0,  999.0,  999.0,  999.0,  999.0,  999.0,  999.0,  999.0,  999.0,  999.0
2006/11/17 21:40,  -12.6,  -12.3,  -12.2,  -12.7,  -12.8,  -12.8,  -12.4,  -11.9,  -11.5,  -10.5,   -8.8,   -6.7,   -7.9,   -8.4,   -8.5,   -7.8,   -6.5,   -6.4,   -6.5,   -8.1,   -8.2,   -8.6,   -8.5,   -7.9,   -7.1,   -6.1,   -6.8,   -6.9,   -5.6,   -5.1,   -3.7,   -2.3,   -1.1,   -1.1,   -0.5,    1.1,    1.7,    0.5,   -0.3,   -0.7,   -1.6,   -2.5,   -2.3,   -2.1,   -2.7,   -1.3,   -1.4,   -1.3,   -1.7,   -2.6,   -2.8,   -2.7,   -4.0,   -4.5,   -6.1,   -7.2,   -7.2,   -9.0,   -9.3,   -7.0,  999.0,  999.0,   -0.4,   -1.0,    0.0,   -0.0,   -0.4,  999.0,  999.0,   -3.5,   -1.7,  999.0,   -1.4,  999.0,  999.0,   -1.3,  999.0,  999.0,  999.0,  999.0,  999.0,  999.0,  999.0,  999.0,  999.0,  999.0,  999.0,  999.0,  999.0,  999.0,  999.0,  999.0,  999.0,  999.0,  999.0,  999.0,  999.0,    1.1,   -2.8,   -4.3,  999.0,  999.0,  999.0,  999.0,   -6.8,   -7.5,  999.0,  999.0,  999.0,  999.0,  999.0,  999.0,  999.0,  999.0,  999.0,  999.0,  999.0,  999.0,  999.0,  999.0
2006/11/17 21:50,  -11.5,  -11.8,  -11.6,  -12.2,  -12.8,  -13.7,  -13.5,  -12.8,  -10.9,   -9.5,   -8.0,   -7.5,   -7.7,   -8.2,   -8.0,   -6.8,   -6.1,   -6.1,   -6.7,   -7.5,   -8.0,   -7.8,   -8.6,   -7.2,   -6.5,   -6.0,   -4.8,   -4.4,   -4.4,   -5.1,   -4.2,   -2.6,   -1.5,   -1.0,    0.2,   -0.3,    0.3,   -0.4,   -1.4,   -1.5,   -2.0,   -1.7,   -1.8,   -1.0,   -0.2,    0.4,    0.4,    1.0,    0.6,   -0.6,   -1.8,   -2.1,   -3.7,   -4.8,   -6.5,   -7.8,   -9.2,   -9.6,   -9.2,   -8.8,   -8.2,   -7.3,   -4.8,   -4.3,   -0.2,    0.0,    0.1,   -4.8,   -6.2,   -0.7,   -0.3,  999.0,  999.0,   -0.7,  999.0,  999.0,  999.0,  999.0,  999.0,   -0.3,  999.0,  999.0,  999.0,  999.0,  999.0,  999.0,  999.0,  999.0,  999.0,  999.0,  999.0,  999.0,  999.0,  999.0,  999.0,  999.0,  999.0,    0.4,   -2.2,   -3.7,   -6.0,  999.0,  999.0,  999.0,   -6.4,  999.0,  999.0,  999.0,  999.0,  999.0,  999.0,  999.0,  999.0,  999.0,  999.0,  999.0,  999.0,  999.0,  999.0,  999.0
2006/11/17 22:00,  -10.7,  -11.0,  -10.7,  -11.3,  -11.9,  -13.5,  -13.9,  -11.8,  -10.7,   -8.0,   -7.8,   -8.3,   -7.7,   -7.7,   -7.0,   -6.1,   -4.9,   -4.6,   -5.0,   -5.7,   -5.9,   -6.5,   -6.3,   -7.2,   -7.1,   -7.3,   -6.6,   -4.7,   -4.9,   -5.4,   -4.9,   -3.4,   -2.4,   -1.2,    0.2,    0.5,    1.2,    0.5,   -0.1,   -0.5,   -0.9,   -0.9,   -1.4,   -1.3,   -0.9,    0.0,    0.2,    0.2,   -0.4,   -1.2,   -1.7,   -2.5,   -3.6,   -5.0,   -6.6,   -8.4,   -9.7,  -10.0,   -9.0,   -9.0,   -8.3,   -7.2,   -5.7,   -4.6,   -0.1,   -0.2,   -0.9,   -6.9,   -3.7,   -0.8,  999.0,  999.0,  999.0,  999.0,  999.0,  999.0,  999.0,  999.0,  999.0,  999.0,  999.0,  999.0,  999.0,  999.0,  999.0,  999.0,  999.0,  999.0,  999.0,  999.0,  999.0,  999.0,  999.0,  999.0,  999.0,  999.0,  999.0,    0.1,   -1.0,   -3.4,  999.0,  999.0,  999.0,  999.0,  999.0,  999.0,  999.0,  999.0,  999.0,  999.0,  999.0,  999.0,  999.0,  999.0,  999.0,  999.0,  999.0,  999.0,  999.0,  999.0
2006/11/17 22:10,  -10.4,  -10.5,  -10.5,  -11.1,  -11.5,  -12.7,  -12.8,  -11.6,  -11.1,   -9.8,   -8.2,   -7.1,   -7.5,   -7.4,   -6.3,   -5.7,   -5.0,   -5.0,   -4.4,   -6.3,   -6.9,   -7.2,   -6.8,   -6.5,   -6.4,   -6.7,   -6.6,   -5.3,   -5.4,   -4.8,   -4.7,   -3.9,   -3.6,   -1.6,    0.2,    0.4,    0.7,    0.4,   -0.4,   -0.5,   -1.1,   -1.8,   -2.1,   -2.5,   -2.5,   -1.6,   -0.5,   -0.3,   -1.0,   -1.6,   -1.6,   -2.1,   -3.0,   -4.6,   -6.1,   -8.1,   -9.3,   -8.8,   -8.6,   -8.4,   -7.7,   -7.1,   -6.7,   -8.3,   -7.4,  999.0,   -6.5,   -7.1,   -4.8,   -1.8,  999.0,   -4.6,  999.0,  999.0,  999.0,  999.0,   -2.0,  999.0,  999.0,  999.0,  999.0,  999.0,  999.0,  999.0,  999.0,  999.0,  999.0,  999.0,  999.0,  999.0,  999.0,  999.0,  999.0,  999.0,  999.0,  999.0,  999.0,  999.0,  999.0,   -3.3,  999.0,  999.0,  999.0,  999.0,  999.0,  999.0,  999.0,  999.0,  999.0,  999.0,  999.0,  999.0,  999.0,  999.0,  999.0,  999.0,  999.0,  999.0,  999.0,  999.0
2006/11/17 22:20,  -10.1,  -10.2,   -9.7,  -10.6,  -11.2,  -10.9,  -11.9,  -12.9,  -12.6,  -11.2,   -9.3,   -7.5,   -7.2,   -7.3,   -6.9,   -6.8,   -5.5,   -4.5,   -4.8,   -5.5,   -6.2,   -7.4,   -7.3,   -8.0,   -8.2,   -7.6,   -6.6,   -5.3,   -5.1,   -5.8,   -5.5,   -5.3,   -4.6,   -1.9,    0.4,    1.0,    0.6,    0.7,   -0.1,   -0.2,   -0.3,   -0.9,   -2.0,   -2.7,   -3.3,   -3.6,   -3.4,   -1.8,   -1.4,   -1.4,   -1.3,   -1.6,   -2.1,   -3.9,   -5.6,   -7.1,   -7.6,   -7.8,   -7.6,   -7.0,   -6.4,   -6.2,   -4.1,   -4.4,   -4.6,    0.0,   -3.2,   -4.9,   -5.1,   -1.4,  999.0,   -5.0,  999.0,   -3.4,  999.0,  999.0,  999.0,  999.0,  999.0,  999.0,  999.0,  999.0,  999.0,  999.0,  999.0,  999.0,  999.0,  999.0,  999.0,  999.0,  999.0,  999.0,  999.0,  999.0,  999.0,  999.0,  999.0,  999.0,  999.0,   -3.0,   -5.0,  999.0,  -10.0,  -10.0,   -6.2,  999.0,  999.0,  999.0,  999.0,  999.0,  999.0,  999.0,  999.0,  999.0,  999.0,  999.0,  999.0,  999.0,  999.0,  999.0
2006/11/17 22:30,  -10.5,  -10.2,   -9.6,  -11.1,  -10.7,  -11.2,  -12.2,  -12.7,  -12.8,  -12.0,  -10.5,   -8.6,   -6.5,   -6.8,   -7.0,   -7.0,   -6.7,   -5.8,   -6.0,   -6.2,   -7.6,   -7.6,   -8.0,   -9.6,  -10.4,   -9.4,   -7.9,   -6.2,   -5.6,   -5.7,   -5.3,   -5.3,   -4.8,   -1.3,    0.2,   -0.0,    0.2,   -0.8,   -1.5,   -1.6,   -1.5,   -1.5,   -2.2,   -3.1,   -3.7,   -4.9,   -4.7,   -4.0,   -2.1,   -1.8,   -1.9,   -2.2,   -2.8,   -4.7,   -6.6,   -7.5,   -7.7,   -7.3,   -6.9,   -6.2,   -5.7,  999.0,    0.3,   -0.9,   -0.1,    0.3,    0.3,  999.0,   -3.6,   -0.2,  999.0,  999.0,   -3.2,  999.0,  999.0,  999.0,  999.0,  999.0,  999.0,  999.0,  999.0,  999.0,  999.0,  999.0,  999.0,  999.0,  999.0,  999.0,  999.0,  999.0,  999.0,  999.0,  999.0,  999.0,  999.0,  999.0,  999.0,  999.0,  999.0,   -2.8,  999.0,  999.0,  -10.2,  -10.3,   -5.5,   -2.7,  999.0,  999.0,  999.0,  999.0,  999.0,  999.0,  999.0,  999.0,  999.0,  999.0,  999.0,  999.0,  999.0,  999.0
2006/11/17 22:40,  -10.1,   -9.7,   -9.8,  -10.7,  -10.8,  -11.7,  -13.0,  -13.2,  -11.6,  -11.3,  -11.2,  -10.5,   -8.0,   -6.6,   -6.5,   -7.1,   -7.3,   -7.1,   -7.3,   -7.9,   -9.1,  -10.1,  -10.9,  -11.4,  -11.7,   -9.5,   -8.2,   -8.0,  999.0,   -7.3,   -4.7,   -4.2,   -3.7,   -2.0,   -0.7,   -0.5,   -0.4,   -0.9,   -0.9,   -1.1,   -1.7,   -2.7,   -2.2,   -2.3,   -2.7,   -3.3,   -3.0,   -3.0,   -2.2,   -2.0,   -2.4,   -2.9,   -3.9,   -5.3,   -6.5,   -7.0,   -6.8,   -6.9,   -6.4,   -5.4,   -5.3,   -3.4,   -0.2,   -0.6,    0.1,    0.0,    0.2,   -1.1,    0.0,   -0.4,  999.0,  999.0,   -2.6,  999.0,  999.0,  999.0,  999.0,  999.0,  999.0,  999.0,  999.0,  999.0,  999.0,  999.0,  999.0,  999.0,  999.0,  999.0,  999.0,  999.0,  999.0,  999.0,  999.0,  999.0,  999.0,  999.0,  999.0,  999.0,  999.0,   -2.7,  999.0,   -8.8,  -10.1,   -9.3,   -5.0,   -4.5,  999.0,  999.0,  999.0,    2.6,  999.0,  999.0,  999.0,  999.0,  999.0,  999.0,  999.0,  999.0,  999.0,  999.0
2006/11/17 22:50,   -9.5,   -9.4,   -9.6,   -9.1,  -10.3,  -11.6,  -12.5,  -13.3,  -12.2,  -10.7,  -10.8,  -10.7,   -8.5,   -7.7,   -7.6,   -7.1,   -6.9,   -7.0,   -7.9,   -8.7,   -9.6,  -10.9,  -12.6,  -12.2,  -12.0,  -10.4,   -8.5,   -8.3,   -8.2,   -7.3,   -6.3,   -3.8,   -3.6,   -2.2,   -1.1,   -0.9,   -0.7,   -0.8,   -0.6,   -0.9,   -2.5,   -2.9,   -2.2,   -2.6,   -2.7,   -2.3,   -2.2,   -1.3,   -1.6,   -1.7,   -2.7,   -3.6,   -4.5,   -5.5,   -6.0,   -6.6,   -6.0,   -5.9,   -5.8,   -4.7,   -4.7,   -3.4,   -0.6,   -1.8,   -0.3,   -0.1,   -0.3,   -0.6,   -0.2,   -0.6,  999.0,  999.0,   -1.7,  999.0,  999.0,  999.0,  999.0,  999.0,  999.0,  999.0,  999.0,  999.0,  999.0,  999.0,  999.0,  999.0,  999.0,  999.0,  999.0,  999.0,  999.0,  999.0,  999.0,  999.0,  999.0,  999.0,  999.0,  999.0,  999.0,  999.0,  999.0,   -8.9,   -9.9,  999.0,  999.0,   -2.1,  999.0,  999.0,  999.0,  999.0,  999.0,  999.0,  999.0,  999.0,  999.0,  999.0,  999.0,  999.0,  999.0,  999.0
2006/11/17 23:00,   -9.7,   -9.0,   -9.5,   -9.6,  -10.4,  -11.5,  -11.8,  -12.7,  -12.1,  -11.0,  -10.8,  -10.5,   -9.3,   -8.7,   -8.6,   -7.0,   -6.1,   -6.3,   -8.0,   -8.7,  -10.0,  -11.6,  -13.1,  -12.9,  -12.1,  -11.1,   -9.3,   -8.5,   -8.2,   -6.8,   -5.8,   -4.0,   -4.1,   -3.2,   -2.1,   -1.2,   -0.9,   -0.8,   -1.3,   -1.7,   -2.8,   -2.7,   -2.0,   -2.5,   -2.5,   -2.2,   -1.7,   -1.6,   -1.8,   -2.5,   -3.6,   -4.9,   -5.9,   -6.4,   -6.7,   -6.7,   -6.2,   -5.4,   -5.2,   -4.4,   -4.1,   -4.8,   -1.8,   -0.4,    0.3,   -0.1,   -0.3,   -0.8,   -0.6,   -0.2,   -0.5,  999.0,  999.0,  999.0,  999.0,  999.0,  999.0,  999.0,  999.0,   -0.3,  999.0,  999.0,  999.0,  999.0,  999.0,  999.0,  999.0,  999.0,  999.0,  999.0,  999.0,  999.0,  999.0,  999.0,  999.0,  999.0,  999.0,  999.0,  999.0,  999.0,  999.0,   -8.1,  999.0,  999.0,  999.0,  999.0,  999.0,  999.0,  999.0,  999.0,  999.0,  999.0,  999.0,  999.0,  999.0,  999.0,  999.0,  999.0,  999.0,  999.0
2006/11/17 23:10,   -9.7,  -10.3,  -10.0,  -10.3,  -11.1,  -11.7,  -12.0,  -12.4,  -11.2,  -11.3,  -10.9,   -9.6,   -9.6,   -9.8,   -9.4,   -8.2,   -6.4,   -6.5,   -7.1,   -8.7,  -10.2,  -10.9,  -11.5,  -12.1,  -11.9,  -11.6,  -11.0,   -9.5,   -8.7,   -7.4,   -6.1,   -4.6,   -3.7,   -3.3,   -2.8,   -1.6,   -0.9,   -0.5,   -1.6,   -1.1,   -1.5,   -1.4,   -0.3,   -0.4,   -0.9,   -1.2,   -1.0,   -2.2,   -2.6,   -3.8,   -4.4,   -4.7,   -5.6,   -5.8,   -5.6,   -5.1,   -5.0,   -4.2,   -3.7,   -3.5,   -3.9,   -4.1,   -1.0,   -1.3,   -0.0,   -0.1,   -0.2,   -0.3,   -1.2,    0.0,   -0.9,  999.0,   -2.0,  999.0,  999.0,  999.0,  999.0,  999.0,   -2.1,    0.2,  999.0,  999.0,  999.0,  999.0,  999.0,  999.0,  999.0,  999.0,  999.0,  999.0,  999.0,  999.0,  999.0,  999.0,  999.0,  999.0,  999.0,  999.0,  999.0,  999.0,  999.0,   -8.3,  999.0,   -5.2,  999.0,  999.0,  999.0,  999.0,  999.0,  999.0,  999.0,  999.0,  999.0,  999.0,  999.0,  999.0,  999.0,  999.0,  999.0,  999.0
2006/11/17 23:20,   -9.8,  -10.8,  -10.6,  -11.1,  -11.7,  -11.6,  -12.5,  -12.5,  -12.2,  -11.9,  -11.7,  -10.0,   -9.6,  -10.2,  -10.3,   -9.3,   -8.0,   -6.7,   -6.7,   -8.2,   -9.9,  -10.5,  -10.7,  -11.1,  -11.8,  -11.5,  -11.2,  -10.0,   -9.3,   -8.5,   -6.2,   -5.0,   -3.3,   -2.1,   -1.7,   -0.9,   -0.8,   -0.8,   -1.2,   -1.1,   -1.8,   -1.5,   -0.0,    0.5,    0.3,   -0.8,   -2.2,   -4.0,   -4.1,   -4.4,   -4.3,   -4.5,   -5.2,   -5.4,   -5.1,   -4.4,   -4.9,   -4.9,   -4.3,   -4.2,   -4.4,   -3.8,   -1.9,   -1.9,   -1.8,   -0.2,   -0.1,   -1.0,   -0.4,   -0.2,   -0.9,  999.0,   -2.8,  999.0,  999.0,  999.0,  999.0,  999.0,   -2.3,  999.0,  999.0,  999.0,  999.0,  999.0,  999.0,  999.0,  999.0,  999.0,  999.0,  999.0,  999.0,  999.0,  999.0,  999.0,   -0.0,  999.0,  999.0,  999.0,  999.0,   -4.5,   -3.1,   -7.9,   -9.4,  999.0,   -2.4,  999.0,  999.0,  999.0,  999.0,  999.0,  999.0,  999.0,  999.0,  999.0,  999.0,  999.0,  999.0,  999.0,  999.0,  999.0
2006/11/17 23:30,   -9.6,  -10.2,  -10.3,  -10.9,  -11.3,  -11.5,  -12.2,  -12.0,  -12.2,  -11.9,  -11.5,  -10.2,   -9.1,   -9.3,   -9.6,   -8.0,   -7.3,   -6.9,   -6.5,   -7.9,   -9.1,   -9.9,  -10.1,  -10.5,  -11.4,  -11.3,  -10.7,   -9.4,   -7.9,   -7.9,   -6.5,   -5.3,   -3.9,   -1.8,   -1.2,   -0.5,   -0.6,   -0.4,   -1.1,   -1.0,   -1.6,   -1.2,   -0.1,    0.5,    0.6,   -0.6,   -2.9,   -4.2,   -4.4,   -4.5,   -3.7,   -3.6,   -3.5,   -3.5,   -3.5,   -2.7,   -3.5,   -3.3,   -3.5,   -3.4,   -3.2,   -3.0,   -2.2,   -2.2,   -2.2,   -1.4,   -0.4,   -0.9,   -0.9,   -0.5,   -1.4,  999.0,   -2.2,  999.0,  999.0,  999.0,  999.0,  999.0,   -1.4,    1.3,  999.0,  999.0,  999.0,  999.0,  999.0,  999.0,  999.0,  999.0,  999.0,  999.0,  999.0,  999.0,  999.0,  999.0,  999.0,  999.0,  999.0,  999.0,   -4.3,   -3.9,  999.0,   -7.9,   -8.9,  999.0,  999.0,  999.0,    0.8,  999.0,  999.0,  999.0,  999.0,  999.0,  999.0,  999.0,  999.0,  999.0,  999.0,  999.0,  999.0,  999.0
2006/11/17 23:40,  999.0,   -9.9,  -10.4,  -10.8,  -10.8,  -11.2,  -11.6,  -11.8,  -12.1,  -12.1,  -11.1,   -9.6,   -8.4,   -8.6,   -9.2,   -8.6,   -8.3,   -8.1,   -7.3,   -7.4,   -8.5,   -9.1,   -9.3,   -9.7,  -10.4,  -10.8,  -10.3,   -9.3,   -7.7,   -7.5,   -6.3,   -4.3,   -2.3,   -1.1,   -1.0,   -0.4,   -0.4,   -0.5,   -0.7,   -0.8,   -0.7,   -1.2,   -0.7,   -0.4,   -0.8,   -2.1,   -3.1,   -2.9,   -3.0,   -3.6,   -2.9,   -2.8,   -2.6,   -2.5,   -2.5,   -2.5,   -3.0,   -2.7,   -3.1,   -3.3,   -2.8,   -3.1,   -1.8,   -1.0,   -1.9,   -0.1,    0.0,   -0.0,   -0.9,   -0.5,   -2.3,   -2.4,   -1.6,  999.0,  999.0,  999.0,  999.0,  999.0,   -1.5,    0.6,  999.0,  999.0,  999.0,  999.0,  999.0,  999.0,  999.0,  999.0,  999.0,  999.0,  999.0,  999.0,  999.0,  999.0,  999.0,  999.0,  999.0,  999.0,  999.0,   -4.1,   -5.2,   -7.8,   -9.3,  999.0,   -4.8,  999.0,  999.0,  999.0,  999.0,  999.0,  999.0,  999.0,  999.0,  999.0,  999.0,  999.0,  999.0,  999.0,  999.0,  999.0
